GFSWCAN_prec_cloud_003.txt.gz
Cloud_Cover
100 100 100 100 100 100 100 100 100 100 100 100 100 100 100 100 100 17 78 0 1 4 0 2 63 99 82 96 100 85 95 98 94 100 100 100 100 100 100 100 100 100 100 100 100 100 100 100 100 100 100 100 100 100
100 100 100 100 100 100 100 100 100 100 100 100 100 100 100 100 100 92 93 96 0 3 3 0 0 38 97 58 83 97 100 100 100 100 100 100 100 100 100 100 100 100 100 100 100 100 100 100 100 100 100 36 21 14
100 100 100 100 100 100 100 100 100 100 100 100 100 100 100 98 100 100 100 100 100 35 4 6 12 1 0 5 5 5 5 41 92 61 58 77 100 98 100 100 100 100 100 100 100 100 100 100 100 100 96 100 99 83
100 100 100 100 100 100 100 100 100 100 100 100 100 100 100 99 100 100 100 100 100 100 90 70 1 3 1 4 2 5 0 0 5 88 98 98 100 67 58 99 100 100 100 100 100 100 49 93 73 86 94 66 16 17
100 100 100 100 100 100 100 100 100 100 100 98 40 39 100 93 100 100 100 100 100 98 100 92 77 23 0 0 2 0 0 4 5 8 9 65 79 100 100 55 100 26 55 98 98 34 7 23 69 58 5 7 5 5
100 100 100 100 100 100 100 100 100 100 100 100 61 56 100 100 100 100 99 100 100 100 100 100 100 69 54 31 32 5 5 38 98 99 82 85 100 84 51 18 6 5 5 100 99 59 7 27 39 20 30 7 38 34
100 100 100 100 100 100 100 100 100 100 100 100 100 99 98 100 85 48 72 100 100 100 100 100 100 100 100 100 98 99 84 99 100 100 100 100 100 100 39 14 11 100 97 91 96 79 50 58 5 5 33 94 100 100
100 100 100 100 100 100 100 100 100 100 100 100 100 100 100 100 98 75 100 100 60 100 100 100 100 100 100 100 100 100 100 100 100 100 100 99 100 94 49 25 39 96 93 54 22 63 72 12 5 17 34 70 85 71
100 100 100 100 100 100 100 100 100 100 100 100 100 100 100 100 100 92 100 100 83 58 100 100 100 100 100 100 100 100 100 100 100 100 100 99 100 95 25 52 36 58 50 79 73 90 100 100 100 98 74 7 5 42
100 100 100 100 100 100 100 100 100 100 100 100 100 99 100 100 76 62 67 97 98 100 20 89 100 100 100 100 100 100 100 100 100 100 100 100 100 87 5 37 96 78 54 8 25 5 34 40 34 28 5 5 15 98
100 100 100 100 100 100 100 100 100 100 100 100 90 100 100 100 100 100 83 73 78 81 100 81 41 100 100 100 100 100 99 99 78 100 100 99 100 77 5 5 5 6 5 5 5 5 6 7 5 5 5 5 11 7
100 100 100 100 100 100 100 100 100 100 100 100 100 100 100 100 97 100 98 74 75 61 86 100 95 91 86 99 100 99 60 79 99 74 92 65 24 5 5 30 40 11 5 5 20 55 31 6 5 5 5 5 5 6
100 100 100 100 100 100 100 100 100 100 100 100 100 100 100 100 99 84 78 90 99 100 100 92 92 100 97 100 62 97 100 92 49 100 85 5 5 5 10 28 64 70 84 100 87 68 56 38 20 13 10 12 57 51
100 100 100 100 100 100 100 100 100 100 100 100 100 100 100 98 45 52 41 100 100 100 100 100 100 100 93 100 100 100 91 79 97 98 47 5 5 7 16 74 98 72 87 99 100 100 99 81 84 94 96 74 64 56
100 100 100 100 100 100 100 100 100 100 100 100 100 100 88 30 66 91 71 100 100 100 100 100 100 100 100 100 100 100 100 100 49 5 5 29 41 51 82 96 69 28 38 50 53 27 11 10 6 67 86 100 100 72
100 100 100 100 100 100 100 100 100 100 100 100 100 85 96 98 100 100 100 100 100 100 100 100 100 100 100 100 100 100 97 26 23 55 72 24 5 5 5 33 73 72 66 69 71 49 42 42 50 48 49 64 43 9
100 100 100 100 100 100 100 100 100 100 100 100 100 99 100 100 100 100 100 100 100 100 100 100 100 100 100 100 100 100 100 100 100 65 80 100 99 96 86 64 40 62 82 78 52 49 56 20 11 5 6 5 5 7
100 100 100 100 100 100 100 100 100 100 100 100 100 100 99 100 100 100 100 100 100 100 100 100 100 100 100 100 100 100 100 100 96 100 100 98 98 47 66 100 100 100 98 90 64 38 40 37 45 50 5 5 8 73
100 100 100 100 100 100 100 100 100 100 100 99 100 100 100 100 100 100 100 100 100 100 100 100 100 100 100 100 100 100 100 100 100 100 100 100 100 100 100 100 100 98 50 6 5 5 5 5 5 5 9 46 94 95
100 100 100 100 100 100 100 100 100 100 100 99 100 100 100 100 100 100 100 100 100 100 100 100 100 100 100 100 100 99 100 100 100 93 77 99 100 100 100 76 32 10 6 30 41 34 30 5 5 57 93 100 100 100
31 100 100 100 100 100 100 100 100 100 100 100 100 100 100 100 100 100 100 100 100 100 100 100 100 100 100 100 90 100 96 100 99 100 100 92 65 56 23 63 54 6 5 5 5 5 6 78 83 85 98 100 100 100
80 99 100 100 100 100 100 100 100 100 100 100 100 100 100 100 100 100 100 100 100 100 100 100 100 100 95 100 82 58 33 26 14 8 5 5 5 5 39 58 44 60 71 58 54 64 76 76 78 90 100 100 86 58
85 97 100 100 100 100 100 100 100 100 100 100 100 100 100 100 100 100 100 100 100 100 100 100 99 21 14 32 22 12 5 5 5 5 5 5 5 77 82 63 58 70 76 62 82 93 95 91 100 96 40 6 5 35
5 82 100 100 100 100 100 100 100 100 100 100 100 100 100 100 100 100 100 100 100 100 100 98 82 36 13 23 68 37 39 5 5 6 12 54 100 97 79 87 84 76 82 91 92 98 100 97 33 8 29 26 52 58
48 22 90 100 100 100 100 100 100 100 100 100 100 100 100 100 100 100 100 100 100 100 100 100 100 100 100 100 99 32 9 73 69 97 96 100 93 95 82 72 86 86 80 92 95 79 72 44 55 63 56 56 68 59
40 72 65 59 100 99 100 100 100 100 100 100 100 100 100 100 100 100 100 100 100 100 100 100 100 100 100 100 100 93 82 47 87 88 92 98 100 98 96 89 87 77 71 69 78 86 80 70 81 75 62 62 48 55
100 86 64 5 7 51 100 100 100 100 100 100 100 100 100 100 100 100 100 100 100 100 100 100 100 100 100 100 100 100 100 100 100 86 80 75 75 75 89 96 92 75 78 90 100 96 68 65 64 82 97 87 61 55
19 94 79 90 92 57 60 88 93 100 100 100 100 100 100 100 100 100 100 100 100 100 100 100 100 100 100 100 99 92 86 89 88 84 82 76 76 88 94 95 97 88 78 87 94 73 73 80 76 73 99 100 68 5
93 87 52 97 99 98 84 84 97 90 45 39 97 95 70 38 93 95 97 85 100 100 100 100 100 100 100 100 100 89 90 86 90 86 92 93 85 90 94 92 91 97 100 100 98 91 90 99 92 99 80 46 5 5
99 100 100 100 100 99 51 31 22 72 42 24 11 58 79 97 100 98 86 76 95 100 100 100 100 100 100 100 100 92 75 75 75 73 74 80 98 100 100 100 100 100 100 100 100 99 97 88 94 41 19 5 5 5
100 92 82 85 55 93 91 98 100 83 78 82 56 23 30 92 99 89 88 82 80 85 97 100 100 94 83 82 77 75 75 82 98 99 93 97 100 100 100 100 100 100 100 94 76 79 44 40 27 43 5 5 5 5
100 98 99 95 92 98 100 99 98 96 100 98 87 99 91 87 87 78 86 83 94 91 98 92 85 88 84 100 100 96 100 100 100 100 100 99 84 71 93 91 99 93 75 69 64 51 37 60 57 49 6 5 5 5
100 100 100 100 100 100 98 56 93 88 95 90 90 95 100 100 96 88 92 99 94 97 95 90 84 81 93 100 100 99 100 100 100 100 100 98 100 100 99 92 92 94 44 55 43 51 26 84 87 24 5 5 5 5

GFSWCAN_prec_cloud_006.txt.gz
Cloud_Cover
100 100 100 100 100 100 100 100 100 100 100 100 100 100 100 100 100 100 24 2 10 5 6 92 86 98 85 43 35 88 90 100 100 100 100 100 100 100 100 100 100 100 100 100 100 100 100 97 100 94 96 100 100 95
100 100 100 100 100 100 100 100 100 100 100 100 100 100 100 100 100 100 95 4 5 7 4 8 91 100 94 97 99 68 56 100 68 86 85 96 100 100 100 100 100 100 100 100 100 100 100 100 100 100 100 100 100 100
100 100 100 100 100 100 100 100 100 100 100 100 100 100 100 100 100 100 97 50 2 0 4 2 7 63 88 66 95 76 5 95 54 97 31 74 100 100 100 100 100 100 100 100 100 100 100 100 100 100 100 100 100 100
100 100 100 100 100 100 100 100 100 100 100 100 100 100 100 99 100 100 100 78 33 29 41 67 1 5 2 28 77 22 15 10 5 5 79 100 51 48 100 100 88 100 100 96 99 100 100 100 100 100 100 100 100 100
100 100 100 100 100 100 100 100 100 100 100 100 100 100 100 100 100 100 100 100 100 58 100 100 72 2 0 5 5 37 19 4 2 4 6 68 100 90 80 98 100 82 100 100 100 99 100 100 100 100 98 21 7 8
100 100 100 100 100 100 100 100 100 100 100 100 100 100 100 100 100 100 100 100 100 100 100 100 100 94 36 27 1 6 25 5 5 5 5 7 5 33 77 100 100 9 5 29 24 83 96 67 46 10 5 5 10 5
100 100 100 100 100 100 100 100 100 100 100 100 100 100 100 100 100 72 100 100 100 100 100 100 100 100 95 100 100 78 79 53 23 44 8 6 42 14 33 73 13 40 45 13 17 22 6 12 26 75 87 90 82 58
100 100 100 100 100 100 100 100 100 100 100 100 100 100 100 100 100 92 81 98 100 100 100 99 100 100 100 100 100 100 100 100 100 100 71 79 43 91 93 5 5 32 23 49 54 6 5 5 13 5 11 44 70 67
100 100 100 100 100 100 100 100 100 100 100 100 100 100 100 100 100 89 100 84 99 90 100 100 100 100 100 100 100 100 100 100 83 100 100 70 23 40 5 5 5 45 19 8 80 100 86 92 95 84 76 69 23 5
100 100 100 100 100 100 100 100 100 100 100 100 100 100 100 100 100 100 59 33 99 100 95 100 100 100 100 100 100 100 100 98 100 100 98 86 100 68 41 90 69 76 100 90 59 83 100 100 96 41 2 5 5 5
100 100 100 100 100 100 100 100 100 100 100 100 100 100 100 100 100 100 99 72 66 95 100 100 100 100 100 100 100 94 99 96 75 95 78 70 100 96 53 100 100 100 81 73 100 100 80 5 5 5 5 5 5 5
100 100 100 100 100 100 100 100 100 100 100 100 100 100 100 100 100 100 49 46 82 57 99 100 100 100 100 100 100 95 79 16 64 65 92 78 100 100 98 94 100 100 100 100 90 27 6 5 5 5 5 5 5 15
100 100 100 100 100 100 100 100 100 100 100 100 100 100 100 100 100 94 80 90 100 100 100 100 91 80 54 64 24 23 81 81 51 98 92 100 100 100 100 100 64 8 17 29 13 5 5 5 5 5 5 5 5 5
100 100 100 100 100 100 100 100 100 100 100 100 100 100 100 100 62 6 88 100 100 100 100 100 99 81 53 62 91 100 84 53 100 99 100 100 89 80 56 27 8 7 69 61 14 8 5 5 5 5 5 5 5 7
100 100 100 100 100 100 100 100 100 100 100 100 100 100 100 100 79 80 91 100 100 100 100 100 100 92 91 92 59 62 100 100 85 68 55 67 84 100 100 98 52 31 36 76 66 53 39 47 68 16 5 5 19 12
100 100 100 100 100 100 100 100 100 100 100 100 100 100 100 100 100 100 100 100 100 100 99 88 94 98 99 63 98 27 42 77 98 100 100 100 100 100 100 96 90 71 82 71 93 98 96 98 98 58 13 8 10 17
100 100 100 100 100 100 100 100 100 100 100 100 100 100 100 100 100 100 100 100 100 100 97 98 100 97 94 95 82 83 39 67 20 34 81 100 100 100 100 100 100 100 100 100 100 98 67 34 5 5 5 5 19 8
100 100 100 100 100 100 100 100 100 100 100 100 100 100 100 100 100 100 100 100 100 100 100 100 100 100 100 100 100 83 66 78 73 80 98 100 100 100 100 100 97 85 67 72 69 33 17 7 14 21 29 42 12 5
100 100 100 100 100 100 100 100 100 100 100 100 100 100 100 100 100 100 100 100 100 100 100 100 100 100 94 100 100 100 95 85 100 100 94 98 95 88 91 73 80 90 99 100 95 52 17 25 35 14 5 5 5 5
100 100 100 100 100 100 100 100 100 100 100 100 100 100 100 100 100 100 100 100 100 100 100 100 100 100 100 100 100 100 100 100 100 100 100 100 92 69 68 93 98 100 96 39 64 30 42 5 5 5 5 24 70 72
13 100 100 100 100 100 100 100 100 100 100 100 100 100 100 100 100 100 100 100 100 100 100 100 100 100 100 100 100 100 100 100 100 100 100 97 82 65 73 97 79 15 5 5 5 5 5 5 29 83 90 94 98 95
54 90 100 100 100 100 100 100 100 100 100 100 100 100 100 100 100 100 100 100 100 100 100 100 100 100 100 100 100 100 100 100 100 100 100 100 100 100 81 64 47 76 73 74 66 46 61 82 89 100 100 99 99 93
53 87 74 100 100 100 100 100 100 100 100 100 100 100 100 100 100 100 100 100 100 100 100 100 100 100 100 100 100 100 100 100 100 100 100 100 100 98 98 94 56 73 72 71 59 86 86 91 87 90 94 90 59 56
8 5 73 100 100 100 100 100 100 100 100 100 100 100 100 100 100 100 100 100 100 100 100 100 100 100 100 100 100 100 100 100 100 100 100 100 100 100 97 100 100 97 63 77 84 83 82 81 72 77 93 99 100 99
4 21 42 100 99 100 100 100 100 100 100 100 100 100 100 100 100 100 100 100 100 100 100 100 100 100 100 100 100 100 100 100 95 100 100 100 100 100 100 100 85 77 74 66 71 81 86 86 79 71 86 68 90 85
54 68 30 80 99 100 100 100 100 100 100 100 100 100 100 100 100 100 100 100 100 100 100 100 100 100 78 51 79 98 100 100 100 100 100 100 100 100 94 85 75 71 81 84 98 93 96 81 68 56 74 80 75 60
95 88 39 5 6 94 100 100 100 100 100 100 100 100 100 100 100 100 100 100 100 100 100 100 100 100 93 99 100 100 100 100 100 100 100 100 95 70 73 77 97 88 77 80 92 95 84 80 94 100 83 56 39 32
23 55 24 64 88 59 61 100 100 100 100 100 100 100 100 100 100 100 100 100 100 100 100 100 100 100 100 100 100 100 100 100 100 100 100 100 100 100 100 86 90 88 87 91 87 91 94 97 96 68 77 59 47 5
63 62 52 98 90 87 68 30 44 71 94 100 100 100 100 100 100 100 100 100 100 100 100 100 100 100 100 100 100 100 100 100 100 100 100 93 84 100 95 85 74 70 79 94 87 98 97 80 52 71 11 5 5 5
92 54 83 98 99 97 58 34 25 86 40 28 70 100 100 100 100 100 100 100 100 100 100 100 100 100 100 100 100 100 100 100 100 100 100 93 87 68 65 53 48 51 51 82 89 82 68 32 27 28 5 5 5 6
87 95 76 83 78 68 98 98 99 70 72 92 54 16 34 91 100 100 100 100 100 100 100 100 100 100 89 88 78 77 94 74 72 60 74 78 64 69 74 62 68 79 88 96 93 87 82 19 29 42 5 5 11 6
100 95 95 100 98 95 99 100 100 90 100 88 92 95 98 70 59 75 81 85 84 84 97 87 89 97 91 93 87 89 70 62 66 66 73 77 70 79 85 77 90 97 92 85 74 37 24 57 27 47 15 5 5 5
88 86 96 100 92 99 96 95 94 86 96 94 91 91 97 95 90 86 95 96 86 77 79 80 87 74 73 74 74 94 85 78 97 88 97 70 81 83 96 90 83 87 72 58 68 62 29 90 98 84 20 5 5 5

GFSWCAN_prec_cloud_009.txt.gz
Cloud_Cover
100 100 100 100 100 100 100 100 100 100 100 100 100 100 100 100 100 100 78 100 11 44 100 96 87 100 100 100 100 100 100 100 100 100 100 100 100 100 100 100 100 100 100 98 100 100 100 100 84 54 99 100 100 100
100 100 100 100 100 100 100 100 100 100 100 100 100 100 100 100 100 100 95 93 5 6 100 100 69 80 100 98 97 99 93 86 100 97 98 100 100 100 95 100 100 100 100 100 100 100 100 100 100 100 100 100 100 100
80 100 100 100 100 100 100 100 100 100 100 100 100 100 100 100 100 100 100 95 8 4 72 100 100 82 99 100 100 100 99 96 94 59 99 100 100 100 100 82 76 100 100 100 100 100 100 100 100 100 100 100 100 83
82 100 100 100 100 100 100 100 100 100 100 100 100 100 100 100 100 100 100 100 57 5 13 81 50 6 92 100 100 100 95 66 59 64 95 99 100 95 94 90 100 95 88 89 100 100 100 79 42 76 81 88 98 87
79 100 100 100 100 100 100 100 100 100 100 100 100 100 100 100 100 100 100 100 92 18 77 99 71 8 16 79 85 87 100 99 59 34 97 44 95 100 100 97 100 96 90 88 100 74 40 8 12 5 68 100 100 100
6 99 100 100 100 100 100 100 100 100 100 100 100 100 100 100 100 100 100 100 100 100 99 100 82 76 20 5 5 7 6 23 85 100 92 24 5 5 20 94 100 99 46 83 100 100 26 5 5 5 5 22 75 70
8 100 100 100 100 100 100 100 100 100 100 100 100 100 100 100 100 100 100 100 100 100 100 100 100 100 98 64 30 41 84 77 32 12 24 4 3 5 5 39 60 85 54 89 98 100 99 49 5 5 7 85 100 100
82 100 100 100 100 100 100 100 100 100 100 100 100 100 100 100 100 100 100 100 100 100 100 100 100 100 100 100 100 100 100 66 99 94 74 30 19 7 10 5 5 5 16 5 15 23 17 5 5 20 87 97 99 89
90 100 100 100 100 100 100 100 100 100 100 100 100 100 100 100 100 100 100 100 100 100 100 100 100 100 100 100 100 100 100 100 100 100 100 100 70 34 5 5 3 5 6 5 97 5 5 24 87 98 93 99 95 71
69 100 100 100 100 100 100 100 100 100 100 100 100 100 100 100 100 100 100 70 100 100 100 100 100 100 100 100 100 100 100 100 100 93 86 99 27 5 5 5 5 5 5 24 5 41 97 100 100 100 97 18 26 82
91 100 100 100 100 100 100 100 100 100 100 100 100 100 100 100 100 100 100 48 38 92 89 100 100 100 99 100 100 100 100 100 78 88 98 100 100 100 68 100 100 99 66 99 100 100 100 96 45 5 25 91 100 58
6 98 100 100 100 100 100 100 100 100 100 100 100 100 100 100 100 100 100 96 93 74 95 98 100 100 100 100 100 94 47 54 33 78 100 100 100 100 88 100 100 100 98 96 50 10 5 35 86 100 82 20 5 5
100 100 100 100 100 100 100 100 100 100 100 100 100 100 100 100 92 98 100 99 100 100 100 100 97 80 40 17 50 32 6 11 10 78 100 100 100 100 100 96 85 80 85 54 22 6 6 66 15 5 5 5 5 5
31 100 100 100 100 100 100 100 100 100 100 100 100 100 100 100 56 9 100 100 100 100 100 99 100 86 18 70 96 93 34 43 48 100 100 100 100 100 100 100 100 64 62 83 100 100 96 57 45 29 20 5 5 5
83 100 100 100 100 100 100 100 100 100 100 100 100 96 98 89 100 100 100 100 100 100 100 100 100 70 96 87 36 81 97 94 100 100 100 90 90 93 92 98 100 100 100 94 38 30 20 9 5 6 8 5 5 7
45 100 100 100 100 100 100 100 100 100 100 100 100 100 100 99 100 100 100 100 100 100 100 100 98 70 100 54 99 74 65 72 100 95 22 47 66 42 64 78 90 100 100 100 88 74 41 40 58 94 94 56 50 61
9 100 100 100 100 100 100 100 100 100 100 100 100 82 61 50 97 100 100 100 100 100 100 100 84 92 80 100 94 73 77 28 54 66 93 100 100 97 100 100 100 100 99 100 100 100 100 97 86 60 10 11 88 100
5 100 100 100 100 100 100 100 100 100 100 100 100 98 99 100 100 100 100 100 100 100 100 100 100 100 100 100 100 100 83 78 66 72 100 100 100 100 100 100 100 100 96 100 100 100 100 95 58 98 100 98 86 76
5 99 100 100 100 100 100 100 100 100 100 100 100 100 100 100 100 100 100 100 100 100 100 100 100 100 100 100 100 100 91 87 100 100 100 100 100 100 100 100 100 95 91 100 100 100 91 81 55 54 50 55 55 31
2 100 100 100 100 100 100 100 100 100 100 100 100 100 100 100 100 100 100 100 100 100 100 100 100 100 100 100 100 100 100 99 91 100 100 100 100 100 100 84 58 90 100 100 100 85 79 70 68 92 99 95 52 30
4 68 100 100 100 100 100 100 100 100 100 100 100 100 100 100 100 100 100 100 100 100 100 100 100 100 100 100 100 100 83 92 100 100 100 100 100 100 100 95 100 100 99 65 32 35 57 89 70 76 70 34 5 5
23 40 99 100 100 100 100 100 100 100 100 100 100 100 100 100 100 100 100 100 100 100 100 100 100 100 100 100 100 100 100 100 100 100 99 98 98 95 85 75 88 86 74 80 55 88 96 99 78 65 39 5 5 5
19 11 68 100 100 100 100 100 100 100 100 100 100 100 100 100 100 100 100 100 100 100 100 100 100 100 100 100 100 100 100 100 100 100 98 80 83 71 65 58 46 69 88 99 93 87 75 77 69 59 47 17 22 13
2 5 50 84 100 100 100 100 100 100 100 100 100 100 100 100 100 100 100 100 100 100 100 100 100 100 100 100 100 100 100 100 100 100 100 100 100 97 81 84 70 98 100 98 74 76 73 69 69 68 64 66 57 59
3 6 5 34 61 100 100 100 100 100 100 100 100 100 100 100 100 100 100 100 100 100 100 100 100 100 100 100 100 100 100 100 100 100 100 100 100 100 100 100 100 100 100 99 69 68 68 65 28 36 53 50 50 5
49 65 47 82 79 74 100 100 100 100 100 100 100 100 100 100 100 100 100 100 100 100 100 100 100 100 100 100 100 100 100 100 100 100 100 100 100 100 100 100 100 93 93 84 96 84 79 93 98 72 59 70 29 64
82 80 72 38 18 23 100 100 100 100 100 100 100 100 100 100 100 100 100 100 100 100 100 100 100 100 100 100 100 100 100 100 100 100 100 100 100 100 98 94 83 63 65 62 59 46 49 28 56 54 48 34 48 23
13 41 23 35 86 65 54 100 100 100 98 100 100 100 100 100 100 100 100 100 100 100 100 100 100 100 100 100 100 100 100 100 100 100 100 100 100 100 100 100 100 98 98 57 19 5 22 50 56 52 58 47 5 5
61 44 9 40 74 92 92 7 49 98 100 100 100 100 100 100 100 100 100 100 100 100 100 100 100 100 100 100 100 100 100 100 100 100 100 100 100 100 82 61 61 90 73 46 57 70 80 67 46 24 9 5 5 5
94 75 82 87 100 96 76 54 38 90 39 86 100 100 100 100 100 100 100 100 100 100 100 100 100 100 100 100 100 100 100 100 100 100 100 94 100 92 83 64 68 72 78 89 83 36 50 32 5 30 5 5 5 6
99 90 88 100 96 94 98 100 99 80 76 68 53 33 100 100 100 100 100 100 100 100 100 100 100 100 100 100 100 98 98 67 78 59 78 29 48 65 88 70 72 63 48 34 5 5 37 13 6 15 5 26 20 8
100 95 88 100 100 94 98 100 97 87 93 83 81 74 92 65 90 100 100 100 100 100 100 100 100 96 90 84 89 85 67 82 77 35 49 62 63 65 70 83 85 79 71 61 34 10 21 26 13 16 10 33 5 5
100 100 100 83 94 100 97 69 90 76 82 93 92 94 93 93 54 96 100 100 100 100 100 100 99 100 97 97 97 94 93 79 80 80 75 74 80 81 83 82 80 69 58 54 58 36 42 86 87 71 19 5 5 5

GFSWCAN_prec_cloud_012.txt.gz
Cloud_Cover
5 10 100 100 100 100 100 100 100 100 100 100 100 100 100 100 100 100 100 100 100 100 100 100 100 100 100 100 100 100 100 100 100 100 100 100 100 100 100 100 100 100 90 100 99 95 58 100 100 81 98 27 16 13
5 5 100 100 100 100 100 100 100 100 100 100 100 100 100 100 100 100 100 100 100 100 100 100 99 100 100 100 100 100 100 100 100 100 85 100 100 100 100 100 100 99 91 100 99 91 94 88 65 32 8 20 92 100
5 6 100 100 100 100 100 100 100 100 100 100 100 100 100 100 100 100 100 100 100 100 100 100 100 100 100 100 100 100 100 100 100 100 100 100 100 95 100 100 100 100 100 100 100 100 100 100 100 100 100 100 100 100
5 12 100 100 100 100 100 100 100 100 100 100 100 100 100 100 100 100 100 100 100 100 100 100 100 100 100 100 100 100 100 100 100 100 100 100 100 100 100 98 100 100 100 100 100 100 100 100 97 100 100 100 100 100
6 5 100 100 100 100 100 100 100 100 100 100 100 100 100 100 100 100 100 100 100 100 96 93 91 100 100 100 99 99 100 100 85 100 100 96 100 100 98 99 100 84 98 100 100 100 100 100 100 100 100 100 100 100
5 5 100 100 100 100 100 100 100 100 100 100 100 100 100 100 100 100 100 100 100 100 100 89 76 100 100 100 100 100 99 100 100 96 92 64 6 100 94 88 84 100 100 100 100 100 89 100 80 58 26 9 6 6
5 5 87 100 100 100 100 100 100 100 100 100 100 100 100 100 100 100 100 100 100 100 100 100 99 100 100 98 70 98 100 100 100 100 45 100 100 78 26 100 100 100 100 87 49 95 100 91 78 77 26 16 39 15
5 5 100 100 100 100 100 100 100 100 100 100 100 100 100 100 100 100 100 100 93 100 100 100 100 100 100 100 96 75 74 66 69 40 63 56 32 38 79 100 100 17 3 4 4 21 62 74 26 8 5 5 5 4
5 5 93 100 100 100 100 100 100 100 100 100 100 100 100 100 100 100 100 100 100 100 100 100 100 100 99 100 98 95 88 99 95 99 100 28 55 64 74 98 31 4 5 5 5 2 4 4 21 25 2 5 5 5
5 5 100 100 100 100 100 100 100 100 100 100 100 100 100 100 100 100 100 97 100 100 100 100 100 100 100 100 100 100 100 100 100 100 100 100 99 98 28 5 5 5 5 5 4 86 20 100 94 38 32 62 54 45
6 5 96 100 100 100 100 100 100 100 100 100 100 98 100 100 100 100 100 66 31 91 100 100 100 100 99 100 100 73 100 100 100 100 92 77 58 0 2 3 4 5 5 5 5 5 20 86 92 69 61 74 68 39
5 5 84 100 100 100 100 100 100 100 100 100 100 100 100 100 100 62 79 80 84 33 97 100 100 100 86 100 100 100 97 94 88 100 100 100 100 60 6 5 16 32 62 18 30 29 61 80 92 84 79 80 73 81
5 5 93 100 100 100 100 100 100 100 100 100 100 100 100 100 79 15 99 94 100 100 100 100 100 100 91 50 80 56 34 8 98 100 100 100 100 35 38 6 67 91 98 87 85 92 94 99 100 96 56 71 99 100
5 5 64 100 100 100 100 100 100 100 100 100 100 100 100 100 64 6 78 100 100 100 100 100 100 9 41 40 41 9 33 89 86 100 100 100 82 71 94 29 5 13 16 12 45 61 77 65 70 100 99 99 93 100
5 43 100 100 100 100 100 100 100 100 100 100 100 100 100 68 69 70 100 100 100 100 100 100 69 36 79 6 9 84 86 53 100 100 99 87 59 40 42 62 82 98 99 98 95 79 64 51 65 98 100 100 100 100
5 5 100 100 100 100 100 100 100 100 100 100 100 100 100 99 100 100 100 100 100 100 100 100 100 97 98 70 82 12 5 24 62 73 55 67 100 100 100 100 100 100 88 61 40 70 41 77 100 100 100 98 82 78
2 5 30 100 100 100 100 100 100 100 100 100 100 100 100 100 100 100 100 100 100 100 100 100 100 100 100 100 100 100 100 95 98 98 93 99 100 82 55 67 98 96 75 74 78 47 61 71 60 56 66 81 94 78
0 6 90 100 100 100 100 100 100 100 100 100 99 97 100 100 100 100 100 100 100 100 100 100 100 100 100 100 100 99 90 67 61 98 100 99 100 99 93 76 81 88 55 55 73 77 81 90 98 91 60 44 9 28
6 70 44 100 100 100 100 100 100 100 100 100 100 89 100 100 100 100 100 100 100 100 100 100 100 91 33 68 100 100 100 100 81 58 67 84 92 98 100 100 94 68 51 42 68 91 98 100 99 58 33 47 72 55
0 0 6 100 100 100 100 100 100 100 100 100 100 100 94 100 100 100 100 100 100 100 100 100 100 100 99 92 100 100 98 94 97 93 97 100 100 100 100 100 90 48 42 31 51 91 87 50 61 39 43 33 11 5
0 3 24 68 100 100 100 100 100 100 100 100 100 100 100 100 100 100 100 100 100 100 100 100 100 100 100 100 100 100 100 100 100 100 100 100 100 100 100 100 100 73 27 51 79 96 90 87 95 55 14 12 24 5
5 5 7 22 100 100 100 100 100 100 100 100 100 100 100 100 100 100 100 100 100 100 100 100 100 100 100 100 100 100 100 100 100 100 100 100 100 100 100 100 100 95 84 84 92 62 38 36 46 41 58 96 97 80
6 4 5 12 100 100 100 100 100 100 100 100 100 100 100 100 100 100 100 100 100 100 100 100 100 100 100 100 100 100 100 100 100 100 100 100 100 100 100 100 96 83 87 88 96 91 64 54 74 98 100 99 80 63
1 5 37 9 85 100 100 100 100 100 100 100 100 100 100 100 100 100 100 98 100 100 100 100 100 100 100 100 100 100 100 100 100 100 100 100 100 100 100 100 100 100 93 96 100 100 100 100 100 92 47 84 76 9
3 5 5 27 33 79 100 100 100 100 100 100 100 100 100 100 100 100 100 100 100 100 100 100 100 100 100 100 100 100 100 100 100 100 100 100 100 100 100 100 100 100 100 100 100 100 100 99 72 95 31 5 5 5
32 69 52 83 72 32 100 100 100 100 100 100 100 100 100 100 100 100 100 100 100 100 100 100 100 100 100 100 100 100 100 100 100 100 100 100 100 100 100 100 100 100 100 100 100 100 96 78 26 5 5 8 10 5
21 72 94 78 17 17 93 100 100 100 100 100 100 100 100 100 100 100 100 100 100 100 100 100 100 100 100 100 100 100 100 100 100 100 100 100 100 100 100 100 100 100 100 100 97 52 6 5 5 5 5 12 22 6
5 6 5 37 46 70 32 67 100 100 100 100 100 100 100 100 100 100 100 100 100 100 100 100 100 100 100 100 100 100 100 100 100 100 100 100 100 100 100 95 76 71 60 9 5 5 5 6 9 5 5 5 5 5
59 48 9 74 83 92 98 9 65 100 100 100 100 100 100 100 100 100 100 100 100 100 100 100 100 100 100 100 100 100 100 100 100 100 93 97 89 98 58 56 54 58 27 26 41 40 55 17 18 5 5 5 5 5
86 84 70 91 100 90 97 78 85 98 92 100 100 100 100 100 100 100 100 100 100 100 100 100 100 100 100 100 100 100 100 100 100 100 73 73 95 100 100 85 69 67 64 28 73 88 46 21 41 5 5 5 5 6
99 91 83 99 100 98 97 98 99 83 73 37 60 40 94 100 100 100 100 100 100 100 100 100 100 100 100 100 100 99 90 81 97 82 79 81 92 97 96 69 65 62 56 45 5 5 5 6 5 5 5 5 5 8
100 98 91 100 100 89 100 99 97 85 92 57 72 61 83 33 82 100 100 100 100 100 100 100 100 100 100 100 100 95 94 92 83 78 89 62 86 71 75 62 24 6 5 5 5 5 5 5 5 5 5 5 5 5
100 100 96 74 94 100 92 90 92 63 63 92 94 99 100 86 64 76 80 85 97 100 100 100 100 100 100 100 100 100 100 100 100 98 100 92 69 56 55 39 47 53 43 5 5 5 5 5 5 5 5 5 5 5

GFSWCAN_prec_cloud_015.txt.gz
Cloud_Cover
52 28 6 5 92 100 100 100 100 100 100 100 100 100 100 100 100 100 100 100 100 100 100 100 100 100 100 100 100 100 100 100 100 93 100 85 85 100 100 100 100 100 100 98 100 70 100 68 26 56 84 42 23 5
86 24 76 5 21 91 100 100 100 100 100 100 100 100 100 100 100 100 100 100 100 100 100 100 100 100 100 100 100 100 100 100 100 100 98 100 100 95 77 100 72 100 43 55 30 84 100 94 100 69 96 99 92 75
77 5 7 37 97 100 100 100 100 100 100 100 100 100 100 100 100 100 100 100 100 100 100 100 96 100 100 100 100 100 100 100 100 100 100 100 100 100 100 100 100 99 92 98 67 100 100 99 99 58 86 60 14 18
100 11 5 16 36 99 100 100 100 100 100 100 100 100 100 100 100 100 100 100 100 100 100 100 100 100 100 100 100 100 100 100 100 100 100 100 100 100 100 100 100 100 100 100 100 100 100 100 100 100 100 100 100 100
99 6 5 5 14 91 100 100 100 100 100 100 100 100 100 100 100 100 100 100 100 100 100 100 100 100 100 100 100 97 100 100 100 100 100 100 100 100 100 100 100 100 100 100 100 86 100 100 100 100 100 100 100 100
100 94 5 5 5 95 100 100 100 100 100 100 100 100 100 100 100 100 100 100 100 100 100 100 100 100 100 100 100 100 100 100 100 100 100 100 100 100 100 100 100 100 100 100 100 100 100 100 100 100 100 100 100 100
99 98 6 5 5 100 100 100 100 100 100 100 100 100 100 100 100 100 100 100 100 100 100 100 100 100 100 100 100 100 100 100 100 100 100 100 52 89 96 100 100 100 100 88 61 38 46 20 21 35 48 56 34 38
95 100 10 5 8 100 100 100 100 100 100 100 100 100 100 100 100 100 100 100 100 100 99 100 100 98 100 100 100 100 100 85 100 100 92 10 20 36 96 100 88 95 31 14 6 88 98 100 100 69 11 6 71 43
5 6 5 5 18 100 100 100 100 100 100 100 100 100 100 100 100 100 100 100 100 100 100 100 100 100 96 98 100 100 98 97 70 56 51 30 32 65 100 100 5 1 5 5 5 45 5 5 6 5 5 15 5 4
5 5 5 17 26 100 100 100 100 100 100 100 100 100 100 100 100 100 100 100 100 100 100 100 100 100 100 100 100 100 81 91 98 54 47 92 100 96 63 97 99 15 2 0 3 94 100 100 7 4 5 5 5 5
5 5 5 5 99 100 100 100 100 100 100 100 100 100 100 100 100 100 100 95 84 100 100 100 100 100 100 100 100 100 100 100 100 96 93 98 100 91 5 5 5 5 16 7 5 5 5 5 5 5 4 7 24 80
5 5 5 8 100 100 100 100 100 100 100 100 100 100 100 100 100 92 99 95 99 100 100 100 100 100 100 100 100 100 100 92 82 100 100 100 100 6 5 11 7 62 98 75 20 5 5 5 5 38 93 100 100 100
5 5 5 43 100 100 100 100 100 100 100 100 100 100 100 100 91 98 100 99 100 100 100 100 100 100 100 100 100 100 81 89 100 100 100 100 100 84 84 100 100 100 99 93 84 93 99 100 100 100 100 95 64 78
5 5 5 43 100 100 100 100 100 100 100 100 100 100 100 100 42 96 100 100 100 100 100 100 100 100 81 80 15 26 40 100 100 100 100 100 94 50 92 100 100 100 100 100 100 100 100 100 100 98 94 91 89 76
5 5 4 7 100 100 100 100 100 100 100 100 100 100 100 100 100 100 100 100 100 100 100 100 88 100 98 36 37 79 96 97 100 100 100 99 62 44 71 96 100 100 100 100 100 100 100 84 49 50 64 59 93 100
5 1 5 94 100 100 100 100 100 100 100 100 100 99 100 100 100 100 100 100 100 100 100 95 53 52 84 57 100 100 100 100 100 100 100 89 82 98 100 100 100 100 100 100 100 93 89 97 97 100 100 97 97 74
1 7 94 90 100 100 100 100 100 100 100 100 99 56 100 100 100 100 100 100 100 100 100 54 10 5 65 98 34 98 100 100 100 100 100 100 100 100 100 100 100 100 100 100 100 100 100 96 84 80 58 72 86 100
2 27 29 7 100 100 100 100 100 100 100 100 100 99 100 100 100 100 100 100 100 100 100 91 99 89 60 40 98 100 98 91 91 69 71 55 41 38 72 99 100 96 70 60 85 95 100 95 68 54 35 66 56 18
4 4 5 11 100 100 100 100 100 100 100 100 100 100 100 100 100 100 100 100 100 100 100 100 100 56 62 71 100 100 100 100 82 58 71 98 100 100 100 100 100 100 100 98 94 84 80 60 19 34 11 5 5 5
0 1 4 33 98 100 100 100 100 100 100 100 100 100 100 100 100 100 100 100 100 100 100 100 100 100 100 100 100 100 100 99 97 91 87 100 100 100 100 98 97 74 64 57 58 45 20 35 36 28 39 72 46 75
3 2 5 6 100 100 100 100 100 100 100 100 100 100 100 100 100 100 100 100 100 100 100 100 100 100 100 100 100 100 100 100 100 97 100 100 100 100 96 78 92 100 99 76 85 70 44 69 53 14 50 85 100 100
4 5 5 6 100 100 100 100 100 100 100 100 100 100 100 100 100 100 100 100 100 100 100 100 100 100 100 100 100 100 100 100 100 99 100 100 100 100 100 100 100 100 100 96 74 72 54 38 75 86 82 62 19 21
2 2 5 5 24 100 100 100 100 100 100 100 100 100 100 100 100 100 100 100 100 100 100 100 100 100 100 100 100 100 100 100 100 100 100 100 100 100 100 100 100 100 100 100 96 92 78 74 92 95 37 32 56 70
0 4 5 5 5 66 100 100 100 100 100 100 100 100 100 100 100 100 100 100 100 100 100 100 100 100 100 100 100 100 100 100 100 100 100 100 100 100 100 71 83 71 87 100 100 100 100 100 100 94 48 67 96 82
0 4 5 5 5 5 93 100 100 100 100 100 100 100 100 100 100 100 100 100 100 100 100 100 100 100 100 100 100 100 100 100 100 100 100 100 96 94 73 64 78 63 66 100 100 100 100 100 98 69 82 96 82 17
5 34 30 51 44 27 29 100 100 100 100 100 100 100 100 100 100 100 100 100 100 100 100 100 100 100 100 100 100 100 100 100 100 99 80 62 59 70 63 69 86 92 100 97 100 100 98 81 58 69 59 8 5 44
0 4 64 80 33 5 9 74 100 100 100 100 100 100 100 100 100 100 100 100 100 100 100 100 100 100 100 100 100 100 100 100 100 100 86 72 80 93 86 68 41 38 19 21 5 7 7 7 8 11 6 5 6 9
4 5 5 10 5 37 7 32 76 100 100 100 100 100 100 100 100 100 100 100 100 100 100 100 100 100 100 100 100 100 100 100 100 94 91 94 100 100 100 100 100 100 56 7 5 5 32 69 63 9 5 5 5 5
38 36 5 70 23 58 64 9 59 100 99 100 100 100 100 100 100 100 100 100 100 100 100 100 100 100 100 100 100 100 100 100 100 100 100 100 100 100 100 79 59 40 46 54 75 78 29 14 5 5 5 5 5 5
85 71 48 89 42 7 88 58 100 99 100 100 100 100 100 100 100 100 100 100 100 100 100 100 100 100 100 100 100 100 100 100 100 100 100 100 99 92 99 100 100 100 100 99 89 86 82 30 28 5 5 5 5 5
95 74 45 68 94 98 100 96 95 76 75 99 100 100 100 100 100 100 100 100 100 100 100 100 100 100 100 100 100 99 100 100 100 100 100 100 100 100 100 100 98 91 58 62 63 52 14 5 5 5 5 5 5 5
100 79 56 98 94 88 100 98 96 82 92 56 72 89 91 97 100 100 100 100 100 100 100 100 100 100 100 100 100 100 100 100 100 100 99 99 100 99 100 100 70 15 6 5 5 5 5 5 5 5 5 5 5 5
99 99 87 61 87 96 87 74 83 47 30 78 91 99 99 79 48 97 96 100 100 100 100 100 100 100 100 100 100 100 100 100 100 100 100 100 100 100 100 100 96 45 6 5 5 5 5 5 5 5 5 5 5 5

GFSWCAN_prec_cloud_018.txt.gz
Cloud_Cover
12 55 100 5 5 13 100 100 100 100 100 100 100 100 100 100 100 100 100 100 100 100 100 100 100 100 100 100 100 100 100 100 100 100 100 100 100 100 100 100 93 100 100 100 100 100 100 67 33 84 84 59 12 5
12 99 97 47 5 10 100 100 100 100 100 100 100 100 100 100 100 100 100 100 100 100 100 100 100 100 100 100 100 100 100 100 100 100 100 100 100 100 100 99 64 100 100 100 100 100 100 100 68 95 89 67 83 91
81 13 100 80 5 34 99 93 99 100 100 100 100 100 100 100 100 100 100 100 100 100 100 100 100 100 100 100 100 100 100 100 100 100 100 100 100 100 100 100 100 100 90 99 93 71 86 69 81 100 100 100 89 92
80 85 98 75 30 98 100 100 100 100 100 100 100 100 100 100 100 100 100 100 100 100 100 100 100 100 100 100 100 100 100 100 100 100 100 100 100 100 100 100 100 99 89 89 90 100 67 76 84 71 84 84 100 100
90 85 78 29 40 82 100 100 98 100 100 100 100 100 100 100 100 100 100 100 100 100 100 100 100 100 100 100 100 100 100 100 100 100 100 100 100 100 100 100 100 100 100 100 100 100 100 100 100 100 100 100 98 82
88 100 100 100 67 17 100 97 100 100 100 100 100 100 100 100 100 100 100 100 100 100 100 100 100 100 100 100 100 100 100 100 100 100 100 100 100 100 100 100 100 100 100 100 100 100 100 100 100 100 97 100 100 100
100 97 33 94 37 6 100 97 100 100 100 100 100 100 100 100 100 100 100 100 100 100 100 100 100 100 100 100 99 100 100 100 100 100 100 100 100 100 100 100 100 100 100 98 100 100 100 100 100 100 100 99 98 98
94 100 100 52 5 5 100 40 98 100 100 100 100 100 100 100 100 100 100 100 100 100 100 100 100 100 100 100 100 98 100 100 100 100 100 100 100 100 100 85 100 95 98 100 100 100 100 100 100 100 96 80 78 91
97 92 89 11 5 5 12 100 100 100 100 100 100 100 100 100 100 100 100 100 100 100 100 100 100 100 100 100 100 100 100 100 92 99 100 60 100 100 98 5 5 5 5 7 11 79 62 100 99 89 59 21 12 13
100 98 5 5 5 5 38 100 100 100 100 100 100 100 100 100 100 100 100 100 100 100 100 100 100 100 100 100 100 100 100 84 100 100 43 99 100 100 100 5 34 32 5 5 13 87 46 29 7 14 51 6 58 33
98 95 5 5 5 5 100 100 100 100 100 100 100 100 100 100 100 100 100 100 100 100 100 100 100 100 100 100 100 100 100 100 100 100 97 100 100 100 6 14 54 23 6 5 5 5 5 5 4 2 5 25 7 5
5 5 5 5 5 5 99 100 100 100 100 100 100 100 100 100 100 100 100 100 100 100 100 100 100 100 100 100 100 100 100 100 100 100 91 100 100 92 5 5 10 22 70 94 27 12 5 5 3 5 5 5 13 70
1 5 5 5 5 12 100 100 100 100 100 100 100 100 100 100 100 100 100 100 100 100 100 100 100 100 100 97 100 100 63 88 30 89 92 100 100 96 92 93 56 93 34 88 100 82 84 48 21 76 82 87 97 100
5 5 5 5 21 100 100 100 100 100 100 100 100 100 100 100 78 100 100 100 100 100 100 100 100 99 82 75 87 73 64 68 70 100 100 100 40 7 50 67 83 85 86 100 100 100 100 100 100 100 100 100 100 100
5 0 5 5 29 47 100 100 100 100 100 100 100 100 100 94 100 100 100 100 100 100 100 100 97 60 66 88 46 61 100 100 100 100 100 92 35 38 39 45 93 100 100 100 100 100 100 100 98 84 67 81 85 96
5 1 4 5 5 53 100 100 100 100 100 100 100 100 100 93 100 100 100 100 100 100 100 100 65 15 20 6 28 49 95 100 100 100 100 21 5 10 37 99 100 100 100 100 100 85 58 58 70 82 97 90 91 100
4 5 5 5 5 46 100 100 100 100 100 100 100 81 100 100 52 99 100 100 100 100 100 100 90 5 49 34 12 100 100 100 100 100 99 76 50 97 100 100 100 100 100 100 100 100 100 100 100 100 100 100 100 99
5 5 5 5 45 100 100 100 100 100 100 100 100 100 100 100 100 100 100 100 100 100 100 100 100 66 11 5 17 87 97 48 92 100 100 100 100 100 100 100 100 100 100 100 100 100 100 100 100 100 100 100 99 99
3 5 3 5 83 100 100 100 100 100 100 100 100 100 100 96 100 100 100 100 100 100 100 100 100 100 95 82 88 100 54 75 94 96 99 100 100 100 100 100 100 100 99 100 100 97 91 91 73 67 50 39 26 38
0 2 3 5 93 100 100 100 100 100 100 100 100 100 100 100 100 100 100 100 100 100 100 100 100 100 100 100 100 100 72 74 96 100 62 85 84 97 100 100 100 98 88 88 98 100 100 100 100 96 71 24 11 80
1 0 3 2 96 98 86 100 100 100 100 100 100 100 100 100 100 100 100 100 100 100 100 100 100 100 100 100 100 100 96 94 94 100 85 49 87 100 100 100 100 100 100 100 100 100 100 100 100 86 52 46 87 100
4 3 5 4 12 22 70 96 100 100 100 100 100 100 100 100 100 100 100 100 100 100 100 100 100 100 100 100 100 100 100 100 100 74 69 66 73 70 60 65 82 100 100 100 100 91 88 100 92 75 96 100 100 100
2 2 5 5 5 8 89 84 100 100 100 100 100 100 100 100 100 100 100 100 100 100 100 100 100 100 100 100 100 100 100 100 95 100 100 100 100 90 92 95 94 71 73 77 90 93 93 86 65 57 57 45 18 12
1 4 5 6 6 23 53 100 95 100 100 100 100 100 100 100 100 100 100 100 100 100 100 100 100 100 100 100 100 100 100 100 100 100 100 99 100 100 100 92 84 89 98 93 96 80 68 41 16 9 14 6 5 5
0 1 4 4 5 4 6 100 99 100 100 100 100 100 100 100 100 100 100 100 100 100 100 100 100 100 100 100 100 100 100 100 100 100 100 100 100 100 84 88 83 83 84 100 100 99 77 29 19 5 5 5 5 5
0 3 6 5 37 32 50 83 100 100 100 100 100 100 100 100 100 100 100 100 100 100 100 100 100 100 100 100 100 100 100 100 100 100 100 100 100 100 96 98 100 100 100 84 38 37 17 6 5 8 5 5 5 5
0 2 5 5 5 5 5 4 34 100 100 100 100 100 100 100 100 100 100 100 100 100 100 100 100 100 100 100 100 100 100 100 100 100 100 100 99 100 100 100 100 100 100 100 92 34 5 5 5 5 5 5 5 5
4 5 4 5 18 33 20 5 5 57 100 100 100 100 100 100 100 100 100 100 100 100 100 100 100 100 100 100 100 100 100 100 100 100 100 100 82 95 99 96 93 81 70 84 90 53 5 5 6 46 90 83 11 5
33 20 11 59 50 56 78 55 70 93 82 100 100 100 100 100 100 100 100 100 100 100 100 100 100 100 100 100 100 100 100 100 100 100 100 100 98 97 98 92 94 100 100 100 78 47 81 80 77 97 88 23 5 5
72 49 42 64 7 32 94 82 100 96 7 74 99 100 100 100 100 100 100 100 100 100 100 100 100 100 100 100 100 100 100 100 100 100 100 100 99 100 100 100 100 95 87 100 100 100 100 19 5 5 5 5 5 5
66 45 32 20 91 96 92 83 67 38 44 55 96 97 100 100 100 100 100 100 100 100 100 100 100 100 100 100 100 100 100 100 100 100 100 100 100 100 100 100 100 100 100 100 94 71 94 13 5 5 5 5 5 20
89 87 57 94 98 80 82 81 86 73 73 56 88 73 89 100 100 100 100 100 100 100 100 100 100 100 100 100 100 100 100 100 100 100 100 100 100 100 100 100 100 100 100 57 26 6 5 5 5 8 5 5 5 5
99 94 70 69 83 92 78 41 56 54 22 57 78 84 90 75 100 100 100 100 100 100 100 100 100 100 100 100 100 100 100 100 100 100 100 100 100 100 100 100 100 98 82 61 49 41 24 15 8 5 5 5 5 5

GFSWCAN_prec_cloud_021.txt.gz
Cloud_Cover
100 75 79 40 5 11 5 49 99 83 100 100 100 100 100 100 100 100 100 100 100 100 100 100 100 100 100 100 100 100 100 100 100 100 100 100 100 79 95 77 81 86 100 100 80 84 69 8 95 5 16 5 16 5
47 100 88 9 57 8 6 80 100 100 100 97 100 100 100 100 100 100 100 100 100 100 100 100 100 100 100 100 100 100 100 100 100 100 100 100 100 77 62 99 9 54 92 100 99 91 90 100 98 95 45 5 5 5
70 98 97 17 19 82 5 5 92 100 100 100 100 100 100 100 100 100 100 100 100 100 100 100 100 100 100 100 100 100 100 100 100 100 100 100 100 100 100 100 100 100 50 100 100 99 98 50 97 100 88 14 5 5
77 92 99 15 56 81 79 5 5 84 100 100 100 100 100 100 100 100 100 100 100 100 100 100 100 100 100 100 100 100 100 100 100 100 100 100 100 100 100 100 100 100 100 100 98 86 100 80 99 100 95 36 42 74
67 96 100 94 10 88 75 5 5 55 100 100 100 100 100 100 100 100 100 100 100 100 100 100 100 100 100 100 100 100 100 100 100 100 100 100 100 100 100 100 100 100 100 100 99 100 100 100 100 100 100 100 97 94
61 8 100 92 63 51 67 6 7 91 100 100 100 100 100 100 100 100 100 100 100 100 100 100 100 100 100 100 100 100 100 100 100 100 100 100 100 100 100 100 100 100 100 100 100 100 100 100 100 100 100 100 100 100
100 46 6 26 96 6 10 60 46 37 99 100 100 100 100 100 100 100 100 100 100 100 100 100 100 100 100 100 100 100 100 100 100 100 100 100 100 100 100 100 99 98 100 100 100 100 100 100 100 100 100 100 100 100
16 5 5 5 96 7 5 5 18 94 100 100 100 100 100 100 100 100 100 100 100 100 100 100 100 100 100 100 100 100 100 98 99 100 100 100 100 100 100 88 96 98 100 100 100 100 100 98 100 100 100 100 100 100
5 5 5 5 7 5 5 5 8 36 100 100 100 100 100 100 100 100 100 100 100 100 100 100 100 100 100 100 100 100 100 100 100 72 90 100 100 100 100 100 100 100 100 92 100 100 100 100 100 100 88 62 67 89
5 5 5 5 5 5 5 5 7 100 100 100 100 100 100 100 100 100 100 100 100 100 100 100 100 100 100 100 100 100 96 97 100 100 100 100 100 100 93 68 62 98 50 44 55 31 5 13 39 7 5 5 6 57
5 5 5 5 5 5 5 9 16 100 100 100 100 100 100 100 100 100 100 100 100 100 100 100 100 100 100 100 100 100 100 100 100 100 100 100 100 100 92 20 31 6 5 32 9 67 20 14 16 19 5 5 33 100
2 4 5 5 5 5 5 100 92 100 100 100 100 100 100 100 100 100 100 100 100 100 100 100 100 100 100 100 100 100 100 99 100 100 100 100 100 100 76 52 61 15 11 17 67 95 100 99 54 6 5 56 100 83
0 5 5 5 7 14 16 100 96 100 100 100 100 100 100 100 100 100 100 100 100 100 100 100 100 100 100 100 100 100 100 100 100 100 100 100 100 100 80 100 100 100 77 47 30 81 96 76 33 40 83 100 92 63
0 5 5 5 4 5 30 100 100 100 100 100 100 100 100 98 100 95 76 66 100 100 100 100 100 100 100 100 61 95 98 100 100 100 100 100 96 100 98 29 14 20 88 100 100 100 100 100 99 100 100 100 100 100
5 2 0 0 5 5 66 100 100 100 100 100 100 100 100 92 100 100 95 100 100 100 100 100 100 88 96 100 61 55 100 100 100 100 100 86 52 93 97 67 58 83 90 100 100 100 100 100 100 100 100 100 100 100
3 0 0 2 5 5 93 100 100 100 100 100 100 100 100 97 100 100 100 100 100 100 100 100 93 78 86 30 51 36 100 100 100 100 98 57 46 33 42 30 56 84 100 100 100 100 100 100 100 100 100 95 61 63
2 0 0 5 5 5 75 100 100 100 100 100 100 99 100 100 100 100 100 100 100 100 100 100 100 95 29 82 59 69 100 100 100 100 100 91 93 100 100 100 100 100 100 100 100 100 100 100 100 100 100 99 80 84
0 0 0 5 5 43 100 100 100 100 100 100 100 97 100 100 100 100 100 100 100 100 100 100 100 100 37 41 18 81 80 86 100 100 100 100 97 100 100 100 100 100 100 100 100 100 100 100 100 100 100 100 100 100
1 1 2 4 36 100 100 100 100 100 100 100 100 100 100 100 100 100 100 100 100 100 100 100 100 100 99 40 38 89 95 100 100 100 100 100 100 100 100 100 100 100 100 100 100 100 100 100 100 100 100 99 76 47
0 0 2 4 43 99 62 43 84 100 100 100 100 100 100 100 100 100 100 100 100 100 100 100 100 100 100 100 99 69 96 100 100 100 85 90 100 100 100 100 100 100 100 100 100 100 100 100 100 96 71 92 81 78
0 0 2 4 13 94 83 73 82 100 100 100 100 100 100 100 100 100 100 100 100 100 100 100 100 100 100 100 100 100 100 100 100 100 100 100 96 100 100 100 100 100 100 100 100 85 94 93 79 96 100 92 92 97
0 3 4 5 5 5 30 68 67 81 100 100 100 100 100 100 100 100 100 100 100 100 100 100 100 100 100 100 100 100 100 100 100 98 84 62 59 68 98 95 100 100 100 44 27 75 85 100 100 93 64 8 5 5
4 3 5 5 2 4 5 7 62 86 100 100 100 100 100 100 100 100 100 100 100 100 100 100 100 100 100 100 100 100 100 100 100 100 100 100 97 72 91 99 100 68 53 72 98 90 100 98 85 56 25 34 16 6
1 4 4 9 13 5 7 5 8 90 73 100 100 100 100 100 100 100 100 100 100 100 100 100 100 100 100 100 100 100 100 100 100 100 100 100 100 100 100 100 95 82 100 100 100 100 100 99 81 68 41 8 5 6
0 1 2 3 5 4 48 20 10 78 100 100 100 100 100 100 100 100 100 100 100 100 100 100 100 100 100 100 100 100 100 100 100 100 100 100 100 100 100 100 100 100 100 100 100 100 100 99 90 79 61 17 7 5
0 3 3 47 44 15 43 96 57 65 98 100 100 100 100 100 100 100 100 100 100 100 100 100 100 100 100 100 100 100 100 100 100 100 100 100 100 100 100 100 100 100 100 99 91 100 100 100 100 91 55 5 5 10
0 2 24 5 16 7 18 5 5 49 77 100 100 100 100 100 100 100 100 100 100 100 100 100 100 100 100 100 100 100 100 100 100 100 100 100 100 100 100 100 100 100 94 97 100 97 90 80 74 66 42 23 7 5
1 5 4 11 48 62 24 57 71 98 75 73 100 100 100 100 100 100 100 100 100 100 100 100 100 100 100 100 100 100 100 100 100 100 100 100 100 100 100 100 100 100 100 100 100 100 96 82 81 85 62 14 5 5
36 32 8 68 79 83 95 54 92 94 78 87 86 100 100 100 100 100 100 100 100 100 100 100 100 100 100 100 100 100 100 100 100 100 100 100 100 100 100 100 100 100 100 100 100 100 97 80 61 69 87 97 56 5
84 70 69 86 6 6 62 83 96 93 32 49 35 98 96 100 100 100 100 100 100 100 100 100 100 100 100 100 100 100 100 100 100 100 100 100 100 100 100 100 100 100 100 100 100 100 100 100 100 94 41 8 5 5
93 81 52 61 93 98 86 86 93 78 45 64 66 53 100 97 100 100 100 100 100 100 100 100 100 100 100 100 100 100 100 100 100 100 100 100 100 100 100 100 100 100 100 100 88 74 48 36 7 5 5 5 5 15
93 90 39 96 99 96 93 90 94 91 92 56 89 86 84 100 100 100 100 100 100 100 100 100 100 100 100 100 100 100 100 100 100 100 100 100 100 100 100 100 100 100 100 92 88 84 61 17 16 5 9 6 5 5
100 99 91 79 94 95 97 37 81 55 37 66 65 97 99 82 100 100 100 100 100 100 100 100 100 100 100 100 100 100 100 100 100 100 100 100 100 100 100 100 100 100 100 97 96 62 26 9 14 15 5 5 5 5

GFSWCAN_prec_cloud_024.txt.gz
Cloud_Cover
14 90 51 100 72 100 100 96 5 5 52 99 100 100 100 100 100 100 100 100 100 100 100 100 100 100 100 100 100 100 100 100 100 100 100 100 100 84 81 100 58 90 94 40 55 38 61 50 5 5 12 11 5 3
47 96 94 100 80 88 7 86 5 5 7 100 100 100 100 100 100 100 100 100 100 100 100 100 100 100 100 100 100 100 100 100 100 100 100 99 99 92 31 84 92 90 94 28 55 52 5 5 31 5 5 18 50 5
88 92 84 70 100 31 5 20 5 5 29 100 100 100 100 100 100 100 100 100 100 100 100 100 100 100 100 100 100 100 100 100 100 100 100 100 100 100 100 100 100 71 35 64 53 10 26 89 78 97 88 100 84 84
24 82 88 92 98 100 6 12 5 5 79 100 100 87 100 100 100 100 100 100 100 100 100 100 100 100 100 100 100 100 100 100 100 100 100 100 100 100 100 100 98 97 61 52 51 56 44 25 65 98 100 100 100 100
52 88 100 92 37 81 8 5 5 5 98 100 61 100 100 98 100 100 100 100 99 100 100 100 100 100 100 100 100 100 100 100 100 100 100 100 100 100 100 100 93 100 100 100 100 100 100 100 100 100 100 100 100 100
52 94 15 48 88 19 5 5 5 5 100 100 91 77 100 100 100 100 100 100 99 100 100 100 100 100 100 100 100 100 100 100 100 100 100 100 100 100 100 100 77 95 75 100 100 100 100 100 100 100 100 100 100 100
5 5 5 11 28 12 5 5 5 5 100 100 99 96 100 100 100 100 100 100 100 100 100 100 100 100 100 100 100 100 100 100 100 100 100 100 100 100 100 100 100 100 100 100 100 100 100 100 100 100 100 100 100 100
5 5 5 5 5 5 5 5 5 5 5 77 100 100 100 100 100 100 100 100 100 100 100 100 100 100 100 100 100 100 100 100 100 100 100 100 100 100 100 100 100 100 100 100 100 99 100 100 94 100 98 96 100 100
2 5 5 5 5 5 5 5 5 5 12 66 100 100 100 100 100 100 100 100 100 100 100 100 100 100 100 100 100 100 100 100 100 100 100 100 100 100 100 100 100 100 100 100 100 100 100 95 100 98 75 85 65 69
3 5 5 5 5 5 5 5 5 91 62 100 100 100 100 100 100 100 100 100 100 100 100 100 100 100 100 100 100 100 100 100 100 100 100 100 100 100 100 92 100 100 100 100 100 100 75 95 63 14 31 27 5 5
1 2 5 5 5 5 5 5 95 30 100 100 100 100 100 100 100 100 100 100 100 100 100 100 100 100 100 100 100 100 100 100 100 100 100 100 100 100 92 82 100 100 100 100 74 81 22 26 5 5 5 5 10 84
0 2 5 5 5 5 5 5 97 95 100 100 100 100 100 100 100 100 100 100 100 100 100 100 100 100 100 100 100 100 100 100 100 100 100 100 100 100 100 100 69 72 97 73 73 60 5 6 5 5 24 16 79 100
0 0 3 5 4 4 5 87 98 92 100 100 100 100 100 100 100 100 100 100 100 100 100 100 100 100 100 100 100 100 96 100 100 100 100 100 17 78 100 100 100 69 43 98 100 100 99 99 81 69 58 100 100 100
0 0 0 4 1 5 5 55 100 98 100 100 100 100 100 100 100 100 100 100 100 100 100 100 100 100 100 100 100 97 100 98 100 100 100 23 99 100 100 99 84 100 84 56 60 79 94 100 100 91 100 100 100 100
1 0 0 0 1 5 5 83 100 100 100 100 100 100 100 100 86 100 100 100 100 100 100 100 99 96 100 100 98 51 100 100 100 100 46 45 64 100 90 99 100 97 70 43 56 87 100 83 80 92 100 89 99 100
3 0 0 0 5 5 5 100 100 100 100 100 100 100 100 100 100 100 100 100 100 100 100 100 100 92 100 96 53 91 100 100 100 100 92 58 92 100 70 67 100 100 98 59 95 88 100 100 98 86 98 100 100 100
5 0 0 0 5 5 48 100 100 100 100 100 100 100 99 98 100 100 100 100 100 100 100 100 100 100 80 78 63 100 100 100 100 100 87 23 80 81 100 94 98 98 80 98 100 100 100 98 100 100 99 100 100 100
5 5 3 4 5 11 100 100 100 98 94 100 100 100 100 99 100 100 100 100 100 100 100 100 100 100 100 64 81 55 95 90 100 100 100 100 90 89 100 100 100 100 100 100 100 100 100 100 100 100 100 100 100 100
8 5 4 4 20 96 99 100 98 91 53 100 100 100 100 100 100 100 100 100 100 100 100 100 100 100 100 100 93 73 88 71 100 100 100 100 100 88 100 100 100 100 100 100 100 100 100 100 100 100 100 100 100 100
5 5 5 1 13 97 83 35 67 88 63 91 100 100 100 100 100 100 100 100 100 100 100 100 100 100 100 100 100 99 51 37 100 100 100 100 100 100 89 100 100 100 100 100 100 100 100 100 100 100 100 100 100 100
5 5 3 3 10 94 91 100 66 91 88 82 100 100 100 100 100 100 100 100 100 100 100 100 100 100 100 100 100 100 100 100 100 100 100 100 100 100 100 97 100 100 100 99 100 100 100 100 97 97 100 99 85 64
6 5 5 4 5 8 48 68 96 56 90 58 69 100 100 100 100 100 100 100 100 100 100 100 100 100 100 100 100 100 100 100 100 100 100 100 100 100 99 100 100 100 98 100 100 99 100 94 89 90 92 90 86 96
5 4 5 5 0 0 0 20 38 62 76 91 100 100 100 100 100 100 100 100 100 100 100 100 100 100 100 100 100 100 100 100 100 100 100 100 100 100 100 100 100 100 100 96 100 100 98 97 100 99 100 100 100 100
5 5 2 7 12 1 2 5 8 69 24 53 100 100 100 100 100 100 100 100 100 100 100 100 100 100 100 100 100 100 100 100 100 100 100 100 100 100 100 100 100 100 98 100 100 100 100 100 99 100 100 100 100 100
3 5 2 0 5 4 62 22 41 20 82 55 85 100 100 100 100 100 100 100 100 100 100 100 100 100 100 100 100 100 100 100 100 100 100 100 100 100 100 100 100 100 100 100 96 95 100 100 100 100 100 100 100 98
5 2 1 3 23 4 12 41 65 72 82 84 89 92 100 100 100 100 100 100 100 100 100 100 100 100 100 100 100 100 100 100 100 100 100 100 100 100 100 100 100 100 97 100 100 100 96 98 100 100 99 97 81 60
4 1 24 6 5 17 20 29 5 54 94 92 76 51 99 100 100 100 100 100 100 100 100 100 100 100 100 100 100 100 100 100 100 100 100 100 100 100 100 100 100 100 100 100 100 96 100 100 100 100 82 51 39 25
5 5 6 44 53 72 5 65 84 92 87 19 42 80 86 99 94 100 100 100 100 100 100 100 100 100 100 100 100 100 100 100 100 100 100 100 100 100 100 100 100 100 100 100 100 100 100 100 100 88 67 92 81 29
70 37 7 78 95 86 74 8 40 83 57 85 86 59 94 74 100 100 96 100 100 100 100 100 100 100 100 100 100 100 100 100 100 100 100 100 100 100 100 100 100 100 100 100 100 100 100 100 100 97 66 99 98 96
75 78 71 97 8 27 32 72 90 85 37 47 45 67 74 97 87 100 100 100 100 100 100 100 100 100 100 100 100 100 100 100 100 100 100 100 100 100 100 100 100 100 100 100 100 100 100 100 100 94 77 54 42 19
95 96 61 56 32 87 99 100 99 92 58 60 66 64 59 49 91 98 100 100 100 100 100 100 100 100 100 100 100 100 100 100 100 100 100 100 100 100 100 100 100 100 100 100 100 100 100 100 98 100 100 86 86 44
100 89 47 65 90 100 95 99 98 95 97 43 95 72 44 83 90 100 100 100 100 100 100 100 100 100 100 100 100 100 100 100 100 100 100 100 100 100 100 100 100 100 100 100 100 100 100 100 100 94 95 23 5 5
100 98 87 93 100 100 95 80 94 59 54 82 57 98 95 71 90 100 100 100 100 100 100 100 100 100 100 100 100 100 100 100 100 100 100 100 100 100 100 100 100 100 99 100 100 99 92 73 36 36 24 5 5 5

GFSWCAN_prec_cloud_027.txt.gz
Cloud_Cover
100 100 100 100 86 98 83 71 5 10 6 63 86 100 66 92 100 100 100 100 100 100 100 100 100 100 100 100 100 100 100 100 100 100 100 100 100 88 92 93 99 86 95 100 86 35 7 13 6 40 24 5 98 95
100 100 84 79 93 49 47 78 5 5 5 5 12 100 81 100 100 100 100 100 100 100 100 100 100 100 100 100 100 100 100 100 100 98 100 100 89 31 93 88 100 92 88 94 85 80 95 93 96 86 94 44 5 5
100 94 76 100 92 31 5 5 4 5 5 8 5 100 100 99 100 100 100 100 100 100 100 100 100 100 100 100 100 100 100 100 100 100 100 96 100 100 43 85 100 100 100 100 100 100 100 100 100 36 5 5 74 67
100 59 7 73 54 6 33 91 5 5 5 14 36 100 100 100 100 100 100 100 100 100 100 100 100 100 100 100 100 100 100 100 100 100 100 100 100 100 100 100 100 100 75 90 91 99 71 43 68 73 27 57 79 69
79 5 5 5 5 6 5 56 5 5 5 100 94 100 100 96 100 100 100 100 100 100 100 100 100 100 100 100 100 100 100 100 100 100 100 100 99 100 100 100 100 100 95 73 100 50 83 100 100 100 100 100 100 100
17 5 5 5 5 2 4 5 5 5 5 20 100 47 100 100 100 100 100 100 100 100 100 100 100 100 100 100 100 100 100 100 100 100 100 100 100 100 100 100 100 100 98 100 100 100 100 100 100 100 100 100 100 100
5 5 5 5 5 5 5 5 5 5 5 12 100 68 80 94 100 100 100 100 100 100 100 100 100 100 100 100 100 100 100 100 100 100 100 100 100 100 100 100 100 100 91 100 100 100 92 86 98 100 97 95 100 100
5 5 5 5 5 5 5 5 5 14 5 31 100 100 100 97 100 100 100 100 100 99 100 100 100 100 100 100 100 100 100 100 100 100 100 100 100 100 88 100 99 100 100 100 100 100 100 88 100 100 100 100 100 99
5 4 5 5 5 5 5 5 5 30 86 23 100 98 96 100 100 100 100 100 100 100 100 100 100 100 100 100 100 100 100 100 100 100 98 100 100 100 100 99 91 100 100 100 100 100 100 100 100 100 100 100 100 100
3 3 4 5 5 5 5 5 32 100 66 100 100 100 100 100 100 100 100 100 100 100 100 100 100 100 77 100 100 98 100 100 100 100 100 100 100 64 66 77 94 100 100 100 100 100 99 100 100 100 100 100 100 100
0 0 4 5 5 5 5 5 94 98 94 100 100 100 100 100 100 100 100 100 100 100 100 100 100 100 100 100 100 100 100 100 100 100 100 100 100 99 100 100 100 100 100 100 99 93 93 86 99 100 88 76 25 47
1 0 0 4 5 5 5 5 36 100 99 100 100 100 100 100 100 100 100 100 100 100 100 100 100 100 100 100 100 100 94 100 100 100 100 100 82 100 100 100 100 100 100 100 100 100 100 100 100 47 34 25 69 100
0 0 2 1 4 1 5 5 10 100 100 100 100 100 100 100 100 100 100 100 100 100 100 100 100 100 100 100 100 94 98 100 99 100 100 36 71 100 100 100 100 96 100 100 100 100 100 100 100 73 98 72 100 100
3 0 0 0 0 5 5 5 20 100 94 100 100 100 100 100 100 100 100 100 100 100 100 100 100 100 100 100 100 100 93 100 100 97 100 100 100 100 100 100 100 100 100 100 100 100 100 100 92 100 100 100 100 100
2 0 1 4 3 5 5 5 94 100 100 100 100 100 100 100 100 99 100 100 100 100 100 100 100 100 100 100 100 65 98 100 100 93 8 5 5 30 56 100 100 100 100 100 100 100 100 100 100 100 100 100 100 96
3 0 4 5 1 5 5 32 100 100 100 97 100 100 99 100 100 100 100 100 100 100 100 100 100 100 100 100 100 62 76 100 100 83 94 99 84 90 79 85 100 100 100 100 100 100 100 100 100 100 100 100 100 100
2 0 5 5 5 4 17 100 100 100 100 100 96 100 100 100 97 100 100 100 100 100 100 100 100 100 62 60 58 100 100 100 100 57 70 32 5 20 97 100 100 100 100 92 84 92 100 100 100 99 98 98 100 100
5 0 5 7 5 5 36 100 100 100 100 75 99 100 92 100 100 100 100 100 100 100 100 100 100 100 66 28 47 58 91 70 86 100 99 70 27 15 61 75 100 100 100 100 100 100 100 100 100 100 100 100 100 100
5 8 4 5 5 6 87 74 100 100 78 100 100 98 100 100 100 100 100 100 100 100 100 100 100 100 100 100 100 81 64 58 37 100 100 100 100 80 74 96 100 100 100 100 100 100 100 100 100 100 100 100 100 100
0 0 5 5 5 10 81 34 63 94 94 33 87 82 51 100 100 100 100 100 100 100 100 100 100 100 100 100 100 96 73 43 13 78 100 100 100 100 100 100 100 100 100 100 100 98 100 100 100 100 100 100 100 100
1 2 1 3 15 95 82 100 69 92 100 100 74 88 61 82 100 100 100 100 100 100 100 100 100 100 100 100 100 100 99 74 57 61 92 100 100 100 100 100 100 100 100 100 100 100 100 100 100 100 100 100 100 100
4 3 5 5 5 5 48 92 99 64 100 80 62 75 90 61 100 100 100 100 100 100 100 100 100 100 100 100 100 100 100 100 100 98 88 100 100 100 100 100 100 100 100 100 100 100 100 100 100 100 100 100 99 95
3 4 5 5 5 2 2 30 29 81 81 67 38 36 98 86 99 100 100 100 100 100 100 100 100 100 100 100 100 100 99 100 100 100 100 100 100 100 100 100 100 100 100 100 100 100 100 100 100 100 100 100 92 100
5 5 5 9 9 2 2 5 8 78 29 18 96 56 65 79 100 100 100 100 100 100 100 100 100 100 100 100 100 100 100 100 100 100 100 100 100 100 100 100 100 100 100 100 100 100 100 100 100 100 100 83 100 100
5 18 5 5 22 5 18 20 62 19 96 69 100 45 86 93 96 100 100 100 100 100 100 100 100 100 100 100 100 100 100 100 100 100 100 100 100 100 100 100 100 100 100 100 100 100 100 100 100 100 100 100 100 97
8 5 5 5 5 4 4 5 58 46 84 99 52 59 94 98 80 81 99 100 100 100 100 100 100 100 100 100 100 100 100 100 100 100 100 100 100 100 100 100 100 100 100 100 100 100 100 100 100 99 98 100 100 92
44 5 23 4 5 17 21 35 7 56 99 100 80 85 70 95 96 100 97 100 100 100 100 100 100 100 100 100 100 100 100 100 100 100 100 100 100 100 100 100 100 100 100 100 100 100 100 100 91 100 100 100 100 94
5 5 15 68 67 66 5 69 76 40 54 43 42 85 69 100 100 100 90 97 100 100 100 100 100 100 100 100 100 100 100 100 100 100 100 100 100 100 100 100 100 100 100 100 100 100 99 96 100 100 100 100 100 100
74 32 6 96 95 96 69 5 5 46 31 53 54 57 24 9 41 74 90 67 98 100 100 100 100 100 100 100 100 100 100 100 100 100 100 100 100 100 100 100 100 100 100 100 100 100 100 100 100 100 100 100 100 100
61 50 61 90 15 6 31 61 81 78 41 25 21 36 42 48 16 56 86 71 76 99 100 100 100 100 100 100 100 100 100 100 100 100 100 100 100 100 100 100 100 100 100 100 100 100 100 100 100 100 100 100 100 100
89 93 67 55 12 78 98 100 100 96 80 73 85 79 30 40 17 67 85 82 87 76 97 100 100 100 100 100 100 100 100 100 100 100 100 100 100 100 100 100 100 100 100 100 100 100 100 100 100 100 100 100 100 100
100 90 56 64 96 96 96 99 98 96 95 88 38 90 43 67 60 41 53 93 99 100 100 100 100 100 100 100 100 100 100 100 100 100 100 100 100 100 100 100 100 100 100 100 100 100 100 100 100 100 100 100 100 100
98 99 88 98 100 100 94 80 95 62 70 99 54 96 90 70 31 10 66 100 100 100 100 100 100 100 100 100 100 100 100 100 100 100 100 100 100 100 100 100 100 100 100 100 100 100 100 100 100 100 100 100 88 34

GFSWCAN_prec_cloud_030.txt.gz
Cloud_Cover
100 100 100 100 100 100 51 5 11 3 5 7 92 24 100 100 100 100 100 100 100 100 100 100 100 100 100 100 100 100 100 100 100 99 100 100 99 100 90 86 95 100 93 100 100 100 100 100 100 97 96 100 100 100
79 45 100 46 10 43 5 5 65 5 4 5 53 100 100 100 100 100 100 100 100 100 100 100 100 100 100 100 100 100 100 100 91 100 100 100 85 98 100 80 86 90 74 86 84 96 98 100 100 100 100 100 100 85
54 6 6 5 3 5 5 8 99 4 5 5 18 10 100 100 100 100 100 100 100 100 100 100 100 100 100 100 100 100 100 100 100 99 82 100 80 98 100 100 100 99 97 100 100 99 100 100 100 100 90 100 99 99
50 5 5 5 5 5 2 3 5 5 5 8 12 10 36 100 100 100 100 100 100 100 100 100 100 100 100 100 100 100 100 100 100 100 72 49 59 100 100 95 77 94 100 100 100 90 100 100 100 82 100 98 100 100
32 5 5 5 5 5 5 5 5 5 5 5 5 9 34 97 100 100 100 100 100 100 100 100 100 100 100 100 100 100 100 100 100 100 100 100 100 98 100 100 100 100 100 100 100 100 100 100 100 96 100 100 100 100
25 4 5 5 5 5 5 5 5 5 5 5 62 13 95 100 80 84 100 100 100 100 100 100 100 100 100 100 100 100 100 100 100 100 100 100 100 100 99 96 100 100 100 100 100 100 100 100 100 96 91 100 100 100
37 3 5 5 5 5 5 5 5 6 5 41 100 60 95 100 100 100 100 100 100 100 100 100 100 100 100 100 100 100 100 100 100 100 100 100 100 100 100 100 100 100 77 100 100 100 100 100 100 100 100 100 100 100
71 5 5 5 5 5 5 5 5 19 100 100 100 100 100 100 100 100 100 100 100 100 99 100 100 100 100 100 100 100 100 100 100 100 100 100 100 100 98 100 100 99 99 100 96 84 94 98 100 100 100 100 100 100
41 20 5 5 5 5 5 5 5 56 72 12 93 100 100 100 100 100 100 100 100 100 100 100 82 100 100 100 100 100 100 100 100 100 100 100 100 100 91 100 100 99 98 99 100 100 100 100 100 100 100 100 100 100
11 6 1 5 5 5 5 5 5 24 5 89 100 100 100 100 100 100 100 100 100 100 100 100 82 65 100 100 100 100 100 100 100 100 100 100 98 100 100 100 100 100 100 100 100 100 100 100 100 100 100 100 100 100
5 3 1 5 5 5 5 5 5 5 5 99 100 100 100 100 100 100 100 100 100 100 100 100 100 100 100 100 100 100 99 100 100 100 100 100 100 100 100 100 100 100 100 100 100 100 100 100 100 100 100 100 100 100
3 4 0 5 5 4 5 5 5 30 100 70 99 100 100 100 100 100 100 100 100 100 100 100 100 100 100 100 100 100 90 100 100 100 100 99 99 100 100 100 100 100 100 100 100 100 100 100 100 100 100 100 100 100
5 5 3 5 4 1 4 5 5 84 50 95 99 100 100 100 100 100 100 100 100 100 100 100 100 100 100 76 67 84 100 88 93 92 78 8 90 100 100 100 100 100 100 100 100 100 100 100 100 100 100 100 100 100
64 2 0 0 0 1 5 5 6 100 97 98 93 100 100 97 100 100 100 100 100 100 100 100 100 100 100 93 98 100 91 100 84 99 73 17 46 71 76 93 22 43 96 100 100 100 100 99 90 94 98 100 100 100
4 0 0 0 0 3 5 5 64 100 100 100 97 91 88 100 100 100 100 100 100 100 100 100 100 99 100 100 100 97 100 100 100 80 45 85 100 100 100 99 99 93 58 72 82 98 100 100 100 100 100 100 100 100
5 0 0 0 0 5 5 20 100 100 100 100 97 64 82 98 99 100 93 100 100 100 100 100 100 98 100 100 100 100 100 100 100 32 30 60 90 100 100 100 100 100 100 100 100 100 100 100 100 100 100 100 100 100
80 20 0 2 3 3 5 100 100 100 100 100 96 97 97 96 99 100 100 96 100 100 100 100 99 97 56 80 100 100 100 100 100 10 73 60 83 100 100 100 100 100 100 100 100 100 100 100 100 100 100 100 100 100
89 5 5 4 4 4 5 100 99 100 100 99 99 51 77 100 100 98 100 100 100 100 100 100 100 87 5 67 98 97 93 57 89 73 63 76 77 100 100 100 100 100 84 62 76 100 100 99 98 96 98 100 100 100
10 23 8 2 4 9 14 43 87 100 95 100 100 99 100 100 99 100 100 100 100 100 100 100 100 96 58 53 100 96 85 77 15 61 18 18 83 93 89 99 76 97 94 73 96 100 100 100 100 100 100 100 100 100
39 86 24 2 4 8 70 35 76 97 91 59 100 100 100 94 44 100 100 100 100 100 100 100 100 100 100 100 100 75 52 26 73 84 73 96 69 56 28 71 73 67 81 97 100 100 100 100 100 100 100 100 100 100
46 65 5 3 11 92 70 96 85 92 100 100 100 99 79 70 100 100 100 100 100 100 100 100 100 100 100 100 100 100 100 50 89 100 100 99 79 52 91 92 100 100 69 76 100 100 100 100 100 100 100 100 100 100
100 99 59 4 5 16 59 92 84 71 98 85 83 95 100 100 92 88 91 99 100 100 100 100 100 100 100 100 100 100 100 100 94 97 100 87 100 100 100 100 100 100 100 100 100 100 100 100 100 100 100 100 100 100
98 53 5 5 0 0 2 29 57 84 78 91 45 38 59 81 51 68 96 77 98 100 100 100 100 100 100 100 100 100 100 100 100 100 100 100 100 100 100 100 100 100 100 100 100 100 100 100 100 100 100 100 100 100
71 22 8 6 4 1 2 5 13 69 53 30 100 64 18 75 53 69 79 88 85 100 100 100 100 100 100 100 100 100 100 100 100 100 100 100 100 100 100 100 100 100 100 100 100 100 100 100 100 100 100 100 100 100
9 5 2 0 30 1 3 6 82 11 78 73 100 55 32 86 83 78 69 73 100 100 100 100 100 100 100 100 100 100 100 100 100 100 100 100 100 100 100 100 100 100 100 100 100 100 100 100 100 100 100 100 100 100
15 5 4 0 1 1 5 5 61 18 85 94 68 44 75 92 99 44 66 100 100 91 100 100 100 100 100 100 100 100 100 100 100 100 100 100 100 100 100 100 100 100 100 100 100 100 100 100 100 100 100 100 100 100
10 5 17 1 5 16 17 43 11 40 100 96 74 82 68 63 60 76 99 100 97 100 80 100 100 100 100 100 100 100 100 100 100 100 100 100 100 100 100 100 100 100 100 100 100 100 100 100 100 100 100 100 100 100
40 5 6 66 57 53 19 43 44 62 6 18 63 72 51 12 6 7 8 30 98 99 83 100 100 100 100 100 100 100 100 100 100 100 100 100 100 100 100 100 100 100 100 100 100 100 100 100 100 100 100 100 100 100
64 31 5 97 98 100 62 6 5 23 18 6 5 50 30 5 18 11 5 12 52 96 98 72 100 100 100 100 100 100 100 100 100 100 100 100 100 100 100 100 100 100 100 100 100 100 100 100 100 100 100 100 100 100
54 43 69 100 98 44 49 30 64 85 37 17 14 25 25 9 18 44 76 72 81 90 95 95 100 100 100 100 100 100 100 100 100 100 100 100 100 100 100 100 100 100 100 100 100 100 100 100 100 100 100 100 100 100
85 83 91 100 79 74 95 100 100 91 79 90 91 75 30 43 5 51 90 80 94 88 89 100 99 100 100 100 100 100 100 100 100 100 100 100 100 100 100 100 100 100 100 100 100 100 100 100 100 100 100 100 100 100
100 90 100 98 73 95 99 98 98 89 98 94 39 95 54 38 62 40 9 95 68 65 100 100 100 100 100 100 100 100 100 100 100 100 100 100 100 100 100 100 100 100 100 100 100 100 100 100 100 100 100 100 100 100
99 99 90 99 99 100 96 72 96 77 84 100 82 84 80 60 17 5 8 77 75 83 100 100 100 100 100 100 100 100 100 100 100 100 100 100 100 100 100 100 100 100 100 100 100 100 100 100 100 100 100 100 100 100

GFSWCAN_prec_cloud_033.txt.gz
Cloud_Cover
62 22 100 100 9 5 5 5 5 20 4 5 5 76 6 84 100 90 100 100 100 68 88 100 100 100 100 100 100 100 100 100 100 100 100 100 100 99 94 97 100 100 100 100 100 100 97 100 100 100 93 100 100 100
97 72 98 89 25 5 5 5 2 2 5 5 5 5 6 100 100 100 100 100 100 100 100 100 100 100 100 100 100 100 100 100 100 100 100 100 100 87 94 67 90 96 91 99 94 78 100 100 98 83 100 100 100 100
30 32 35 52 5 5 5 5 5 5 5 5 5 5 5 100 100 100 100 100 100 100 100 100 100 100 100 100 100 100 100 100 100 100 100 100 100 86 77 66 93 53 98 62 62 90 100 100 84 46 10 34 97 100
99 73 53 5 5 5 5 5 5 5 5 5 5 14 61 90 92 28 100 100 100 100 100 100 100 100 100 100 100 100 100 100 100 100 85 100 100 80 90 99 100 100 100 100 100 98 100 100 99 96 100 100 97 98
70 41 30 5 5 5 5 5 5 5 5 42 5 70 20 31 100 100 100 86 100 100 100 100 100 100 100 100 100 100 100 100 100 100 100 81 23 23 76 95 100 100 100 100 84 55 93 69 98 100 96 100 93 100
65 38 84 5 5 5 5 5 5 5 5 64 99 100 99 69 100 100 100 100 100 100 100 100 100 100 100 100 100 100 100 100 100 100 100 89 99 82 73 45 100 100 100 100 100 100 100 100 100 100 100 100 100 100
9 30 84 5 5 5 5 5 5 5 24 100 100 100 100 100 90 99 100 100 100 100 100 100 100 100 100 100 100 100 100 100 100 100 100 100 100 100 100 99 100 100 100 100 94 100 100 100 100 100 100 100 100 100
42 6 94 5 5 5 5 5 5 5 38 100 100 99 100 100 99 84 100 100 100 100 100 100 100 100 100 100 100 100 100 100 100 100 100 100 100 100 91 91 100 100 100 100 100 100 100 100 100 100 100 100 100 100
100 76 89 21 5 5 5 5 5 5 7 99 100 100 84 65 99 100 100 100 100 100 100 100 100 100 100 100 100 100 100 100 100 100 100 100 100 83 71 100 100 100 100 100 100 100 100 100 100 100 100 100 100 100
95 33 35 5 5 5 5 5 5 5 5 59 90 91 100 100 100 100 100 100 100 100 100 100 57 100 98 100 100 100 100 100 100 100 100 100 100 100 100 100 100 100 100 100 100 100 100 100 100 100 100 100 100 100
5 32 5 5 5 3 4 5 5 5 5 21 91 100 100 100 100 100 100 100 100 100 100 100 100 22 79 80 97 100 100 100 100 100 100 100 100 100 100 100 100 100 100 100 100 100 100 99 100 100 100 100 100 100
5 4 5 34 4 3 4 5 5 6 80 53 95 95 100 100 100 100 100 100 100 100 100 100 99 76 50 72 71 98 100 100 100 100 100 100 100 100 100 100 100 100 100 100 99 98 100 100 100 100 100 100 100 96
5 4 5 5 5 1 5 5 5 51 70 85 96 100 99 100 100 100 100 100 100 100 100 100 100 100 38 89 96 99 99 90 100 100 91 100 100 100 100 100 100 100 100 100 100 100 100 100 100 100 100 100 100 100
5 1 5 20 4 1 5 5 8 97 93 76 91 34 19 74 100 100 100 100 100 100 100 100 100 100 100 100 70 100 98 100 99 100 58 94 98 100 100 97 79 92 100 86 100 100 100 100 100 100 100 100 100 100
5 4 4 2 10 6 4 5 97 100 100 99 95 34 91 100 100 100 100 100 100 100 100 100 100 100 100 94 97 97 97 100 100 99 100 100 31 68 97 100 100 100 97 99 100 100 100 100 100 100 100 100 100 100
8 2 3 5 100 68 5 15 100 100 100 100 100 77 81 90 90 94 100 100 100 100 100 100 100 100 100 96 87 100 100 100 100 70 70 99 88 100 100 100 100 100 100 100 100 100 100 100 100 100 100 100 100 100
16 39 5 92 27 6 5 91 100 100 100 100 100 84 99 94 80 91 100 98 100 100 100 100 100 100 71 88 100 100 100 100 36 6 64 100 100 100 100 100 100 100 100 100 100 100 100 100 100 100 100 100 100 100
96 5 23 18 60 5 5 99 100 100 100 99 99 79 100 71 51 95 100 100 100 100 100 100 100 100 100 29 100 100 70 95 74 92 99 81 87 99 100 100 100 100 100 100 100 100 100 100 100 100 100 100 100 100
52 90 58 73 18 50 5 19 74 99 78 100 100 100 100 99 95 99 100 100 100 100 100 100 100 96 92 100 100 100 95 94 60 57 61 100 100 96 52 100 100 100 100 100 100 100 100 98 100 100 100 100 100 96
95 100 73 26 99 100 53 56 94 92 87 85 93 100 100 100 51 75 100 100 100 100 100 100 93 100 97 100 100 100 100 71 85 67 82 73 100 100 87 43 88 85 98 100 100 100 100 99 97 95 100 100 100 100
98 100 100 76 20 100 65 95 86 96 94 100 100 100 86 96 71 42 99 98 100 100 100 100 92 100 100 100 100 100 100 100 100 100 90 92 100 100 100 100 100 100 100 100 100 99 100 100 100 100 99 100 100 100
100 98 100 10 99 100 86 96 81 87 70 76 96 97 100 100 100 78 94 94 98 91 89 96 100 100 100 100 100 100 100 100 100 100 100 100 100 100 100 100 100 95 100 100 87 99 100 100 100 100 100 100 100 100
100 100 100 33 75 100 100 92 83 92 94 88 69 45 48 98 82 55 86 85 80 77 73 100 100 100 100 100 100 100 100 100 100 100 100 100 100 100 100 100 100 99 94 100 100 100 100 100 100 100 100 100 100 100
100 100 98 57 59 99 100 78 14 80 66 83 100 79 5 87 67 87 85 78 50 62 67 21 60 90 100 100 100 100 100 100 100 100 100 100 100 100 100 100 100 100 100 100 100 100 100 100 100 100 100 100 100 100
100 100 91 62 100 100 100 15 54 8 6 92 99 100 28 86 98 100 84 18 89 91 71 44 10 69 100 100 100 100 100 100 100 100 100 100 100 100 100 100 100 100 100 100 100 100 100 100 100 100 100 100 100 100
100 100 100 100 100 100 39 5 54 60 66 100 87 56 66 84 95 73 33 51 54 60 62 76 97 99 64 97 100 100 100 100 100 100 100 100 100 100 100 100 100 100 100 100 100 100 100 100 100 100 100 100 100 100
100 100 100 100 100 45 12 40 12 20 100 100 85 65 55 73 83 6 50 64 51 50 58 62 81 100 99 97 100 100 100 100 100 100 100 100 100 100 100 100 100 100 100 100 100 100 100 100 100 100 100 100 100 100
100 100 100 100 69 42 12 50 56 58 5 15 42 18 44 16 6 6 6 10 57 57 50 5 11 68 100 94 99 100 100 100 100 100 100 100 100 100 100 100 100 100 100 100 100 100 100 100 100 100 100 100 100 100
100 100 100 96 95 100 17 5 5 5 6 25 5 11 30 5 6 5 5 8 46 94 92 44 11 51 93 100 95 100 100 100 100 100 100 100 100 100 100 100 100 100 100 100 100 100 100 100 100 100 100 100 100 100
100 89 54 80 6 28 5 30 41 78 38 14 13 30 25 8 17 27 49 61 65 95 84 99 96 100 97 100 100 100 100 100 100 100 100 100 100 100 100 100 100 100 100 100 100 100 100 100 100 100 100 100 100 100
94 18 32 34 11 50 85 98 99 83 72 90 81 68 29 37 5 42 81 57 86 97 100 87 40 60 81 100 98 100 100 100 100 100 100 100 100 100 100 100 100 100 100 100 100 100 100 100 100 100 100 100 100 100
100 94 75 79 61 92 92 95 94 88 95 93 35 96 36 56 71 5 10 71 48 56 63 78 80 47 100 100 100 100 100 100 100 100 100 100 100 100 100 100 100 100 100 100 100 100 100 100 100 100 100 100 100 100
97 90 94 94 93 100 94 46 95 82 89 100 91 92 81 47 36 5 7 90 37 67 88 81 73 79 100 100 100 100 100 100 100 100 100 100 100 100 100 100 100 100 100 100 100 100 100 100 100 100 100 100 100 100

GFSWCAN_prec_cloud_036.txt.gz
Cloud_Cover
12 2 99 97 56 9 5 5 5 5 5 5 5 38 5 12 86 100 100 100 100 100 97 100 100 100 100 100 99 100 100 100 100 100 100 100 100 100 100 100 100 98 100 100 100 100 92 96 90 92 88 100 100 100
25 94 100 57 23 5 5 5 5 5 5 5 5 5 5 5 5 92 100 100 100 100 60 57 83 100 100 100 100 100 100 100 100 100 76 100 100 100 100 100 100 94 100 100 100 81 83 64 88 100 100 100 100 100
64 99 100 5 5 5 5 5 5 5 5 5 5 5 5 5 24 76 100 100 96 84 100 100 100 100 100 100 100 100 100 100 100 100 100 100 100 100 100 100 98 63 93 100 26 56 53 50 95 76 86 94 100 100
12 60 99 13 5 5 5 5 5 5 5 5 16 14 5 5 7 94 88 100 83 100 100 100 100 100 100 100 100 100 100 100 100 100 100 100 100 97 100 100 54 29 75 90 51 71 64 46 98 100 86 96 82 88
90 98 100 40 5 5 5 5 5 5 5 19 99 51 70 100 21 38 96 100 100 100 100 100 100 100 100 100 100 100 100 100 100 100 100 100 100 94 100 100 62 39 17 96 100 100 100 70 100 98 100 100 98 89
81 100 23 86 5 5 5 5 5 5 5 88 100 100 100 99 100 97 100 100 100 100 100 100 100 100 100 100 100 100 100 100 100 100 100 100 100 68 68 100 100 5 99 100 100 100 99 92 97 100 100 100 100 100
89 75 17 19 10 5 5 5 5 5 5 78 100 100 100 100 100 96 100 100 100 100 100 100 100 100 100 100 100 100 100 100 100 100 100 100 100 98 100 87 100 100 100 100 88 89 99 100 99 100 100 100 100 100
67 81 80 5 4 5 5 9 5 5 5 100 98 88 100 100 100 100 100 100 100 100 100 100 100 100 97 100 100 100 100 100 100 100 100 100 100 100 86 15 57 79 75 41 33 31 85 97 100 100 100 100 100 99
100 95 5 19 11 5 5 5 5 5 5 100 100 89 83 87 99 99 100 100 100 100 100 100 100 100 100 100 100 100 100 100 100 100 100 100 100 74 27 28 100 72 7 49 96 99 91 100 100 100 100 100 100 97
91 100 100 52 11 5 5 5 5 5 4 31 48 100 100 100 100 100 100 100 100 100 96 100 100 100 69 100 100 100 100 100 100 100 100 100 100 97 97 79 100 82 70 100 100 100 100 100 100 100 100 100 98 100
93 100 100 5 5 5 4 5 5 4 3 5 60 73 100 100 100 100 100 100 100 100 66 95 100 99 37 100 100 100 100 100 100 100 100 93 100 100 100 100 100 100 99 100 100 100 100 100 100 100 100 100 100 100
100 100 100 5 5 5 1 5 5 4 79 84 85 93 100 100 100 100 100 100 100 100 97 100 100 86 94 79 100 100 100 100 100 100 100 100 100 100 100 100 100 100 100 100 100 100 100 100 100 100 100 100 100 100
99 100 77 5 12 5 0 3 5 38 65 34 98 91 99 100 100 100 100 100 100 92 100 100 98 100 93 83 100 100 100 100 100 100 100 100 100 99 100 100 100 100 100 100 100 100 100 100 100 100 100 100 100 98
100 50 6 5 5 5 5 4 15 100 95 74 72 37 38 76 100 94 92 100 100 100 100 100 100 100 100 98 99 100 100 100 100 100 100 100 100 100 100 100 92 96 100 100 100 100 100 100 100 100 100 100 99 89
100 46 8 5 5 7 4 2 62 96 100 98 79 59 100 100 99 100 100 99 99 100 100 100 100 100 100 100 65 82 100 100 100 95 100 100 100 100 99 81 78 98 95 93 90 97 100 100 100 100 100 92 89 90
100 29 8 99 74 92 61 5 89 100 100 100 100 95 100 90 93 45 74 81 99 100 100 100 100 100 100 85 99 100 100 100 100 98 24 54 100 100 100 100 100 100 100 100 99 96 97 100 92 88 81 71 91 100
94 100 31 100 100 99 98 8 97 100 100 100 100 100 100 99 86 90 100 100 96 100 100 100 100 100 78 79 97 100 100 100 58 5 44 21 95 100 100 100 100 100 100 100 100 100 100 80 77 90 77 82 93 100
100 86 47 100 100 100 90 90 100 100 100 100 95 89 100 99 82 89 98 100 100 100 100 100 72 100 77 48 98 100 99 86 95 68 81 100 100 90 96 100 100 100 100 100 100 100 100 100 100 100 100 100 100 100
100 100 100 100 100 100 100 22 78 92 75 100 100 100 100 100 96 98 100 100 100 100 100 100 100 82 39 96 100 100 99 85 82 47 95 92 100 100 100 96 100 100 100 100 100 100 100 100 100 100 100 100 100 100
100 100 100 100 100 100 98 100 96 76 74 71 91 100 100 100 100 98 52 95 100 100 100 100 83 94 87 96 99 98 100 100 92 76 27 45 100 100 100 100 100 100 100 85 98 100 100 100 100 100 100 100 100 100
100 100 100 100 100 100 100 100 93 94 100 100 100 96 94 100 100 55 26 100 100 100 92 91 92 100 100 100 100 100 97 97 91 100 98 100 77 98 100 100 100 100 100 100 100 100 100 100 100 100 100 100 100 100
100 100 100 100 100 100 100 91 61 87 86 91 99 100 100 100 100 73 84 98 69 47 33 95 100 92 82 97 91 90 100 93 99 91 90 68 97 100 96 99 100 100 100 100 100 100 100 100 100 100 100 100 100 100
100 100 100 100 100 100 88 39 72 94 92 88 98 70 66 100 92 62 100 86 40 5 14 33 15 5 39 5 65 98 97 100 100 100 99 98 99 100 100 100 100 100 100 100 100 100 100 100 100 100 100 100 100 100
100 100 100 100 100 100 57 42 40 77 100 86 100 74 5 16 75 89 96 62 5 5 5 7 5 5 5 5 7 37 90 100 100 100 100 100 100 100 100 100 100 100 100 100 100 100 100 100 100 100 100 100 100 100
100 100 100 100 100 100 100 94 72 43 100 100 97 61 17 86 96 99 89 5 5 5 5 5 5 5 75 50 5 5 16 99 100 100 100 100 100 100 100 100 100 100 100 100 100 100 100 100 100 100 100 100 100 100
100 100 100 100 100 58 51 79 56 79 100 100 82 57 62 81 100 79 5 5 5 5 5 5 5 42 12 8 23 26 69 74 100 100 100 100 100 100 100 100 100 100 100 100 100 100 100 100 100 100 100 100 100 100
100 100 100 93 98 98 100 100 100 43 96 97 16 72 48 71 63 2 3 5 5 5 5 5 5 64 68 37 13 5 46 84 100 95 100 100 100 100 100 100 100 100 100 100 100 100 100 100 100 100 100 100 100 100
100 100 100 100 100 100 100 100 100 99 100 37 23 58 5 5 5 4 5 5 5 5 5 5 5 39 70 53 44 86 97 96 80 99 100 100 100 100 100 100 100 100 100 100 100 100 100 100 100 100 100 100 100 100
100 100 96 90 98 100 100 100 100 100 51 5 5 5 5 5 5 5 5 5 9 20 27 5 5 5 32 6 28 61 97 100 100 97 100 100 100 100 100 100 100 100 100 100 100 100 100 100 100 100 100 100 100 100
100 100 78 100 100 100 100 100 100 69 40 5 6 5 5 5 5 5 5 5 5 5 5 67 90 100 97 100 90 25 7 67 94 98 100 100 100 100 100 100 100 100 100 100 100 100 100 100 100 100 100 100 100 100
95 78 100 100 100 100 100 95 93 76 58 67 82 40 5 10 5 5 5 5 7 81 99 86 57 40 74 85 98 98 44 74 87 100 100 100 100 100 100 100 100 100 100 100 100 100 100 100 100 100 100 100 100 100
99 100 100 100 100 96 92 95 94 86 99 80 37 92 9 8 36 5 8 57 71 71 55 92 100 77 58 98 98 90 94 95 100 100 100 100 100 100 100 100 100 100 100 100 100 100 100 100 100 100 100 100 100 100
100 100 100 100 88 92 93 39 87 57 80 100 89 94 81 46 16 5 7 53 13 5 6 50 84 100 100 100 99 76 86 100 94 100 100 100 100 100 100 100 100 100 100 100 100 100 100 100 100 100 100 100 100 100

GFSWCAN_prec_cloud_039.txt.gz
Cloud_Cover
100 100 98 100 100 8 5 5 5 5 5 5 5 5 5 5 5 79 100 100 100 100 100 56 62 52 64 91 100 100 100 100 100 100 100 100 98 95 95 100 98 99 100 100 100 100 87 90 99 49 77 99 100 100
100 100 87 100 100 9 10 5 5 5 5 5 5 5 5 5 5 8 100 100 100 100 97 100 99 100 100 100 100 100 100 100 99 100 100 100 74 45 71 100 100 100 99 100 100 100 93 98 97 97 59 41 100 100
100 100 99 100 100 12 5 5 5 5 5 5 5 5 41 4 8 6 100 100 100 99 100 91 100 100 100 100 100 100 100 100 100 84 100 87 99 76 100 100 100 100 95 66 64 98 81 52 91 93 95 66 69 26
100 100 99 52 99 63 19 17 5 5 5 23 19 100 56 44 12 40 90 100 100 100 100 81 100 100 100 100 100 100 100 100 100 100 100 100 93 98 100 100 100 100 100 80 26 100 62 26 63 73 72 100 82 88
100 100 100 100 95 37 62 56 5 5 5 31 5 100 100 100 100 18 71 100 65 100 100 100 100 100 100 100 100 100 100 100 100 100 100 100 100 100 100 100 100 100 100 49 33 96 89 100 96 91 88 100 100 89
100 100 100 69 79 90 100 6 5 5 5 10 84 100 100 100 99 99 100 100 100 100 100 100 100 100 100 100 100 100 100 100 100 100 100 91 100 100 100 100 100 100 96 26 50 41 100 100 76 100 100 100 100 100
100 100 100 99 100 6 93 5 5 5 5 94 97 99 99 100 30 100 100 100 100 100 100 100 100 100 100 100 100 100 100 100 100 100 100 100 100 100 100 94 100 100 15 5 79 60 100 100 52 97 100 100 100 100
100 100 100 100 100 71 46 5 5 5 5 92 97 99 100 61 39 100 100 100 100 100 100 100 100 100 100 100 100 100 100 100 100 100 100 100 100 100 100 10 84 5 12 56 88 100 68 36 81 100 100 100 100 99
100 94 51 82 88 68 9 5 3 5 5 78 11 89 34 81 100 100 100 100 100 100 100 100 100 100 100 100 100 100 100 100 100 100 100 100 100 94 5 9 37 5 28 96 69 23 71 100 100 100 100 100 100 100
100 95 100 100 89 10 6 5 4 1 0 5 19 98 99 93 58 100 100 100 100 100 100 100 100 86 100 100 100 100 100 100 100 100 100 100 100 85 19 7 57 48 48 26 5 32 100 100 100 100 100 100 100 100
100 87 100 100 60 16 5 3 5 3 0 8 20 60 100 94 94 100 100 89 100 100 100 100 100 100 99 100 100 100 100 100 100 100 100 100 100 100 87 71 6 12 67 28 56 92 100 100 100 100 100 100 100 100
100 100 98 100 97 52 16 14 5 6 92 81 85 100 100 100 100 100 100 99 100 99 100 100 100 100 100 100 100 100 100 100 100 100 100 100 100 100 100 100 100 100 100 100 100 100 100 100 100 100 100 100 100 98
100 100 99 100 86 39 36 7 38 10 14 78 98 96 48 95 100 95 100 100 100 100 100 100 100 100 100 100 100 100 100 100 100 100 100 100 100 100 100 100 100 100 100 100 100 100 100 100 100 100 100 100 100 100
100 100 100 100 29 100 100 6 16 5 36 44 86 19 45 97 99 99 100 100 100 100 100 100 100 100 100 100 99 100 100 100 100 100 100 100 100 100 100 100 100 100 100 100 100 100 100 100 100 100 100 100 100 100
100 100 100 97 100 100 100 72 5 8 81 58 43 66 100 84 99 100 100 100 99 100 100 100 93 100 100 100 94 92 100 100 100 100 100 100 100 100 100 95 100 100 99 96 100 100 100 100 100 100 100 94 96 78
100 100 99 100 100 100 97 86 43 66 100 95 69 92 90 94 100 93 100 99 100 100 100 100 100 97 99 99 100 100 100 100 99 100 100 100 100 97 100 100 100 100 100 100 100 98 90 78 74 84 85 92 88 82
100 100 100 100 100 100 67 83 39 96 96 78 96 100 100 100 100 100 100 100 100 100 100 100 100 100 83 98 100 100 100 100 100 60 28 77 100 100 100 100 100 100 100 100 100 97 97 99 100 77 85 86 84 88
100 100 100 100 100 100 88 99 100 99 100 86 94 100 100 100 100 66 90 100 99 100 100 100 100 100 100 100 88 90 97 84 23 33 43 50 52 96 100 100 100 100 100 100 100 93 32 9 9 26 70 93 97 92
100 100 99 100 100 100 95 100 100 100 94 100 100 100 100 100 99 90 100 94 95 93 97 100 100 100 98 94 100 96 100 100 100 50 28 23 37 88 89 89 28 14 14 41 64 55 46 40 44 91 100 99 100 100
100 100 100 100 100 100 99 100 100 100 100 98 98 100 100 100 100 100 55 54 96 100 100 100 100 87 79 80 89 95 92 92 98 91 56 79 8 64 100 100 100 88 24 10 24 46 70 64 100 84 100 100 100 100
100 100 100 100 100 100 100 100 100 100 100 88 100 100 100 100 100 100 100 100 88 89 31 12 65 15 63 96 99 96 89 83 99 100 91 96 55 57 18 94 100 100 100 100 100 100 100 99 100 100 99 100 100 100
100 100 100 100 100 100 100 100 100 100 100 99 86 100 95 84 93 98 78 100 100 24 5 5 5 5 5 5 5 5 5 63 100 100 100 100 100 100 68 54 94 100 100 100 100 85 98 100 100 100 100 100 100 98
100 100 100 100 100 100 100 100 100 100 100 99 91 70 82 98 98 94 97 100 22 5 5 5 5 5 5 4 5 5 24 86 98 99 85 93 100 100 82 75 100 100 100 100 100 100 100 100 100 100 100 100 100 100
100 100 100 100 100 100 100 100 100 100 100 100 100 57 73 32 75 90 86 74 18 5 5 5 5 1 5 4 2 0 5 32 93 98 90 85 92 77 98 85 84 92 97 100 100 100 100 100 100 100 100 100 100 100
100 100 100 100 100 100 100 100 100 100 100 100 86 21 30 92 61 72 60 5 5 5 5 5 5 5 5 5 3 3 5 5 89 91 77 60 90 81 98 100 100 100 99 99 100 100 100 100 100 100 100 100 100 100
100 100 94 100 100 100 100 100 100 100 100 40 6 34 77 74 71 18 5 5 5 5 5 5 5 5 5 5 5 5 5 5 56 97 61 15 83 100 95 100 100 100 100 100 100 100 100 100 100 100 100 100 100 100
100 100 100 100 100 100 100 100 100 95 52 61 86 55 55 42 6 5 0 2 5 5 5 5 5 5 5 5 5 5 5 5 66 49 40 72 73 86 100 100 100 100 100 100 100 100 100 100 100 100 100 100 100 100
100 100 100 100 100 100 100 100 100 99 100 100 95 46 32 84 41 2 0 4 5 5 5 5 5 5 5 5 5 5 36 7 77 96 100 91 65 60 91 100 100 100 100 100 100 100 100 100 100 100 100 100 100 100
100 100 100 100 100 100 100 100 100 100 83 48 45 100 93 46 3 2 0 5 5 5 5 5 5 52 58 43 26 42 84 98 100 100 100 76 5 40 89 100 100 100 100 100 100 100 100 100 100 100 100 100 100 100
100 100 100 100 100 100 100 100 100 88 17 55 97 36 6 5 4 5 5 5 5 5 5 5 39 95 83 89 66 28 5 5 51 99 100 98 35 78 100 100 100 100 100 100 100 100 100 100 100 100 100 100 100 100
100 100 100 100 100 94 98 99 100 49 29 56 63 53 5 5 5 5 5 5 5 5 7 11 12 23 84 66 99 100 76 5 44 88 99 88 93 87 99 100 100 100 100 100 100 100 100 100 100 100 100 100 100 100
100 100 100 100 90 74 85 95 98 100 68 55 27 87 6 5 10 9 5 34 60 9 41 33 73 25 5 56 96 99 99 97 100 99 97 94 95 100 100 100 100 100 100 100 100 100 100 100 100 100 100 100 100 100
100 98 89 100 100 100 94 100 100 100 58 39 50 64 26 57 56 5 5 5 5 5 5 5 10 64 60 80 97 100 100 99 92 100 100 100 100 97 100 100 100 100 100 100 100 100 100 100 100 100 100 100 100 100

GFSWCAN_prec_cloud_042.txt.gz
Cloud_Cover
100 100 100 100 100 100 100 37 8 27 5 5 5 5 5 7 5 74 100 100 100 100 100 65 47 10 96 81 100 68 97 100 100 100 100 100 100 100 100 86 100 93 99 100 100 100 69 54 89 70 63 5 99 94
100 100 100 100 100 100 100 100 55 10 5 7 5 22 15 12 5 8 100 100 100 100 100 98 97 99 96 90 92 97 92 87 100 100 100 100 100 100 100 100 90 69 100 100 100 100 71 80 66 51 97 48 5 6
100 100 100 100 100 100 100 98 55 6 5 5 77 22 100 57 5 12 81 100 100 100 100 100 100 100 100 100 100 100 100 100 55 85 96 100 100 100 100 83 100 90 100 100 100 100 92 98 79 54 85 93 8 5
100 100 100 100 100 100 100 100 100 21 5 12 40 100 80 100 21 76 83 100 100 100 99 76 99 100 98 94 100 100 100 100 100 100 98 100 100 92 100 100 91 100 100 100 100 34 76 66 84 97 95 100 88 36
100 100 100 100 100 100 100 100 100 6 7 15 23 77 72 100 100 86 83 100 92 88 100 76 100 100 100 100 100 100 100 100 100 100 100 100 96 85 100 100 100 100 100 100 100 47 15 60 64 96 82 89 100 100
100 100 100 100 100 100 100 100 85 28 5 9 100 100 100 100 100 100 100 100 99 100 100 100 100 100 100 100 100 100 100 100 100 100 100 100 99 100 100 100 100 100 100 100 100 48 66 40 93 55 7 36 98 99
100 100 100 100 100 100 56 95 8 7 7 87 100 100 100 99 100 100 100 100 100 100 100 100 100 100 100 100 100 100 100 100 100 100 100 99 100 73 100 100 100 100 100 100 100 100 22 98 100 46 73 97 100 100
100 100 100 100 100 100 80 24 6 5 5 83 52 100 100 100 100 100 100 100 100 100 100 100 100 100 100 100 100 100 100 100 100 100 100 98 100 100 100 100 100 100 100 100 100 16 22 97 63 6 70 90 93 98
100 100 100 100 100 100 80 97 5 5 5 9 69 77 75 97 100 100 100 100 100 100 100 100 100 100 100 100 100 100 100 100 100 100 100 100 100 100 100 100 100 100 100 100 42 43 51 90 35 99 100 99 86 90
100 100 100 100 100 100 100 76 7 4 0 5 48 99 100 100 100 100 100 100 100 100 100 100 100 100 100 100 100 100 100 100 100 100 100 100 100 100 100 100 100 99 23 5 5 51 53 22 88 100 100 100 100 100
100 100 100 100 100 100 100 9 5 5 3 2 65 64 98 100 100 100 100 99 100 100 100 100 100 100 100 100 100 100 100 100 100 100 100 100 100 100 96 96 100 98 21 63 99 28 19 28 100 98 100 100 100 100
100 100 100 100 100 100 97 5 95 8 98 71 65 93 100 100 100 97 100 100 100 100 100 100 100 100 100 100 100 100 100 100 100 100 100 100 100 100 83 100 100 94 84 78 69 94 86 94 100 100 100 100 100 100
100 100 100 100 100 100 45 86 100 22 34 100 100 100 98 99 100 100 100 100 100 100 100 100 100 100 100 100 100 100 100 100 100 100 100 100 100 100 100 100 100 100 100 100 100 100 100 100 100 100 100 100 100 100
100 100 100 100 100 100 100 100 99 5 56 98 95 74 88 100 91 98 100 98 97 100 100 100 100 100 100 100 100 100 100 100 100 100 100 100 100 100 100 100 100 100 100 100 100 100 100 100 100 100 100 100 100 100
100 100 100 100 100 100 100 100 99 100 96 100 100 71 100 95 100 100 100 82 99 100 100 100 98 54 100 96 99 93 100 100 100 100 100 100 100 100 100 100 100 100 100 100 100 100 100 100 100 100 100 100 100 100
100 100 100 100 100 100 99 100 100 100 100 100 100 94 100 100 100 100 100 100 99 100 100 100 100 95 100 95 100 100 100 94 86 100 100 100 100 100 100 100 100 100 100 100 100 100 100 100 100 100 100 100 100 100
100 100 100 100 100 100 100 100 100 100 100 100 99 100 100 99 100 100 100 100 100 100 100 100 100 98 99 100 100 100 100 100 100 94 100 100 100 100 100 100 100 100 100 100 100 100 100 100 100 100 100 100 100 94
100 100 100 100 100 100 100 100 100 100 100 100 98 100 100 100 100 100 100 100 100 100 100 100 100 100 98 100 100 100 99 100 71 99 100 100 100 100 100 100 100 100 100 100 100 100 100 100 100 100 100 100 79 97
100 100 100 100 100 100 100 100 100 100 80 100 100 100 100 100 100 100 100 98 96 100 80 100 100 94 97 94 96 78 100 100 93 57 82 85 90 100 100 100 100 98 98 100 100 100 100 100 98 89 86 100 100 95
100 100 100 100 100 100 100 100 100 100 99 100 100 100 100 100 100 100 83 84 92 76 100 96 78 81 90 48 33 10 45 13 26 76 78 64 92 94 82 100 94 84 77 94 96 97 100 100 100 98 100 100 100 100
100 100 100 100 100 100 100 100 100 100 100 100 100 100 100 100 100 100 88 100 98 56 45 5 15 5 5 5 5 5 5 5 5 47 73 88 72 100 100 100 84 75 93 91 96 76 72 72 80 100 100 100 100 100
100 100 100 100 100 100 100 100 100 100 100 100 100 100 100 100 100 100 87 100 100 20 5 5 5 5 5 5 5 5 5 5 5 14 78 98 100 100 84 100 100 92 95 69 99 100 100 92 95 99 100 100 100 100
100 100 100 100 100 100 81 100 100 100 100 100 100 100 100 100 100 100 99 74 17 9 5 5 5 5 5 4 2 1 1 5 5 5 5 8 32 81 99 100 100 100 81 99 75 98 100 100 100 100 100 100 100 100
100 100 100 100 98 89 100 100 100 100 100 100 100 100 100 100 100 100 100 78 20 5 5 9 7 5 5 5 5 5 5 4 5 5 5 5 13 5 5 5 15 34 41 96 100 98 92 100 100 100 100 100 100 100
100 100 100 89 100 89 100 100 100 100 100 100 100 100 100 100 100 100 100 77 65 64 53 7 5 5 22 51 5 5 5 5 5 5 5 5 5 5 7 9 58 65 42 91 100 100 100 79 100 100 100 100 100 100
96 92 99 100 100 100 100 100 100 100 100 100 100 100 79 90 100 100 100 99 42 26 5 5 5 53 10 5 5 5 5 5 5 5 5 5 5 82 97 98 94 36 26 84 96 100 100 100 100 100 100 100 100 100
75 84 100 100 100 100 100 100 100 100 100 100 100 100 97 100 100 100 95 60 6 27 30 24 5 5 5 5 5 5 5 5 5 5 5 5 5 6 76 94 91 47 7 73 100 100 100 100 100 100 100 100 100 100
94 100 100 92 98 100 100 100 100 100 100 100 100 100 100 100 100 72 53 42 53 19 49 6 5 16 6 48 20 37 19 25 6 11 47 65 60 44 35 60 88 86 91 91 98 100 100 100 100 100 100 100 100 100
100 100 100 100 100 100 100 100 100 100 100 100 100 79 56 67 76 16 11 11 20 52 12 44 18 69 70 62 53 5 47 85 100 100 100 79 12 5 6 49 100 98 92 94 92 100 100 100 100 100 100 100 100 100
100 100 100 100 100 100 100 100 100 100 100 100 100 100 100 100 41 34 39 64 38 32 13 23 54 66 66 78 60 28 9 5 30 92 100 100 80 35 27 18 24 73 83 91 100 100 100 100 100 100 100 100 100 100
100 100 100 100 100 100 100 100 100 100 100 100 99 89 92 93 56 45 42 41 58 62 55 60 64 62 84 85 88 98 83 5 25 91 100 100 82 70 44 18 66 71 92 100 100 100 100 100 100 100 100 100 100 100
100 100 100 100 100 100 100 100 100 100 87 59 45 67 76 80 98 48 56 60 67 69 43 67 91 59 19 55 72 87 97 98 90 85 91 91 85 57 38 54 91 95 95 100 100 100 100 100 100 100 100 100 100 100
100 100 100 100 100 96 88 54 54 92 86 67 84 100 100 95 87 24 6 55 38 36 53 52 56 65 59 77 96 93 100 99 98 97 99 100 100 95 96 83 100 98 100 100 100 100 100 100 100 100 100 100 100 100

GFSWCAN_prec_cloud_045.txt.gz
Cloud_Cover
96 100 100 100 100 100 100 100 100 100 88 98 29 33 31 7 5 40 100 100 100 100 98 100 100 68 99 100 96 100 100 100 100 100 100 100 100 100 100 97 100 100 98 100 100 100 100 29 71 75 10 15 43 35
91 97 100 100 100 100 100 100 100 100 94 100 42 83 81 74 43 17 100 100 100 100 77 66 92 99 71 98 96 62 99 58 100 100 100 100 100 100 100 100 100 89 87 100 100 91 100 5 5 5 7 7 31 5
100 100 100 100 100 100 100 100 100 100 100 100 100 100 100 100 100 53 96 100 100 100 100 100 100 100 100 100 97 36 52 81 34 94 100 100 99 90 100 100 100 99 96 97 100 100 100 98 33 31 44 27 5 14
100 100 100 100 100 100 100 100 100 100 100 100 100 100 25 100 100 93 84 100 100 100 100 98 100 97 83 100 100 14 86 72 82 100 100 100 100 75 100 100 94 93 98 100 100 100 100 100 84 63 84 64 49 51
100 100 100 100 100 100 100 100 100 100 100 87 32 92 100 100 100 100 96 100 100 88 99 100 91 100 100 100 98 84 98 86 100 100 100 100 100 95 70 100 100 77 62 100 100 100 100 87 11 32 84 100 60 90
100 100 100 100 100 100 100 100 100 100 100 5 97 100 100 99 99 96 100 100 97 98 100 99 87 100 100 100 96 94 100 100 100 100 100 100 100 98 100 100 40 66 100 100 100 100 100 6 80 87 90 100 97 33
100 100 100 100 100 100 100 100 100 100 32 72 100 99 100 100 49 100 100 100 100 100 100 100 98 100 96 94 100 100 100 100 100 100 100 100 100 100 100 97 45 98 97 100 100 100 100 31 98 91 99 92 76 95
100 100 100 100 100 100 100 100 100 81 5 6 90 88 100 100 86 100 100 100 100 100 100 100 100 100 98 100 100 100 100 100 100 100 100 88 100 51 100 83 100 100 100 100 100 100 76 63 98 51 14 50 96 98
100 100 100 100 100 100 100 100 100 16 7 11 52 100 92 100 100 100 100 100 100 100 100 100 100 100 100 100 100 100 100 100 100 100 100 100 100 98 100 83 100 100 87 86 100 92 88 29 46 19 5 76 97 92
100 100 100 100 100 100 100 100 100 100 17 4 63 100 100 100 100 100 100 100 100 100 100 100 100 93 100 100 100 100 100 100 100 100 100 100 100 100 100 19 100 100 100 99 100 100 100 99 62 6 7 100 100 100
100 100 100 100 100 100 100 100 100 100 5 5 96 100 100 100 100 100 100 100 100 100 100 100 100 100 100 100 100 100 100 100 100 100 100 100 100 100 87 95 100 100 100 81 27 91 100 82 94 91 34 98 100 100
100 100 100 100 100 100 100 100 100 100 89 74 56 96 99 100 100 100 97 100 100 97 100 100 99 100 100 100 100 100 100 100 100 100 100 100 100 100 100 100 100 100 100 77 47 97 99 88 79 85 99 100 100 100
100 100 100 100 100 100 100 100 100 98 74 94 99 100 100 99 100 100 100 100 100 98 100 99 95 100 100 100 100 100 100 100 100 100 100 100 100 100 100 100 100 100 100 100 100 100 100 100 100 100 100 100 100 100
100 100 100 100 100 100 100 100 100 71 100 100 76 93 87 92 77 84 100 100 100 99 100 100 100 100 100 100 100 98 82 94 100 100 100 100 100 100 100 100 100 100 100 100 100 100 100 100 100 100 100 100 100 99
100 100 100 100 100 100 100 100 100 98 100 100 87 84 96 80 100 100 100 100 94 100 100 100 98 88 100 100 100 100 94 90 100 98 100 100 100 100 100 100 100 100 100 100 100 100 100 100 100 100 100 100 99 95
100 100 100 100 100 100 100 100 100 100 100 100 96 98 100 99 100 100 100 100 83 100 100 100 100 97 100 100 100 100 100 100 94 99 74 100 100 100 100 100 100 100 100 100 100 100 100 100 100 100 100 100 100 100
100 100 100 100 100 100 100 100 100 100 100 100 100 100 100 100 99 100 100 100 100 100 100 100 100 100 100 100 100 100 100 100 100 99 78 99 100 93 100 100 99 100 100 100 100 100 100 100 100 100 100 100 100 100
100 100 100 100 100 100 100 100 100 100 100 100 100 100 100 100 100 100 100 100 100 100 100 100 100 96 100 100 94 93 100 100 90 100 100 100 88 70 99 97 100 98 97 100 100 100 100 100 100 100 100 100 100 100
100 100 100 100 100 100 100 100 100 100 100 100 100 100 100 100 100 100 100 100 100 100 100 100 100 100 83 38 95 94 81 64 50 74 96 100 100 100 100 100 100 99 87 96 100 100 100 100 100 100 100 100 100 100
100 100 100 100 100 100 100 100 100 100 100 100 100 100 100 100 100 100 100 100 100 67 89 99 100 18 9 20 60 38 16 6 5 15 5 7 41 77 96 100 100 100 100 100 99 100 100 100 100 100 100 100 100 100
100 100 100 100 100 100 100 100 100 100 100 100 100 100 100 100 100 100 100 100 100 95 87 8 5 5 5 6 5 5 5 5 5 5 5 53 5 62 62 57 65 77 100 100 100 100 100 100 100 100 100 100 100 100
100 100 100 100 100 100 100 100 100 100 100 100 100 100 100 100 100 100 100 100 100 100 97 21 8 5 5 5 5 5 3 2 5 5 5 23 14 11 5 5 96 98 100 100 90 66 66 96 100 100 99 100 100 100
99 100 99 96 96 68 100 100 100 100 100 100 100 100 100 100 100 99 96 100 100 100 100 100 60 5 5 5 3 1 1 5 5 5 5 5 5 5 5 5 5 10 31 83 91 66 72 73 100 100 100 100 100 100
81 100 98 94 68 87 80 100 100 100 100 100 100 100 100 100 100 100 100 100 36 95 100 100 100 99 10 5 7 5 5 5 5 8 5 17 7 5 5 5 5 5 5 7 63 71 53 87 100 100 100 100 100 100
100 82 70 68 94 100 100 100 100 100 100 100 100 100 98 100 100 100 100 100 100 96 98 100 100 100 21 62 15 5 5 5 5 5 25 5 5 5 5 5 5 5 5 61 82 74 65 89 100 100 100 100 100 100
85 85 68 56 56 90 85 97 100 100 100 100 100 100 100 100 100 100 100 100 100 100 47 100 100 95 47 5 5 15 5 5 28 32 5 5 5 7 53 90 77 8 5 5 36 100 87 84 97 100 100 100 100 100
83 86 61 39 98 100 100 95 97 100 100 96 100 100 100 100 100 100 100 100 100 100 100 77 28 5 5 5 33 28 37 39 5 5 5 21 18 20 26 91 77 5 5 5 13 86 100 92 82 97 100 100 100 100
10 5 12 100 100 84 81 100 97 100 98 100 100 100 100 100 100 100 100 100 100 100 100 100 60 24 17 35 27 48 55 62 60 53 5 5 5 10 28 60 80 51 91 99 97 84 87 98 93 86 100 100 100 100
65 20 93 32 68 98 100 100 100 100 99 96 79 91 100 100 100 100 100 100 100 100 100 82 7 56 74 64 63 70 74 94 100 100 100 70 7 5 5 5 72 100 98 89 70 99 95 97 95 100 100 100 100 100
72 5 8 52 98 100 100 100 100 98 84 95 100 100 100 100 100 100 100 100 100 97 24 5 24 76 34 66 38 28 13 24 50 93 100 93 30 5 34 54 5 9 19 12 81 89 95 100 100 100 100 100 100 100
73 100 100 100 100 100 97 100 87 77 100 100 100 100 100 100 100 100 100 100 95 75 76 77 62 80 75 68 94 100 78 5 5 38 99 100 92 85 90 86 58 40 22 61 100 99 94 100 100 99 100 100 100 100
100 99 100 100 98 96 98 91 100 100 100 100 100 100 100 100 100 100 46 54 82 84 55 80 75 22 6 40 48 84 99 100 100 94 90 98 96 92 98 79 83 89 96 100 95 100 100 95 100 100 100 100 100 100
96 95 93 98 91 94 100 100 100 100 100 100 100 100 100 100 99 98 67 34 9 11 16 8 22 49 41 68 73 77 92 84 86 96 94 91 100 100 100 89 86 88 89 94 98 99 100 100 100 100 100 100 100 100

GFSWCAN_prec_cloud_048.txt.gz
Cloud_Cover
78 99 100 100 100 99 100 100 100 100 100 100 100 100 100 62 6 39 100 100 100 100 94 89 58 9 46 85 100 99 80 95 97 100 99 100 100 100 100 100 100 99 100 98 100 100 100 72 40 65 100 48 38 25
78 100 80 88 100 100 100 100 100 100 100 100 100 94 100 99 100 74 62 100 100 100 98 93 100 100 80 96 95 100 95 99 97 100 53 98 100 100 100 100 100 100 62 71 98 100 56 62 90 33 13 5 54 82
81 100 95 86 100 100 100 100 98 100 100 100 100 93 99 100 100 100 63 100 100 100 100 100 100 100 62 27 72 84 100 100 80 85 90 70 88 97 100 99 100 100 94 100 100 94 97 99 100 77 81 61 44 99
97 100 92 73 100 100 100 100 100 100 100 100 100 100 73 86 100 100 89 100 100 100 100 100 98 97 35 44 98 100 100 100 51 77 87 100 99 90 99 100 100 100 97 100 100 98 100 70 49 62 36 74 74 100
100 100 100 98 100 100 100 100 100 100 100 100 97 99 98 99 98 100 99 100 100 100 100 100 99 93 81 56 18 71 73 88 100 93 100 100 97 84 100 100 100 52 26 98 65 100 97 46 63 36 73 9 6 68
100 100 100 100 100 100 100 100 100 100 100 96 84 99 34 99 95 40 100 100 100 100 100 100 87 33 57 73 100 100 100 100 100 100 100 100 100 100 100 100 84 22 5 6 99 100 100 100 77 14 34 6 46 41
100 100 100 100 100 100 100 100 100 100 100 60 100 100 100 100 45 44 100 100 100 100 100 88 81 46 100 99 100 100 100 100 100 100 100 100 100 100 100 67 90 97 100 94 84 100 100 100 100 6 5 5 16 55
100 100 99 100 100 100 100 100 100 100 67 81 100 58 100 100 31 100 100 100 100 100 100 100 98 99 100 100 100 100 100 100 100 100 100 100 100 100 100 100 100 100 100 68 56 91 100 100 96 16 10 19 10 5
100 100 100 100 100 100 100 100 100 66 7 47 5 64 62 94 100 100 100 100 100 100 100 100 100 100 100 100 100 100 100 100 100 100 100 100 100 100 99 100 100 100 100 100 98 100 100 100 100 76 5 73 44 15
100 100 100 100 100 100 100 100 100 32 32 47 27 99 100 100 100 100 100 100 100 100 100 100 100 100 74 100 100 100 100 100 100 100 100 100 100 100 100 100 98 89 94 100 100 97 100 100 100 79 100 96 32 61
100 96 100 100 100 100 100 100 100 60 100 79 60 100 100 100 100 100 100 100 100 100 100 100 100 100 98 100 100 100 100 100 100 100 100 100 100 100 96 91 66 56 31 51 100 98 100 100 100 100 100 100 100 100
100 100 100 100 100 100 100 100 100 100 100 100 49 91 100 100 100 100 100 100 100 98 89 100 100 97 100 100 100 100 100 98 100 100 100 100 97 100 98 100 77 72 75 98 100 100 100 100 100 96 100 100 100 100
100 100 100 100 100 100 100 100 100 100 100 100 100 100 100 99 100 100 100 100 100 100 98 99 96 100 96 100 100 100 100 95 100 100 100 100 100 100 100 100 100 100 100 100 100 100 100 100 97 100 100 100 100 100
100 100 100 100 100 100 100 100 100 100 100 100 60 97 94 94 99 100 79 72 99 100 100 100 100 100 100 100 100 100 100 88 91 100 100 100 100 100 100 100 100 100 100 100 100 100 100 100 100 100 100 100 100 100
100 100 100 100 100 100 100 100 100 100 100 100 82 84 99 78 100 100 100 100 92 100 100 100 100 97 100 100 100 99 100 100 100 97 100 100 100 100 100 100 100 100 100 100 100 100 100 100 100 100 100 100 100 100
100 100 100 100 100 100 100 100 100 100 100 100 93 97 96 91 98 100 100 100 97 100 100 100 100 94 100 100 100 100 100 95 47 100 99 100 100 100 100 100 100 100 100 100 100 100 100 100 100 100 100 100 100 100
100 100 100 100 100 100 100 100 100 100 100 100 100 100 100 100 100 100 100 100 100 100 100 100 100 98 100 100 100 100 97 100 100 88 40 54 100 100 100 100 100 100 100 100 100 100 100 100 100 100 100 100 100 100
100 100 100 100 100 100 100 100 100 100 100 100 100 100 100 100 100 100 100 100 100 100 100 100 100 94 100 100 85 66 100 100 100 100 100 100 87 83 100 100 100 100 100 100 100 100 100 100 100 100 100 100 100 100
100 100 100 100 100 100 100 100 100 100 100 100 100 100 100 100 100 100 100 100 100 100 100 100 100 98 48 48 70 39 79 100 100 100 96 96 96 100 98 83 95 100 100 100 100 100 100 100 100 100 100 100 100 100
100 100 100 100 100 100 100 100 100 100 100 100 100 100 100 100 100 100 100 100 100 100 100 84 47 18 7 10 13 18 66 17 12 5 5 5 7 20 68 100 100 100 96 97 96 70 75 78 94 100 100 100 100 100
100 100 100 100 100 100 100 100 100 100 100 100 100 100 100 100 100 100 100 100 100 100 100 99 50 9 5 10 5 5 5 5 5 5 4 57 5 14 7 5 32 6 48 92 100 100 100 97 60 86 90 89 100 100
100 100 100 89 86 100 100 100 100 100 100 100 100 100 100 100 100 100 100 100 100 100 100 100 100 100 99 31 5 15 5 5 5 4 5 17 28 68 62 24 53 53 42 5 61 98 100 40 97 100 100 100 100 100
100 99 99 100 99 95 100 100 100 100 100 100 100 100 100 100 100 100 100 100 100 70 56 100 100 100 100 100 97 52 10 5 5 5 5 5 5 8 17 46 49 83 10 5 5 5 31 22 63 100 100 100 100 100
100 96 86 86 83 100 97 100 100 100 100 100 100 91 100 100 100 100 100 100 100 100 100 98 99 49 45 70 100 100 94 14 26 52 37 53 19 5 5 5 5 8 5 5 6 70 100 100 73 70 98 100 100 100
100 59 78 91 96 89 6 48 85 99 100 100 100 100 100 100 100 100 100 100 100 96 93 100 100 100 76 79 73 79 74 6 5 5 5 5 9 6 5 5 5 5 5 82 52 5 5 100 100 87 90 80 100 100
91 66 70 42 78 9 50 71 99 100 100 99 100 100 100 100 100 100 100 100 100 46 100 98 100 100 100 100 100 100 99 14 18 48 14 5 5 32 54 42 6 5 5 5 18 69 15 84 95 92 100 96 98 100
96 81 76 48 16 5 7 56 48 99 100 100 100 100 100 99 23 57 93 100 100 100 100 100 100 100 100 98 100 99 68 44 73 53 32 48 5 5 8 14 5 5 5 12 5 9 68 93 95 93 92 90 99 99
37 5 28 38 5 16 60 7 77 100 100 100 100 100 92 98 100 100 100 98 98 100 67 76 100 100 100 100 100 97 91 98 58 11 24 6 39 5 5 5 35 40 89 100 96 94 100 98 98 84 92 92 96 96
62 26 5 10 5 5 5 67 82 100 100 100 69 74 98 100 96 96 85 100 100 100 56 97 100 100 100 100 100 98 72 78 72 88 47 5 18 5 5 7 19 36 21 97 98 98 99 99 99 98 93 100 99 97
58 5 8 5 5 5 66 86 98 100 67 64 44 48 77 55 70 40 61 97 100 98 100 100 100 100 100 100 100 100 88 50 8 7 54 5 5 15 20 5 7 37 68 88 47 23 10 53 90 100 100 100 96 98
44 28 5 5 5 54 93 100 86 72 61 100 100 84 46 26 45 12 76 93 100 100 100 100 100 100 100 100 99 99 41 17 30 5 15 51 82 89 80 62 76 99 95 94 93 99 94 88 97 99 95 99 100 100
54 22 6 51 72 100 100 80 88 56 88 56 66 71 50 10 79 65 72 100 100 100 100 100 100 100 97 42 16 30 53 66 72 58 89 88 80 58 26 62 88 100 92 86 95 99 98 93 97 100 100 100 100 99
90 99 89 86 94 100 94 99 80 97 71 92 85 44 85 91 100 100 100 100 100 100 99 98 94 67 8 17 29 66 89 88 92 86 99 99 100 100 100 97 96 99 95 88 89 86 89 94 98 100 100 100 95 100

GFSWCAN_prec_cloud_051.txt.gz
Cloud_Cover
100 100 99 100 94 84 69 99 91 100 100 100 100 100 100 100 98 100 100 100 100 100 70 71 51 18 5 73 47 17 57 76 99 100 100 100 100 100 100 100 98 100 100 100 87 100 95 95 91 92 90 96 90 64
100 100 100 86 5 14 100 75 100 100 100 100 100 100 100 100 100 100 83 92 100 100 96 93 100 98 77 60 97 100 67 99 94 85 99 100 100 100 99 94 50 92 95 79 67 65 91 97 83 100 84 90 99 78
100 96 94 57 70 29 89 100 100 100 100 100 100 100 100 100 100 100 96 22 97 100 84 97 100 100 100 79 82 82 82 100 100 84 91 62 98 96 64 38 70 96 73 78 55 99 100 100 91 99 99 96 79 87
92 96 91 100 100 100 100 100 100 100 100 100 100 100 100 100 82 100 100 62 98 100 100 96 100 100 100 100 95 18 71 85 100 100 100 99 100 85 55 88 82 87 91 60 87 94 79 89 66 89 100 65 79 96
100 100 100 100 100 100 100 100 100 100 100 88 100 98 100 100 80 91 93 100 98 100 100 100 100 91 100 88 58 67 73 100 100 100 95 100 79 99 81 83 50 54 83 99 100 82 98 52 43 86 56 53 78 70
100 100 100 100 100 90 100 100 100 100 100 99 100 54 100 93 99 92 33 74 100 100 100 100 84 99 64 74 99 100 100 100 100 91 100 100 100 100 100 97 98 89 92 88 30 100 28 79 95 59 53 100 35 56
100 100 100 100 100 100 100 100 100 100 100 100 73 100 100 95 58 5 100 100 100 100 100 100 100 99 100 100 100 100 100 100 100 100 100 100 100 100 100 72 99 99 100 81 68 84 15 61 98 100 100 100 48 5
100 100 100 100 100 96 100 100 100 100 100 100 16 100 100 95 10 37 100 100 100 100 100 100 100 100 66 100 100 100 100 100 100 100 100 100 100 100 100 88 100 44 76 100 84 31 100 75 100 100 100 100 52 5
100 100 100 100 96 100 100 100 100 100 100 94 87 97 87 79 100 100 100 100 100 100 100 100 96 83 100 100 100 100 100 100 100 100 100 100 100 100 100 72 100 96 74 99 100 100 100 96 100 100 100 100 74 94
100 100 100 85 72 100 100 100 100 100 100 29 97 100 100 100 100 100 100 100 100 100 100 100 93 100 79 87 100 100 100 100 100 100 100 100 100 100 100 100 99 95 100 98 99 100 100 100 100 100 100 100 100 61
100 100 100 89 100 100 100 100 100 100 100 73 100 100 100 100 100 100 100 100 95 100 99 98 100 100 90 100 100 100 100 100 100 100 100 100 100 100 89 24 28 65 97 66 56 100 100 100 100 98 100 100 100 97
100 100 99 100 100 100 100 100 100 100 100 100 100 100 100 100 100 100 100 100 100 99 88 100 99 95 100 100 100 100 100 100 100 100 100 100 100 88 84 48 23 50 91 100 100 99 100 100 100 99 100 100 100 100
100 100 98 100 100 100 100 100 100 100 100 100 100 100 100 100 100 100 100 100 100 100 100 97 100 100 100 97 100 100 100 100 100 100 100 90 99 100 93 99 97 100 100 100 100 97 100 100 100 100 100 100 98 100
100 100 100 100 100 100 100 100 100 100 100 100 100 100 100 100 100 78 31 82 97 100 100 100 100 100 100 100 100 100 100 100 100 100 100 100 100 100 100 100 100 100 100 100 100 100 100 100 100 100 100 100 100 100
100 100 100 100 100 100 100 100 100 100 100 100 100 100 100 93 98 100 100 100 98 100 100 100 100 97 100 100 100 99 98 100 100 100 100 100 100 100 100 100 100 100 100 100 100 100 100 100 100 100 100 100 100 100
100 100 100 100 100 100 100 100 100 100 100 100 100 100 87 96 98 100 100 100 100 100 100 100 100 100 100 100 100 100 90 100 100 100 100 100 100 100 100 100 100 100 100 100 100 100 100 100 100 100 100 100 100 100
100 100 100 100 100 100 100 100 100 100 100 100 100 100 93 72 86 100 100 100 100 100 100 100 100 80 100 100 100 100 91 75 27 100 100 100 100 100 100 100 100 100 100 100 100 100 100 100 100 100 100 100 100 100
100 100 100 100 100 100 100 100 100 100 100 100 100 100 100 99 93 98 100 100 100 100 100 100 100 99 96 100 88 59 68 80 97 100 98 100 100 100 100 100 100 100 100 100 100 100 100 100 99 100 100 100 100 100
100 100 100 100 100 100 100 100 100 100 100 100 100 100 100 100 100 98 100 100 100 100 100 100 100 93 7 46 60 84 72 16 66 98 99 94 84 100 100 100 100 100 100 100 100 100 100 100 100 100 100 100 100 100
100 100 100 100 100 100 100 100 100 100 100 100 100 100 100 100 100 100 100 100 100 100 100 100 94 93 25 7 11 16 14 5 9 29 54 14 30 40 30 60 92 100 100 100 100 100 100 100 100 100 100 100 100 100
100 100 100 100 100 100 100 100 100 100 100 100 100 100 100 100 100 100 100 100 100 100 100 13 22 100 100 45 49 5 5 5 5 2 1 5 5 16 70 65 62 69 39 40 62 72 98 100 100 100 100 100 100 100
100 100 100 100 100 100 100 100 100 100 100 100 100 100 100 100 100 100 100 100 100 100 100 44 55 100 100 100 98 65 40 25 14 6 5 5 19 60 48 52 58 83 79 84 53 6 5 5 5 18 75 90 100 100
97 92 100 100 100 100 100 100 100 100 100 100 100 100 100 100 100 99 98 100 100 100 34 91 100 100 100 100 100 100 100 99 93 92 57 5 5 18 71 52 39 94 67 5 5 20 18 35 99 100 100 97 86 100
66 67 65 94 100 100 100 100 100 100 100 100 94 100 100 100 100 100 100 100 100 100 100 100 100 100 94 93 100 99 100 98 100 100 100 96 36 5 6 5 7 25 5 5 30 55 38 53 5 66 98 83 79 95
99 42 59 86 94 86 100 100 100 100 100 100 99 100 100 100 100 100 100 100 100 100 86 93 100 100 100 10 98 100 100 100 100 92 69 100 98 93 58 46 5 5 5 62 6 52 55 42 14 94 100 95 100 86
73 44 66 67 93 52 32 17 75 97 100 83 78 94 96 90 88 100 100 100 100 100 98 100 100 100 94 97 46 95 100 75 94 100 100 79 81 93 100 100 44 5 5 6 63 56 18 64 31 19 60 54 82 99
83 67 76 49 5 6 4 4 4 10 41 56 64 99 72 30 53 88 82 78 94 86 83 94 91 91 92 100 100 85 83 100 98 100 99 74 57 70 100 99 96 41 5 5 30 45 35 79 94 82 73 54 29 84
18 6 47 50 6 20 4 5 5 19 5 30 52 99 98 88 61 80 79 88 95 100 100 100 77 88 75 96 85 100 100 100 100 100 100 100 79 100 100 100 89 12 8 20 67 96 98 99 100 94 93 95 64 25
78 27 29 36 6 44 5 5 1 4 44 56 5 40 52 53 91 98 100 100 100 96 55 93 100 97 100 94 100 71 68 73 100 100 100 100 100 100 87 32 47 27 14 16 14 87 100 100 95 97 78 88 70 89
37 9 5 10 5 3 2 4 6 26 54 50 12 5 5 80 87 84 100 71 39 54 100 95 86 69 69 88 100 92 78 98 100 99 100 100 92 18 29 12 6 6 14 23 82 64 69 84 78 89 33 56 98 94
10 6 5 5 5 6 40 32 40 5 42 15 54 13 5 31 5 5 5 22 7 74 82 44 15 64 97 100 100 100 99 100 100 100 77 48 67 66 67 6 5 79 61 98 100 92 89 92 95 97 90 91 97 100
80 56 6 58 42 37 22 27 30 5 29 28 5 83 6 6 17 69 71 65 65 100 88 88 100 100 100 100 100 100 100 68 54 53 73 88 73 25 14 46 81 99 100 100 97 88 88 92 88 94 93 80 92 98
98 98 78 85 67 88 51 73 84 26 21 39 8 6 37 9 52 78 71 46 86 100 100 100 100 100 100 89 37 58 74 71 99 92 99 100 100 100 100 100 74 97 100 100 90 86 96 91 80 94 92 84 94 99

GFSWCAN_prec_cloud_054.txt.gz
Cloud_Cover
100 100 100 100 95 100 100 69 40 5 24 77 100 100 100 100 100 100 100 100 100 100 100 90 77 97 39 5 5 5 70 76 99 100 100 100 100 98 92 98 80 86 92 92 94 94 54 44 79 97 76 78 95 77
100 100 100 100 100 54 52 52 5 18 61 90 100 99 100 100 100 100 100 100 100 100 100 85 79 33 72 8 5 10 28 95 92 96 100 100 95 100 98 98 93 78 49 99 25 37 83 94 98 99 88 100 42 51
100 100 100 100 98 38 83 8 8 18 88 100 100 100 100 100 100 100 100 88 99 94 93 99 20 74 93 48 82 100 100 60 97 94 100 94 57 40 100 97 97 99 91 46 75 98 83 100 96 94 97 88 85 70
100 100 100 100 87 100 98 42 51 67 94 100 100 100 100 100 76 97 90 99 77 94 100 88 35 100 100 100 100 100 96 72 95 91 100 96 49 20 55 97 58 66 80 90 100 100 92 100 98 98 100 100 76 77
100 100 100 97 100 100 99 100 100 86 100 100 100 100 100 61 23 100 100 97 100 76 100 100 100 99 100 100 100 100 87 97 100 100 98 100 100 84 19 56 37 92 92 100 100 60 96 98 81 88 60 82 88 68
100 100 100 100 100 53 100 100 82 73 89 100 100 100 79 26 98 84 82 10 25 97 100 100 100 100 100 100 100 94 100 100 100 100 100 100 60 96 100 93 83 100 100 100 14 64 84 93 65 51 87 100 95 93
100 100 100 100 100 100 100 43 35 97 99 100 100 100 5 100 40 22 19 100 82 100 100 100 100 97 100 100 100 100 100 100 98 100 100 99 100 100 100 77 93 91 100 100 98 74 99 89 38 84 33 16 39 94
100 100 100 100 94 96 100 45 74 96 100 100 100 60 100 99 5 24 98 100 100 100 100 100 100 100 100 100 100 100 100 100 100 100 100 100 100 100 100 96 96 98 89 100 89 100 100 84 99 63 64 65 78 70
100 100 100 100 98 95 83 84 97 98 100 100 100 100 100 98 100 100 100 100 100 100 100 100 100 100 82 100 100 100 100 100 100 100 100 100 100 100 98 100 96 96 88 100 90 86 84 100 96 49 26 83 94 89
100 100 100 100 89 100 19 76 100 100 100 100 100 100 100 100 100 100 100 100 100 100 100 100 93 90 100 100 100 100 100 100 100 100 100 100 100 100 100 100 82 100 85 49 100 90 96 100 80 100 78 34 36 100
100 100 100 100 100 53 100 94 100 100 100 100 100 100 100 100 100 100 100 100 100 100 100 94 95 78 87 92 100 100 100 100 100 100 100 100 100 100 100 94 61 96 100 61 77 91 89 76 99 94 100 100 95 95
100 100 100 76 40 100 89 100 100 100 100 100 100 100 100 100 100 100 100 100 100 90 97 100 96 99 100 98 100 100 100 100 100 100 100 100 100 100 89 86 94 100 100 100 100 100 100 99 100 100 100 100 100 100
100 100 100 8 62 94 99 100 100 100 100 100 100 100 100 100 100 100 99 100 100 100 100 100 99 100 100 98 100 100 100 100 100 100 100 100 100 99 77 82 68 100 100 100 100 100 100 100 100 100 100 100 100 100
100 100 100 100 98 96 99 100 100 100 100 100 100 100 100 100 100 100 100 58 92 99 100 100 100 100 98 94 100 100 100 100 100 98 100 100 100 100 100 98 98 100 100 96 100 100 100 100 100 100 100 100 100 100
100 100 100 100 100 100 100 100 100 100 100 100 100 100 100 100 95 100 100 98 100 87 100 100 100 88 100 100 100 100 100 100 100 100 100 100 100 100 100 100 100 100 100 100 100 100 100 100 100 100 100 100 100 100
100 100 100 100 100 100 100 100 100 100 100 100 100 100 100 100 99 100 100 100 100 100 100 100 99 96 99 84 98 100 95 83 47 85 91 100 100 100 100 100 100 100 100 100 100 100 100 100 100 100 100 100 100 100
100 100 100 100 100 100 100 100 100 100 100 100 100 100 100 100 100 100 100 100 100 100 100 100 100 95 97 100 97 97 50 18 14 88 100 100 86 98 62 95 99 100 100 100 100 100 100 100 100 100 100 100 100 100
100 94 100 100 100 100 100 100 100 100 100 100 100 100 100 100 100 91 100 100 100 100 100 100 100 100 100 96 55 33 35 58 24 35 99 100 75 70 90 83 69 75 82 99 100 100 100 100 100 100 100 100 100 100
100 100 100 100 100 100 100 100 100 100 100 100 100 100 100 100 100 71 87 98 100 100 100 100 100 90 46 44 17 81 82 47 12 6 50 100 100 68 22 71 99 100 84 67 66 71 81 98 100 100 100 100 100 100
100 100 100 100 100 100 100 100 100 100 100 100 100 100 100 100 100 29 93 100 100 100 100 100 44 65 17 11 10 12 16 5 5 5 5 5 6 30 14 57 30 40 27 65 88 95 100 100 100 100 100 100 100 100
100 100 100 100 100 100 100 100 100 100 100 100 100 100 100 100 100 100 100 100 100 100 100 80 33 85 98 100 99 95 69 7 5 5 5 5 5 17 71 75 71 6 27 54 66 64 24 17 38 97 100 100 96 36
100 100 100 100 100 100 100 100 100 100 100 100 100 100 100 100 100 100 100 100 100 100 100 100 93 100 88 94 83 72 55 97 100 67 16 8 5 37 42 49 52 38 82 68 63 17 9 7 6 81 100 100 100 93
99 100 100 100 100 100 100 100 100 100 100 100 100 100 100 100 100 100 100 100 100 100 100 92 99 87 100 100 99 85 94 73 81 87 100 100 100 72 72 59 55 95 78 7 5 23 63 11 22 26 5 28 100 95
98 93 44 100 100 100 100 100 100 100 100 100 100 100 100 100 100 100 100 100 100 100 100 100 100 100 100 100 98 65 78 100 98 87 64 92 97 100 96 99 74 72 65 37 68 61 59 57 32 59 44 98 91 90
45 29 48 93 91 89 100 78 100 100 100 100 100 100 100 100 100 100 100 100 75 89 100 100 81 81 92 100 100 100 96 100 100 100 64 10 100 100 100 100 100 100 68 100 99 100 100 68 64 68 5 5 24 13
68 47 67 97 98 53 56 67 98 100 100 100 100 100 100 100 100 100 100 100 100 100 100 100 100 100 100 100 100 100 85 87 95 100 100 84 45 49 62 71 96 78 80 100 83 48 72 100 67 55 14 17 37 78
78 70 88 55 5 6 5 5 8 12 85 100 100 100 100 100 100 100 100 100 100 100 100 100 100 100 100 100 100 99 100 87 100 100 100 80 41 81 58 93 100 59 60 76 58 67 61 61 89 93 78 55 59 54
33 40 86 83 21 34 4 5 16 25 5 6 36 70 34 46 68 58 82 87 100 100 100 100 100 98 100 96 86 100 100 100 100 100 100 100 72 26 6 43 99 26 7 37 26 59 95 96 100 100 100 91 58 5
84 77 70 50 22 8 5 0 3 4 1 5 5 4 2 7 67 5 7 35 64 64 60 66 85 80 94 100 96 88 50 90 100 99 100 99 100 58 57 56 57 60 17 18 8 80 96 93 100 99 78 91 61 25
83 67 36 44 5 5 3 3 5 29 33 12 12 12 5 7 5 45 45 64 43 14 22 100 100 100 100 60 59 95 62 24 5 5 51 97 99 67 25 12 5 5 12 64 89 56 65 89 88 97 74 65 65 58
20 6 11 5 5 5 5 13 44 5 42 14 60 20 5 34 5 5 18 19 7 24 20 56 78 89 21 16 19 38 10 5 6 72 97 96 76 49 31 20 5 23 66 97 100 100 100 98 88 84 76 80 79 84
67 5 6 6 5 39 31 5 31 5 26 24 5 73 6 6 5 5 78 38 42 22 19 19 5 32 30 96 96 36 53 72 98 100 100 66 68 30 7 36 42 86 99 100 100 94 92 99 87 76 75 62 52 69
88 63 62 50 79 86 32 62 86 50 28 37 10 6 11 9 5 57 97 35 6 100 97 13 60 99 74 55 94 94 90 67 98 94 95 91 100 100 100 100 99 98 100 100 100 98 94 86 78 80 81 82 84 86

GFSWCAN_prec_cloud_057.txt.gz
Cloud_Cover
100 99 96 100 100 100 100 100 88 5 5 5 18 11 5 45 85 90 100 100 100 100 100 100 100 100 100 95 6 7 5 5 15 100 96 100 92 97 93 97 87 81 100 100 95 81 99 85 78 96 100 100 100 100
91 100 100 100 100 100 100 100 89 6 5 5 5 60 63 88 94 100 98 99 90 99 100 100 100 100 100 96 75 37 5 5 5 31 100 86 63 100 87 100 100 80 45 69 15 16 61 65 94 100 96 95 100 100
100 100 100 100 100 93 94 100 85 19 6 5 15 88 100 91 88 100 100 100 100 100 100 100 100 100 100 100 95 36 14 37 92 47 99 100 75 62 78 84 58 57 94 67 37 67 76 96 100 100 95 71 87 100
100 100 100 98 47 100 92 100 100 100 8 7 69 100 100 100 99 63 100 100 95 87 78 77 94 32 95 95 88 91 63 84 91 88 87 98 99 51 71 100 66 41 49 58 45 53 90 94 100 100 86 68 68 100
100 100 100 100 100 100 100 100 100 99 100 14 39 99 100 98 93 100 98 37 94 91 100 53 85 100 100 100 100 100 100 100 100 100 100 100 98 92 56 100 100 100 100 100 40 85 7 100 100 100 79 78 63 96
100 100 100 100 100 100 100 100 100 100 7 5 63 97 100 100 98 100 92 10 59 99 99 95 97 100 100 100 100 100 100 100 100 100 100 100 100 100 81 100 99 100 100 80 35 47 26 73 78 73 71 71 56 34
100 100 100 100 100 100 100 100 100 42 5 5 42 100 100 100 100 65 6 74 90 100 100 100 100 100 100 100 100 100 100 100 100 100 100 94 100 100 100 100 58 100 100 60 77 62 55 64 57 88 77 62 35 42
100 100 100 100 100 100 100 100 81 5 75 42 100 100 100 100 84 100 83 99 96 100 100 100 100 100 100 99 100 100 100 100 100 100 100 97 100 100 100 76 54 100 100 100 43 69 81 100 91 69 70 64 55 47
100 100 100 100 100 100 100 77 5 5 43 75 100 100 100 88 99 100 100 100 100 100 100 100 100 100 99 100 98 100 100 100 100 100 100 100 100 100 98 88 92 100 100 98 81 53 65 100 95 100 100 98 73 98
100 100 100 100 100 100 100 98 38 65 78 100 100 100 100 100 100 100 100 100 100 100 100 100 100 100 92 84 91 100 100 100 100 100 100 100 100 95 100 63 99 67 77 80 100 63 100 90 98 100 100 100 100 99
100 100 100 100 100 100 98 58 39 92 98 100 100 100 100 100 100 100 100 100 100 100 100 99 100 100 100 100 100 100 100 100 100 100 100 100 100 100 100 100 100 100 98 100 80 100 100 96 99 93 96 100 100 100
100 100 100 100 100 100 100 82 68 95 98 100 100 100 100 100 100 100 100 100 100 90 98 100 88 100 94 100 98 100 100 100 100 100 100 100 100 100 100 99 100 49 86 100 100 100 100 100 100 100 100 100 100 100
100 100 100 100 100 100 98 99 100 100 100 100 100 100 100 100 100 100 99 95 100 100 99 100 98 100 94 97 100 100 100 100 100 100 100 100 100 100 100 100 100 98 90 100 100 100 100 100 100 100 100 100 100 100
100 100 100 100 100 100 100 100 100 100 100 100 100 100 100 100 100 100 93 81 88 100 100 100 98 100 92 97 100 100 100 100 100 100 100 100 100 100 100 100 90 100 100 100 100 100 93 100 100 100 100 100 100 100
100 100 100 100 100 100 100 100 100 100 100 100 100 100 100 100 100 100 100 100 100 100 100 100 100 100 99 100 100 100 100 100 100 99 100 100 100 100 100 100 100 100 100 100 100 100 100 100 100 100 100 100 100 100
100 100 100 100 100 100 100 100 100 100 100 100 100 100 100 100 100 100 100 100 100 100 100 100 100 94 99 88 100 99 99 73 27 47 33 100 99 100 100 100 100 100 100 100 100 100 100 100 100 100 100 100 100 100
100 100 100 100 100 100 100 100 100 100 100 100 100 100 100 100 100 100 100 97 99 100 100 100 100 91 80 100 92 96 43 5 5 45 38 100 100 33 51 85 100 100 100 100 100 100 100 100 100 100 100 100 100 100
100 100 100 100 100 100 100 100 100 96 83 100 100 100 100 100 100 100 100 100 98 100 100 100 87 100 100 100 80 6 58 81 66 35 30 48 100 100 94 84 51 29 49 49 92 99 100 100 100 100 100 100 100 100
100 100 100 100 100 96 99 99 100 100 100 100 100 100 100 100 100 100 100 100 100 100 98 95 100 70 61 52 11 73 94 66 8 5 5 5 82 88 95 68 80 67 52 29 40 61 83 88 100 100 100 100 100 100
100 100 100 100 99 100 100 100 100 98 100 100 100 100 100 100 100 100 100 100 73 91 97 100 91 29 59 19 50 20 14 9 9 5 5 5 5 39 14 46 18 22 26 35 49 61 66 68 76 83 89 94 100 100
100 100 100 100 100 100 100 100 100 100 100 100 100 100 100 100 100 100 100 100 97 100 100 99 48 40 100 95 99 89 91 56 8 9 7 33 5 10 69 78 85 6 5 6 18 44 69 72 85 98 100 100 100 100
100 100 100 100 100 100 100 100 100 100 100 100 100 100 100 100 100 100 100 100 100 100 100 100 100 100 100 100 96 89 54 43 49 91 70 28 47 71 71 64 57 5 21 31 59 18 5 39 5 25 60 6 29 59
94 70 100 100 100 100 100 100 100 100 100 100 100 100 100 100 100 100 100 100 100 100 88 74 87 96 100 100 99 60 66 98 98 80 95 98 85 62 71 56 82 100 100 89 23 20 37 8 5 15 57 30 61 87
85 99 100 100 100 100 100 100 100 100 100 100 100 100 100 100 100 100 100 100 100 100 100 97 99 96 93 100 84 60 78 100 59 100 100 100 69 65 47 86 39 40 100 100 100 100 97 89 85 62 65 64 31 53
100 100 100 100 100 26 89 100 100 100 100 100 100 100 100 100 100 100 100 100 100 100 100 100 100 100 99 84 68 82 100 84 97 85 79 100 100 100 100 100 99 97 35 94 99 100 100 100 65 82 96 96 66 51
100 100 100 100 100 76 61 17 99 100 100 100 100 100 100 100 100 100 100 100 100 100 100 100 94 92 100 100 100 98 100 100 100 100 100 100 100 100 72 74 78 49 100 100 100 100 95 72 62 57 44 41 35 47
100 100 100 74 6 7 5 6 9 43 100 100 100 100 100 100 100 100 100 100 100 100 100 100 100 100 96 98 100 100 100 100 100 100 100 100 96 98 100 100 100 100 52 30 56 100 95 31 59 61 69 72 62 43
47 60 79 83 19 38 4 5 15 26 5 29 62 100 100 100 100 100 100 100 100 100 100 100 100 96 100 100 85 96 100 100 100 100 73 62 46 51 100 65 52 84 100 100 100 100 94 92 99 93 98 97 62 5
100 97 10 78 97 100 100 53 5 4 1 5 5 5 10 91 97 97 99 100 98 100 81 66 65 74 64 76 84 94 80 69 44 66 100 93 43 7 38 77 100 73 59 73 98 99 99 92 100 96 68 82 64 56
83 63 86 97 80 33 5 6 5 5 34 12 13 5 5 7 5 26 49 62 51 14 14 14 19 42 17 71 40 24 41 90 100 91 30 62 99 86 10 17 5 26 48 62 83 54 46 82 85 95 77 79 73 86
60 53 33 56 5 6 5 27 39 5 42 19 70 29 5 34 5 5 5 4 1 43 5 5 25 75 17 60 67 99 100 98 97 83 46 39 46 51 65 37 5 37 60 71 91 100 92 83 81 89 77 72 73 93
74 43 58 44 5 5 44 48 39 15 5 26 6 88 6 5 5 5 48 11 5 8 5 5 5 5 5 39 5 7 9 16 5 6 52 56 63 48 27 42 49 62 87 100 100 100 96 92 92 77 86 64 78 90
99 100 87 62 54 52 32 16 70 45 35 68 27 5 5 24 5 4 31 14 6 5 6 13 23 5 5 5 16 41 21 50 92 76 91 90 92 97 97 99 100 82 99 100 99 95 92 98 100 87 73 68 80 89

GFSWCAN_prec_cloud_060.txt.gz
Cloud_Cover
100 100 100 100 100 88 100 86 100 96 100 40 5 7 6 5 7 15 6 8 97 100 100 100 100 100 100 100 34 92 97 60 68 44 64 97 57 59 85 89 95 100 100 98 100 98 79 85 85 76 86 73 100 100
100 100 100 100 100 100 100 100 84 100 100 84 20 5 14 97 5 46 90 7 40 100 97 88 100 100 100 100 97 100 100 100 100 63 5 5 97 90 41 83 63 51 48 95 94 99 100 100 100 100 100 100 100 100
100 100 100 100 100 100 100 97 20 100 100 87 90 5 80 100 98 61 100 55 90 100 100 96 100 100 100 100 100 100 100 100 100 78 56 38 8 94 59 61 62 80 54 26 91 96 57 88 100 86 99 100 100 99
100 100 100 100 100 100 100 100 97 100 99 87 100 100 98 91 100 78 100 99 95 100 94 100 100 100 100 100 100 100 100 100 100 68 41 70 58 14 29 37 68 98 100 51 52 28 57 71 56 97 100 97 100 100
100 100 100 100 85 99 20 100 100 100 69 100 100 30 74 90 76 84 100 100 100 79 90 86 7 2 18 100 100 100 100 100 100 92 39 95 90 57 16 84 97 100 100 97 5 5 5 22 73 100 100 98 99 100
99 88 100 100 100 100 98 100 100 78 97 100 26 51 92 86 33 100 100 58 74 100 100 100 79 5 42 88 100 100 100 100 100 100 99 100 70 52 44 100 35 100 100 100 47 16 13 67 100 76 61 100 100 78
20 69 100 100 100 100 100 100 100 94 98 100 35 5 5 5 78 100 100 56 100 100 100 95 100 89 100 97 100 100 100 100 100 100 100 99 98 89 100 100 6 100 100 90 63 57 52 39 61 5 46 73 98 84
67 98 60 98 100 97 100 100 100 98 86 100 26 5 5 44 98 100 100 79 88 100 100 100 100 100 100 100 100 100 100 100 100 100 100 90 86 83 100 91 33 100 100 99 93 82 82 71 97 92 32 52 89 97
100 94 15 100 100 100 100 100 100 99 100 100 6 18 58 86 100 100 99 100 97 89 100 100 100 100 100 100 100 100 100 100 100 100 100 96 100 100 100 77 85 100 100 100 100 100 99 100 97 57 39 100 91 68
72 15 3 96 100 100 100 100 100 100 100 100 7 78 98 100 100 100 100 100 100 100 100 100 100 100 100 100 100 100 100 100 100 100 100 100 100 100 100 100 100 98 100 100 100 100 100 100 100 100 68 67 99 100
2 3 8 100 100 100 100 100 100 100 100 64 56 100 100 100 100 100 100 100 100 100 100 100 100 100 100 97 92 89 100 100 100 100 100 100 100 100 96 100 100 100 100 96 92 100 100 100 100 100 100 97 80 84
1 6 78 100 100 100 100 100 100 100 100 99 94 100 100 100 100 100 100 100 100 100 98 99 89 100 100 100 100 100 92 100 100 100 100 100 100 98 100 100 92 34 73 98 100 100 100 100 100 100 100 100 100 100
39 6 43 100 100 100 100 100 100 100 100 100 99 100 100 100 100 100 100 100 100 99 97 99 100 100 99 98 100 100 100 100 100 100 100 100 100 100 100 100 92 86 100 100 100 100 100 100 100 100 100 100 100 100
14 100 100 100 100 100 100 100 100 100 100 100 100 100 100 100 100 100 100 99 92 100 100 100 100 100 90 99 99 100 100 100 100 100 100 100 100 100 100 100 100 100 100 100 100 100 100 100 100 100 100 100 100 100
100 100 100 100 100 100 100 100 100 100 100 100 100 92 100 100 100 100 100 94 100 100 100 98 99 98 100 100 100 100 100 100 100 95 100 100 100 100 100 100 100 100 100 100 100 100 100 100 100 100 100 100 100 100
100 100 100 100 100 100 100 100 100 100 100 100 95 91 100 100 100 100 100 100 100 100 100 97 100 100 100 100 100 100 100 61 33 40 62 100 100 100 100 100 100 100 100 90 95 100 100 100 100 100 100 100 100 100
100 100 100 100 100 100 100 100 100 100 100 98 36 99 100 100 100 100 100 100 100 100 100 100 100 82 82 100 100 73 30 18 58 72 46 87 100 76 61 65 67 98 100 71 64 79 82 86 100 100 100 100 100 100
100 100 100 100 100 100 100 100 100 90 88 76 100 100 100 100 100 100 100 100 100 100 100 100 99 100 84 97 23 4 5 5 5 30 16 27 21 92 100 87 92 80 62 94 95 69 42 27 60 91 98 100 99 100
100 100 100 100 100 100 100 100 84 86 100 96 92 100 100 100 100 100 100 100 100 100 100 96 100 90 22 8 5 5 5 5 5 5 5 5 5 9 80 76 79 92 92 89 68 65 66 66 65 75 78 74 62 99
100 100 100 100 100 100 82 49 56 46 46 89 92 98 100 100 100 68 100 100 100 100 100 94 58 14 62 62 45 9 5 5 5 5 5 5 5 5 5 5 5 8 16 26 22 21 26 36 41 53 48 46 80 92
100 100 100 100 100 47 56 74 75 73 80 96 98 98 100 100 100 100 100 100 100 100 100 92 6 57 100 97 91 77 63 66 74 29 48 29 8 5 5 5 5 4 5 5 1 3 5 13 21 7 18 21 52 99
100 100 100 94 82 92 100 89 100 100 100 100 93 96 100 100 100 100 100 100 100 100 100 64 5 40 100 100 100 97 26 64 58 30 24 69 89 60 29 6 5 5 5 5 4 4 4 5 5 5 5 5 5 5
100 97 99 92 64 32 100 100 100 100 100 100 100 100 100 100 100 100 100 100 100 100 100 100 99 86 100 100 100 16 16 66 52 75 55 62 90 99 100 80 70 79 72 51 40 60 36 16 5 5 5 6 5 5
96 76 82 65 35 12 40 100 100 100 100 100 100 100 100 100 100 100 100 100 100 100 100 100 100 100 100 95 47 7 26 17 59 80 75 66 69 100 100 100 100 84 58 100 97 100 100 84 12 45 64 49 90 99
100 95 86 99 75 83 100 97 100 100 100 100 100 100 100 100 100 100 100 100 100 100 100 100 100 100 98 100 93 100 83 69 58 55 58 41 99 82 87 77 16 79 100 100 100 100 99 65 88 100 80 65 93 90
100 100 89 99 94 16 56 35 92 100 100 100 100 100 100 100 100 100 100 100 100 100 100 100 100 100 100 100 100 100 100 100 90 83 65 66 47 50 54 36 100 100 100 100 100 46 22 55 81 90 96 93 72 71
100 100 100 100 60 5 5 5 5 11 74 100 100 100 100 100 100 100 100 100 100 100 100 100 100 100 100 100 98 98 84 72 63 49 63 54 51 52 56 96 100 100 100 99 100 100 100 96 53 100 100 94 47 15
100 100 100 100 100 24 6 5 5 5 5 7 37 100 100 100 100 100 100 100 100 100 100 100 100 100 100 100 61 5 5 8 37 46 56 84 90 99 100 100 100 86 39 5 38 64 41 22 68 86 86 78 42 11
100 100 100 85 22 5 5 5 3 2 0 5 5 5 55 100 100 100 100 100 99 100 100 100 100 82 71 93 96 94 82 45 42 85 100 91 61 41 56 24 5 5 5 6 16 77 71 54 44 72 86 91 68 70
75 54 66 68 8 6 5 5 5 5 8 5 4 5 5 5 29 64 94 96 97 61 20 41 70 44 18 6 9 13 24 48 43 21 18 8 5 5 10 5 5 5 6 68 57 28 31 50 46 56 67 69 88 94
84 74 38 74 29 5 5 35 5 5 28 6 47 20 4 7 5 5 4 18 59 50 6 5 5 31 22 22 8 5 5 5 5 5 5 5 61 97 78 17 5 5 5 5 30 65 85 93 98 98 90 72 62 90
96 79 61 47 32 5 7 64 48 11 5 27 5 86 5 5 5 0 4 5 5 5 2 4 5 2 5 5 5 5 5 5 5 5 5 5 5 5 5 5 5 33 68 81 93 100 99 96 91 87 97 76 58 55
100 100 100 86 20 28 71 6 42 52 25 46 7 5 5 5 5 4 6 24 6 5 5 5 5 5 5 5 5 5 5 18 71 56 88 72 98 74 94 87 100 82 96 100 99 95 89 95 91 72 74 71 59 57

GFSWCAN_prec_cloud_063.txt.gz
Cloud_Cover
95 100 100 100 99 100 84 98 100 100 99 47 6 29 23 5 41 5 56 24 25 6 100 25 92 100 100 100 100 99 89 79 76 96 100 100 75 98 72 83 80 66 83 100 100 100 100 100 100 100 100 100 100 100
100 100 100 100 52 49 77 100 82 100 8 5 20 96 8 96 94 89 88 50 44 94 91 83 96 100 100 100 100 100 74 58 19 100 65 99 81 74 80 100 79 99 70 99 32 64 74 91 94 100 82 98 58 46
98 100 99 100 84 100 100 95 100 96 92 11 37 96 12 20 83 100 82 74 98 100 45 7 92 97 65 100 100 100 100 91 100 100 100 99 90 79 85 87 100 64 57 100 92 100 100 100 76 33 84 82 52 62
38 96 100 99 100 100 100 100 100 87 59 60 5 59 100 94 100 98 83 98 99 100 87 100 50 5 99 100 100 100 100 100 100 100 100 100 96 7 89 95 59 100 97 51 45 40 71 50 100 100 100 84 76 84
32 17 100 100 97 100 100 100 100 100 100 100 59 31 100 79 100 100 74 98 50 92 84 100 61 89 100 100 100 100 100 100 100 100 100 100 100 47 13 14 23 38 8 41 62 65 17 64 15 35 68 88 85 72
100 100 100 54 100 83 100 100 100 100 100 100 100 100 89 92 99 45 81 67 89 100 100 97 63 92 76 72 95 100 100 100 100 100 100 100 99 43 81 95 5 10 62 59 76 31 30 77 51 49 28 74 68 100
100 100 100 100 53 80 99 100 100 100 100 100 100 100 100 67 28 85 77 97 66 100 99 93 89 91 29 50 84 100 100 100 100 100 100 100 100 99 64 92 93 5 38 97 100 97 92 44 8 5 58 50 99 85
100 100 100 100 100 53 50 100 100 100 100 100 100 98 100 99 7 77 100 100 92 100 100 98 96 100 79 86 65 98 100 100 100 100 100 100 100 100 79 100 5 5 40 100 100 100 100 98 18 15 34 59 43 22
100 100 100 100 96 4 38 100 100 99 100 100 99 100 98 92 83 100 100 100 100 97 100 100 100 100 100 98 100 100 100 100 100 100 100 100 100 100 100 97 6 5 20 100 100 100 100 100 100 70 40 21 5 5
100 100 100 100 24 54 100 100 100 100 100 100 100 100 100 79 99 100 100 100 100 100 100 100 97 100 100 100 100 100 100 100 100 100 100 100 100 34 5 28 7 9 87 98 88 100 100 100 100 62 48 70 24 5
100 100 100 100 100 93 22 100 100 100 100 100 100 100 100 100 100 100 100 100 100 100 100 100 100 100 100 100 100 100 99 100 100 99 100 100 100 100 100 100 100 100 100 100 100 100 100 100 100 100 100 98 96 38
100 99 50 5 5 4 3 100 100 100 100 100 100 100 100 100 100 100 100 100 100 100 95 100 100 100 100 100 100 98 100 100 100 100 100 100 100 100 100 100 100 96 80 91 95 99 98 100 100 100 100 100 100 100
20 99 52 42 78 80 100 100 100 100 100 100 100 100 100 100 100 100 100 100 100 99 89 100 96 100 100 100 100 100 100 100 100 100 100 100 100 100 100 100 100 100 100 100 100 100 100 100 100 100 100 100 100 100
8 72 99 68 19 78 100 100 100 100 100 100 100 100 100 100 100 100 100 100 100 99 97 100 100 100 100 100 100 100 100 100 100 100 100 100 100 100 100 100 100 100 100 100 100 100 100 100 100 100 100 100 100 100
3 14 36 100 100 100 100 100 100 100 100 100 100 100 94 100 100 100 100 100 100 100 100 100 100 99 100 100 100 100 100 100 82 100 100 100 100 100 100 100 100 100 100 99 100 100 100 100 100 100 100 100 100 100
67 70 100 100 100 100 100 100 100 100 100 100 100 100 99 100 100 100 100 100 100 100 100 100 100 100 100 100 100 100 100 98 99 100 100 100 100 100 100 100 100 100 100 100 100 62 51 85 100 100 100 95 100 99
100 100 100 100 100 100 100 100 100 100 100 100 100 98 100 100 100 100 100 100 100 100 100 100 100 100 99 100 100 100 100 100 100 61 7 18 100 100 100 100 77 60 67 84 96 78 9 5 5 29 90 100 100 100
100 100 100 100 100 100 100 100 100 100 100 100 100 100 94 90 100 100 100 100 100 100 100 100 100 100 100 96 36 11 5 75 95 95 82 46 16 8 72 98 78 89 88 76 66 80 51 39 17 5 19 82 77 22
100 100 100 100 100 100 100 100 100 100 100 100 100 92 60 97 100 100 100 100 100 100 100 100 100 100 53 5 13 73 5 5 13 7 5 5 5 5 5 5 30 35 45 42 48 33 43 64 71 61 46 41 26 18
100 100 100 100 100 100 100 100 100 100 100 99 99 98 91 90 100 100 100 100 100 100 100 100 78 54 42 40 5 5 5 5 5 5 5 5 5 5 5 5 5 5 5 5 5 5 6 11 16 29 39 42 52 54
100 100 100 100 100 100 100 100 100 100 100 100 100 100 100 67 99 100 100 100 100 100 100 92 100 100 82 49 79 100 80 32 6 12 5 5 5 5 5 5 5 5 5 5 5 5 5 5 5 5 5 5 5 5
100 100 100 100 100 100 100 90 100 99 92 89 82 91 90 84 89 99 100 100 100 100 100 98 86 45 38 10 5 5 5 6 45 32 37 46 65 85 73 46 54 51 32 22 12 4 3 1 2 3 5 5 5 5
100 100 100 100 100 100 99 90 100 76 97 100 97 100 100 100 99 99 99 100 100 100 100 100 100 100 100 96 8 5 5 56 94 88 72 80 82 58 47 30 56 98 100 89 58 30 7 5 5 5 5 5 5 13
100 100 100 100 100 100 96 100 59 44 100 100 100 100 100 100 98 100 100 100 100 100 100 100 100 100 100 100 99 67 68 40 45 70 79 61 37 69 51 20 57 52 50 24 48 29 32 21 60 69 99 100 100 98
100 100 100 100 100 55 70 21 59 21 100 100 100 100 100 100 100 100 100 100 100 100 100 100 100 100 100 100 100 100 100 100 96 100 80 18 40 53 24 14 5 63 68 61 31 89 89 75 15 43 100 100 100 100
100 100 100 89 72 17 8 8 30 72 47 100 100 100 100 100 100 100 100 100 100 100 100 100 100 100 100 100 100 100 100 100 100 100 99 87 76 72 66 63 56 42 64 47 50 96 95 58 81 100 100 100 99 52
100 100 100 97 21 5 27 39 5 4 5 40 99 100 100 100 100 100 100 100 100 100 100 100 100 100 100 100 100 100 100 100 92 88 90 79 68 47 29 20 58 43 14 6 53 75 82 100 100 100 86 24 5 5
100 100 95 51 5 6 5 5 5 5 2 4 8 98 100 100 100 100 100 100 100 100 100 100 100 100 100 100 100 100 100 100 100 100 100 100 98 35 23 44 10 28 45 33 67 100 89 66 30 17 11 39 16 5
100 99 31 70 10 8 5 3 3 0 0 0 5 1 10 91 100 100 100 100 100 100 100 100 100 100 100 100 100 100 100 100 100 100 99 96 79 66 68 53 54 56 25 5 5 12 51 49 24 21 50 87 79 91
100 100 100 100 100 81 16 5 5 3 2 4 5 1 0 2 3 14 84 100 100 100 100 100 100 100 100 100 100 100 100 99 95 71 58 39 36 10 5 5 5 5 5 5 5 36 72 43 47 49 49 38 37 81
96 79 48 45 11 12 5 5 5 5 4 5 5 5 2 4 4 0 0 4 44 97 80 27 6 18 42 44 43 37 34 21 23 25 15 14 5 5 5 5 5 5 5 5 5 5 5 50 82 88 82 74 63 86
98 98 92 85 5 6 5 36 6 5 5 41 5 14 5 5 5 0 0 4 5 2 1 2 5 5 5 6 8 5 5 5 5 5 5 5 5 5 5 5 5 5 5 5 9 66 82 95 96 88 91 70 32 22
94 99 98 63 17 8 32 6 5 8 17 18 5 5 5 5 4 1 3 5 3 5 5 5 5 5 5 5 5 5 5 5 14 35 23 14 22 16 58 54 68 65 78 90 87 87 87 83 88 79 82 88 84 83

GFSWCAN_prec_cloud_066.txt.gz
Cloud_Cover
100 100 100 100 97 79 95 45 100 98 4 48 12 59 56 5 5 5 30 10 6 13 2 5 5 7 100 100 100 100 100 100 86 65 94 100 100 97 74 9 78 73 83 67 68 100 99 100 100 100 100 100 100 100
100 100 100 100 100 100 100 100 96 99 11 39 18 68 88 8 5 80 100 66 65 54 4 5 5 100 86 100 98 100 100 100 98 92 82 100 65 56 41 100 8 72 84 93 8 34 97 99 100 100 100 100 100 100
100 100 100 100 100 99 91 64 100 100 100 89 100 83 16 65 83 100 91 100 100 100 16 4 6 99 56 71 100 98 100 100 100 100 100 91 92 82 47 100 100 96 32 100 55 68 20 65 78 90 95 100 99 89
100 100 100 100 89 96 100 100 100 76 85 100 100 100 89 99 100 100 100 100 100 100 99 7 15 88 62 66 37 100 100 100 100 100 100 94 98 58 49 96 64 56 24 6 19 100 54 11 10 13 10 17 15 79
100 100 100 98 53 46 59 46 100 100 100 100 100 100 100 100 100 100 99 99 11 59 41 50 100 87 100 100 57 100 100 100 100 100 100 100 100 100 23 5 90 7 6 5 5 97 93 100 87 27 23 34 58 34
100 100 100 99 90 13 77 32 100 100 100 100 100 100 100 99 99 84 66 25 11 26 100 100 100 100 28 100 99 100 100 100 100 100 100 100 100 100 98 100 100 5 4 5 5 99 41 100 78 93 59 23 99 82
100 100 100 99 61 91 43 60 5 78 100 100 100 100 100 91 98 82 100 75 9 10 100 100 100 100 100 100 100 100 100 100 100 100 100 100 100 100 100 100 100 5 1 4 5 30 39 99 100 66 79 58 48 58
100 100 100 88 98 100 100 100 4 5 100 100 100 100 100 100 100 82 100 86 81 61 100 100 100 91 95 88 80 88 100 98 100 100 100 100 100 100 100 100 100 5 5 5 3 8 73 96 100 100 52 77 99 62
100 100 98 44 71 73 100 100 8 0 86 100 100 100 96 98 84 38 99 89 100 81 99 100 88 100 100 100 98 24 47 100 100 100 100 100 100 100 100 100 97 5 14 5 5 5 19 100 100 100 100 48 37 35
100 100 100 100 100 100 86 73 3 4 100 100 100 100 88 100 100 31 96 100 100 100 100 92 63 100 100 100 100 100 100 100 100 100 100 100 99 100 100 100 100 34 9 5 5 5 5 80 100 100 100 83 36 5
100 100 100 100 89 96 71 23 3 86 100 100 95 94 92 100 100 100 100 100 100 100 100 98 96 100 100 100 100 100 100 100 100 100 100 95 100 99 84 89 20 19 88 100 81 95 100 95 100 100 100 100 100 100
100 100 100 100 100 100 18 5 74 100 100 100 76 100 100 100 100 100 100 100 100 100 100 100 100 100 100 100 100 100 100 100 100 100 100 100 86 76 100 100 100 100 100 100 100 100 100 98 100 100 100 100 100 100
100 100 100 100 97 72 22 5 96 100 100 100 100 100 100 100 100 100 100 100 100 100 100 100 100 100 100 100 100 100 100 100 100 100 100 92 100 99 98 100 100 100 100 100 100 100 100 100 100 100 100 100 100 100
99 100 100 100 86 5 5 100 100 100 100 100 100 100 100 100 99 97 100 100 100 100 100 100 100 100 100 100 100 98 100 100 100 100 100 100 100 100 100 100 100 100 100 100 100 100 100 100 100 100 100 100 100 100
98 100 100 7 96 45 100 100 100 100 100 100 100 100 100 82 100 100 100 100 100 100 100 100 100 100 100 100 100 100 100 100 100 100 100 100 100 100 100 100 100 100 100 100 100 100 100 100 100 100 100 100 100 100
99 100 100 8 56 100 100 100 100 100 100 100 100 100 100 100 100 100 100 100 100 100 100 100 100 100 100 100 100 100 100 100 100 100 100 100 100 100 100 100 100 100 100 100 100 100 100 100 93 95 100 100 100 100
100 100 85 100 89 100 100 100 100 100 100 100 100 100 100 100 100 100 100 100 100 100 100 100 100 100 100 100 100 100 84 94 100 66 100 100 100 100 100 100 100 100 99 100 100 100 100 100 98 78 67 72 85 100
100 100 100 100 100 100 100 100 100 100 100 100 100 100 100 100 100 100 100 100 100 100 100 100 100 100 100 100 100 100 100 100 100 100 100 99 15 8 48 92 97 100 100 85 59 49 9 5 5 5 24 42 55 61
100 100 100 100 100 100 100 100 100 100 100 100 100 100 100 100 80 58 100 100 100 100 100 100 100 100 100 100 100 100 85 69 77 77 59 47 12 10 18 45 38 29 43 51 29 36 39 72 54 43 32 24 9 6
100 100 100 100 100 100 100 100 100 100 100 100 100 100 100 100 86 56 80 100 100 100 100 100 100 100 100 100 100 18 8 75 86 57 12 5 5 6 5 5 5 5 5 5 5 5 5 5 5 5 5 5 13 10
100 100 100 100 100 100 100 100 100 100 100 100 100 100 100 98 100 100 100 75 68 100 100 100 100 99 100 100 100 65 54 5 7 5 5 5 5 5 10 5 5 5 5 5 3 2 5 5 5 19 30 18 11 5
100 100 100 100 100 100 100 100 100 100 100 100 100 98 100 100 100 100 86 100 90 100 100 100 100 83 96 91 68 6 5 5 5 5 5 5 5 8 48 56 70 24 5 5 5 5 8 5 5 5 5 5 4 5
100 100 100 100 100 100 100 100 91 85 97 97 80 88 67 66 72 21 82 95 100 100 100 100 100 100 100 95 54 5 5 5 12 5 10 14 8 5 6 16 36 33 28 6 5 5 7 9 8 5 5 5 5 5
100 100 100 100 100 100 100 100 99 73 15 54 44 68 45 82 98 100 100 100 100 100 100 100 100 100 100 100 100 88 22 5 5 5 10 56 32 20 27 68 71 43 25 18 15 8 26 54 30 34 73 69 95 98
100 100 100 100 100 100 100 100 85 30 65 53 93 100 95 100 100 100 100 100 100 100 100 100 100 100 100 100 100 100 100 82 43 6 46 54 30 48 44 15 56 52 31 49 57 38 48 39 42 34 14 34 54 92
100 100 100 100 100 100 96 53 31 23 37 61 86 98 100 100 100 100 100 100 100 100 100 100 100 100 100 100 100 100 100 100 100 100 94 100 100 90 66 51 52 59 49 34 55 61 77 77 65 66 57 46 36 53
100 100 100 100 100 100 98 73 5 14 28 58 72 69 56 100 100 100 100 100 100 100 100 100 100 100 100 100 100 100 100 100 100 100 100 100 100 100 100 100 90 83 100 78 20 26 21 55 60 68 58 41 20 5
100 100 100 100 100 100 99 90 87 48 6 5 5 22 5 14 96 100 100 100 100 100 100 100 100 100 100 100 100 100 100 100 100 100 100 98 76 68 54 70 87 71 76 41 31 67 85 59 59 14 12 11 46 45
100 100 100 100 99 96 67 38 12 5 2 5 5 5 5 5 5 39 96 100 100 100 100 100 100 100 100 100 100 100 92 98 100 100 100 100 100 100 94 87 68 65 67 55 39 46 66 78 29 35 30 42 37 65
100 97 84 60 9 6 5 6 5 5 8 9 5 5 5 5 5 25 5 20 87 100 100 92 92 98 100 100 100 100 100 100 100 100 100 100 100 79 70 67 63 60 67 66 62 64 24 53 66 75 60 66 73 74
72 30 41 46 62 39 55 8 35 5 5 20 57 49 5 31 5 12 5 1 0 4 25 46 10 40 89 100 100 100 100 100 100 100 100 100 100 82 38 46 68 94 69 59 66 70 70 72 91 97 99 95 75 81
94 96 99 100 100 84 35 52 67 65 56 71 38 67 49 29 13 5 5 5 5 5 1 2 5 5 5 6 48 78 95 97 90 55 95 99 98 46 32 61 57 60 67 70 74 74 82 94 95 90 87 76 58 53
79 84 93 74 56 19 47 12 10 33 32 73 28 12 20 12 5 4 6 36 24 6 5 16 16 27 10 5 6 42 27 25 12 8 12 12 20 36 71 71 66 68 75 89 92 95 99 99 90 79 94 95 77 59

GFSWCAN_prec_cloud_069.txt.gz
Cloud_Cover
100 100 100 100 100 94 100 92 82 64 16 23 4 5 5 5 5 21 5 5 37 78 13 47 3 0 3 5 12 73 100 100 100 100 100 98 84 100 66 23 9 15 98 100 99 100 96 66 41 100 98 77 59 100
100 100 100 100 100 100 100 100 100 100 48 96 88 10 13 12 14 35 93 93 99 100 53 5 9 5 5 5 56 89 85 100 100 100 100 100 100 99 39 41 81 46 69 100 87 77 89 100 81 99 100 94 100 100
100 100 100 100 100 100 95 100 100 66 100 94 11 89 14 99 100 94 82 91 100 100 62 10 78 3 1 5 41 59 95 99 100 100 100 100 100 100 83 100 100 92 44 67 51 100 10 55 100 90 100 100 100 100
100 100 100 100 100 100 100 100 100 100 100 100 99 100 19 100 100 100 69 43 100 100 100 23 22 0 0 2 3 84 100 86 100 100 100 100 100 100 100 100 100 52 100 60 94 100 100 100 100 52 35 91 98 100
100 100 100 100 100 100 100 98 100 72 5 76 100 100 100 100 100 86 91 27 38 100 63 60 5 5 5 5 5 90 100 100 91 100 100 100 100 100 100 100 100 100 98 100 100 79 98 100 95 37 11 6 70 62
100 100 100 100 100 100 100 100 100 99 99 76 100 100 100 100 100 67 52 11 42 94 100 74 5 69 99 63 50 59 100 89 100 100 100 100 100 100 100 100 100 95 76 66 88 52 67 82 100 100 98 16 13 18
100 100 100 100 100 100 100 100 99 100 22 3 31 100 100 100 100 47 61 88 95 94 100 67 19 62 85 100 92 80 100 84 76 95 100 100 100 100 99 100 100 5 9 91 29 5 5 42 46 100 100 100 99 51
100 100 100 100 100 100 100 100 39 93 23 2 100 100 100 100 100 99 92 70 57 63 99 96 76 79 100 76 66 98 97 100 89 100 100 100 100 100 99 100 100 28 5 81 9 4 5 2 9 70 100 100 78 50
100 100 100 100 100 100 100 41 86 99 99 77 94 100 100 100 85 28 83 100 54 66 89 100 100 95 91 100 76 23 70 69 61 100 100 100 100 100 100 100 100 100 98 91 98 100 77 5 5 5 76 100 94 51
100 100 100 100 100 100 100 100 100 97 100 56 100 100 100 86 88 71 49 100 100 100 100 100 100 93 93 100 100 100 49 100 100 100 100 100 100 100 100 100 100 100 100 100 100 100 44 5 5 5 6 93 91 14
100 100 100 100 100 98 65 85 58 96 100 100 100 100 100 100 100 100 100 100 100 90 81 93 100 100 98 100 100 100 100 100 100 100 100 100 100 100 100 100 100 100 100 100 100 100 100 92 100 86 40 52 82 68
100 100 100 100 100 51 100 90 96 100 66 82 100 100 100 100 100 100 100 100 100 100 100 100 100 100 100 100 100 100 100 100 100 100 100 100 100 85 31 55 100 100 97 78 90 100 99 100 100 100 88 90 100 100
100 100 100 98 42 32 64 100 100 100 100 100 100 100 100 100 100 100 100 100 100 100 100 100 100 100 100 100 100 100 97 99 100 100 100 100 57 41 93 98 99 100 99 100 100 100 100 100 100 100 100 100 100 100
100 100 64 100 100 100 97 77 85 86 100 78 66 88 100 100 88 100 100 100 100 100 100 100 100 100 100 100 100 100 100 100 100 100 100 98 100 100 100 100 100 100 100 100 100 100 100 100 100 100 100 100 100 100
100 100 100 100 100 100 99 100 100 100 100 96 95 65 78 67 100 100 100 100 100 100 100 100 100 100 100 100 100 100 100 99 96 95 100 100 100 100 100 100 100 100 100 100 100 100 100 100 100 100 100 100 100 100
100 100 100 100 96 87 98 100 100 100 100 99 94 92 100 100 100 100 100 100 100 100 100 100 100 100 100 100 100 100 100 100 91 100 100 100 100 100 100 100 100 100 100 100 100 100 100 100 100 100 100 100 100 100
100 100 100 96 93 100 100 100 100 100 99 83 82 100 100 100 100 100 100 100 100 100 100 100 100 100 99 100 100 100 100 100 100 100 100 100 100 100 100 100 100 100 100 100 100 100 100 100 100 100 100 100 100 100
100 100 100 100 100 100 100 100 100 93 80 100 99 100 100 100 100 100 100 100 100 100 100 100 100 100 88 100 100 100 100 100 100 100 100 100 91 95 100 100 100 100 100 100 100 100 100 100 100 100 95 85 88 80
93 85 100 100 100 100 100 100 100 97 100 100 100 100 100 99 100 100 100 100 100 100 100 100 100 100 100 100 100 100 100 100 100 100 100 100 51 79 64 64 60 40 43 60 77 78 64 78 92 98 84 23 24 32
100 100 100 100 100 100 100 100 100 100 100 100 100 100 100 100 100 100 100 96 93 100 100 100 100 100 98 98 100 95 100 100 100 100 100 100 65 94 48 49 12 7 6 6 5 5 5 5 6 17 8 5 5 8
100 100 100 100 100 100 100 100 100 100 100 100 100 100 100 100 100 100 100 100 95 96 95 100 100 100 100 96 90 93 100 100 100 100 100 100 85 14 25 55 61 6 11 11 32 5 5 5 5 6 31 5 5 5
100 100 100 100 100 100 100 100 100 100 100 100 100 100 100 100 100 100 97 100 100 54 30 49 99 100 58 96 83 98 82 76 64 82 78 48 5 5 23 6 5 5 5 7 5 6 7 6 5 5 5 9 5 5
100 100 100 100 100 100 100 100 100 100 100 100 100 100 100 100 100 81 98 74 37 9 11 10 99 100 100 100 80 16 44 62 38 67 23 21 10 5 19 8 5 32 39 32 16 43 19 5 5 5 5 5 5 5
100 100 100 100 97 100 100 100 100 100 100 100 100 98 88 83 61 90 78 76 19 27 46 69 76 100 100 100 100 100 99 100 44 89 61 24 5 5 5 5 5 6 5 19 19 29 10 5 6 6 13 5 21 10
100 100 100 100 100 100 100 100 100 100 100 94 51 50 27 64 62 96 34 63 98 100 100 100 100 100 100 100 100 100 100 100 100 69 22 19 5 7 26 8 7 24 60 51 51 55 59 64 47 26 31 47 43 55
100 100 100 100 100 100 100 100 100 100 100 73 52 55 77 54 33 33 100 100 100 100 100 100 100 100 100 100 100 100 100 100 100 90 71 69 81 88 84 72 66 85 72 59 66 61 61 61 61 58 65 80 76 73
100 100 100 100 100 100 100 100 100 100 100 99 60 79 27 6 19 26 44 100 100 100 100 100 100 100 100 100 100 100 100 100 100 100 100 100 98 94 87 84 97 100 100 98 78 65 52 59 54 31 53 73 56 48
100 100 100 100 100 100 100 100 100 100 100 100 21 23 5 5 5 5 7 7 78 100 100 100 100 100 100 100 100 100 100 100 100 100 100 100 100 100 100 100 95 81 100 98 82 79 81 80 96 98 91 54 58 59
100 100 100 100 100 100 100 100 100 100 55 25 23 5 5 5 6 5 5 6 40 6 75 100 100 100 100 100 100 100 100 100 100 100 100 100 100 84 97 100 100 99 61 83 90 91 94 90 85 63 63 72 48 51
100 100 100 100 100 100 100 100 100 100 98 63 12 5 5 5 5 26 5 5 5 3 4 13 68 90 100 100 100 100 100 100 100 100 100 100 100 100 98 99 100 100 100 73 66 90 96 100 100 96 90 94 76 71
100 100 100 100 100 100 79 52 61 49 37 20 48 20 5 28 5 5 5 1 0 1 5 2 2 5 9 29 66 100 100 96 99 100 95 100 100 100 88 59 75 87 98 100 100 100 94 96 96 96 99 100 85 80
100 100 92 75 69 70 49 42 83 76 61 99 11 59 34 6 8 5 7 10 5 5 1 2 5 2 5 33 43 38 9 48 54 56 17 74 65 61 95 93 64 55 37 56 63 67 74 83 94 100 100 92 69 63
95 95 97 78 26 7 5 50 9 36 35 85 47 45 63 10 3 4 30 41 20 13 14 20 48 13 23 8 32 41 29 37 66 5 5 5 43 56 69 79 57 54 42 67 78 91 100 100 100 100 95 79 69 66

GFSWCAN_prec_cloud_072.txt.gz
Cloud_Cover
100 99 100 99 95 66 100 100 100 95 100 32 79 6 5 5 5 18 5 5 24 48 5 4 5 5 5 5 5 3 28 99 100 100 100 100 100 47 8 5 12 45 100 100 100 100 89 95 100 99 44 23 31 46
100 100 100 100 100 100 100 100 100 100 87 74 93 8 17 6 93 43 99 20 100 100 97 61 34 5 5 5 83 12 5 100 100 100 100 100 100 100 92 6 5 71 24 75 100 100 100 100 100 100 100 100 100 100
100 100 100 100 100 100 100 100 98 23 90 75 99 99 34 100 87 77 77 100 96 100 98 89 3 5 4 0 2 69 5 85 100 100 100 100 100 100 100 100 14 5 34 91 59 100 100 84 100 100 100 100 100 100
100 100 100 100 100 100 100 99 71 7 88 79 58 100 84 100 100 97 76 84 79 100 100 31 3 5 5 5 5 4 0 5 75 100 100 100 100 100 100 100 100 45 38 5 14 99 100 100 33 44 100 100 100 100
100 100 100 100 100 100 100 100 100 98 100 62 61 31 6 98 100 81 100 20 44 88 93 61 5 0 2 5 1 64 24 8 63 100 100 99 100 100 100 100 100 100 100 64 34 91 99 100 87 66 70 100 96 100
100 100 100 100 100 100 100 100 100 100 100 96 7 5 5 93 100 100 95 5 70 100 100 80 1 2 5 5 5 53 100 100 66 93 92 99 100 100 100 100 100 100 100 100 100 100 100 100 99 100 83 92 73 100
100 100 100 100 100 100 100 100 100 100 92 39 70 56 93 100 100 97 99 44 20 93 100 81 7 5 5 6 75 100 100 100 93 100 99 100 100 100 100 100 100 100 100 100 100 100 100 94 47 94 99 100 100 100
100 100 100 100 100 100 100 100 100 100 100 85 83 97 96 100 100 100 100 96 88 98 94 100 52 5 46 93 94 100 96 100 100 96 71 99 100 100 100 100 100 84 100 100 100 100 100 100 93 16 5 42 91 82
100 100 100 100 100 100 100 100 100 98 84 100 95 100 100 100 100 100 71 81 98 85 100 100 78 48 46 100 100 100 97 98 56 91 100 100 100 100 100 100 100 99 92 100 97 90 100 91 59 77 62 26 6 68
100 100 100 100 100 100 100 100 78 100 100 93 100 100 100 99 32 70 100 100 100 100 100 100 45 51 67 100 100 100 100 100 100 52 86 100 97 100 98 100 100 100 97 90 76 86 100 100 70 98 96 5 5 5
100 100 100 100 100 100 100 100 98 100 100 100 100 100 100 100 100 100 96 100 100 82 76 100 99 81 100 94 100 100 100 100 100 92 100 100 100 100 100 100 100 100 96 91 100 100 100 100 100 100 90 59 26 8
100 100 100 100 100 100 100 100 100 92 90 99 99 100 100 100 100 100 100 93 80 62 100 100 100 100 100 100 100 100 100 100 100 100 100 100 100 100 100 100 100 100 100 100 100 100 100 100 100 100 100 100 100 72
100 100 100 100 100 100 100 100 100 80 98 100 99 100 100 100 100 100 94 66 68 75 100 100 100 100 100 100 100 100 100 100 100 100 100 100 100 100 100 100 100 100 100 100 100 100 100 100 100 97 100 100 100 100
100 100 100 100 100 100 89 100 100 100 100 100 99 98 100 88 47 5 5 67 99 100 100 100 100 100 100 100 100 100 100 100 97 99 84 93 74 90 99 83 100 100 100 100 100 100 100 100 100 100 100 100 100 100
100 100 100 100 100 100 100 100 100 88 100 100 99 67 71 6 35 94 100 100 100 100 100 100 100 100 100 100 100 99 100 99 85 90 100 100 100 100 100 100 100 100 100 100 100 100 100 100 100 100 100 100 100 100
100 100 100 100 100 100 100 100 100 100 100 100 97 93 87 87 60 100 100 100 100 100 100 100 100 100 100 100 96 100 100 100 100 98 100 99 100 100 100 100 100 100 100 100 100 100 100 100 100 100 100 100 100 100
100 100 100 100 100 100 100 100 100 100 99 100 97 89 40 56 16 98 100 100 100 100 100 100 100 92 100 100 96 99 100 97 100 100 100 100 100 100 100 100 100 100 100 100 100 100 100 100 100 100 100 100 100 100
100 100 100 100 100 100 100 100 100 75 95 62 74 5 42 5 29 88 98 100 100 100 100 100 100 100 100 100 100 99 100 100 100 100 100 100 100 99 97 100 100 100 100 100 100 100 100 100 100 100 100 100 100 100
100 100 100 100 100 100 100 100 100 92 56 44 34 22 13 7 17 57 99 100 100 100 100 100 100 100 100 100 100 100 100 100 100 100 100 100 100 99 99 94 100 95 100 100 97 100 100 100 100 100 100 100 100 100
100 100 100 100 100 100 100 99 94 100 78 26 33 58 12 13 69 100 100 100 100 100 100 100 100 100 100 100 100 100 91 100 100 100 100 100 100 100 88 45 48 56 44 30 45 37 21 28 30 34 41 56 72 54
100 100 100 100 100 100 100 94 99 64 74 72 71 41 32 82 100 100 100 100 100 100 100 95 100 100 100 100 100 100 100 100 100 100 100 100 100 100 61 56 64 49 30 5 9 20 13 22 33 8 52 64 64 75
100 100 100 100 100 100 100 100 100 100 97 92 99 100 100 100 100 100 100 98 100 60 96 86 70 100 100 100 100 100 100 100 100 100 100 96 100 97 57 54 66 23 13 39 43 44 11 5 5 5 5 9 11 28
100 100 100 100 100 100 100 100 100 100 75 97 100 100 100 100 100 100 100 100 100 100 32 86 66 64 93 100 100 100 100 100 100 100 100 100 100 100 91 70 57 34 8 14 24 48 26 35 72 72 33 13 34 31
100 100 100 100 100 100 99 98 93 88 100 100 100 100 100 100 100 100 100 100 68 58 37 7 56 10 45 75 98 100 100 100 100 100 100 98 92 72 64 36 8 6 5 7 28 33 58 89 67 21 5 5 11 40
100 100 100 96 100 100 91 100 100 100 100 100 100 100 100 100 100 97 80 7 60 47 5 38 68 95 100 100 100 100 100 100 100 100 100 89 51 32 6 36 18 55 38 60 41 38 59 36 34 38 15 36 29 11
100 100 77 100 100 100 100 100 100 100 100 100 100 100 100 100 84 14 9 5 32 5 24 65 100 100 100 100 100 100 100 100 100 100 100 100 97 82 57 38 61 54 5 5 13 18 24 17 46 66 66 65 55 63
100 100 100 100 100 100 100 100 100 100 100 100 100 100 94 66 32 16 5 26 8 5 16 97 100 100 100 100 100 100 100 100 100 100 100 100 100 100 96 92 74 46 70 66 61 14 37 69 58 45 15 58 61 30
100 100 100 100 100 100 100 100 100 100 100 100 100 100 100 100 98 14 5 5 5 19 6 5 60 100 100 100 100 100 100 100 100 100 100 100 100 100 100 100 100 98 100 95 94 84 57 72 84 65 10 5 5 27
100 100 100 100 100 100 100 100 100 100 100 100 100 100 100 100 85 5 5 9 43 7 5 10 15 15 99 100 100 100 100 100 100 100 100 100 100 98 100 100 100 100 100 98 92 76 80 100 98 38 5 8 16 60
100 100 100 100 100 100 100 100 100 100 100 100 100 100 100 80 68 24 5 9 6 1 0 5 5 5 5 28 95 100 100 100 100 100 100 100 100 56 51 78 98 100 99 74 44 58 81 81 64 82 82 85 89 84
100 100 100 100 100 100 100 100 100 100 100 100 100 100 97 74 62 8 14 4 4 5 5 3 2 6 5 6 7 32 29 30 66 86 77 99 99 57 7 5 49 62 68 65 59 53 47 82 66 88 95 98 83 90
100 100 100 100 100 100 100 100 100 100 100 100 51 96 6 6 8 5 9 22 5 5 22 4 46 5 19 39 46 14 6 43 9 27 5 47 69 57 59 47 60 59 56 58 58 57 49 49 68 88 85 100 93 72
100 100 100 100 93 76 52 53 35 46 34 72 57 32 58 12 1 4 53 6 36 55 45 23 16 46 17 39 18 41 42 55 84 7 6 5 56 52 81 64 57 48 5 49 60 71 100 100 100 100 100 100 90 81

GFSWCAN_prec_cloud_075.txt.gz
Cloud_Cover
100 100 100 100 100 100 100 100 33 71 91 100 5 5 100 81 58 5 5 73 7 33 37 59 5 83 89 62 94 25 12 58 95 100 100 100 100 100 84 44 95 19 97 100 97 100 54 3 5 5 5 5 5 5
100 100 100 100 100 100 97 99 99 100 100 78 60 12 100 100 12 15 13 5 91 100 55 7 23 9 49 6 95 100 100 34 100 100 100 100 100 100 100 35 5 5 20 9 11 41 39 5 5 5 10 8 72 98
100 100 100 100 100 96 100 100 90 100 93 97 100 85 33 49 7 36 72 30 100 100 45 58 10 0 4 61 69 80 48 5 12 100 100 95 100 100 100 91 5 5 3 8 7 79 7 6 5 5 5 8 47 100
100 100 100 100 100 100 100 100 100 100 83 100 100 86 92 62 97 100 100 98 100 100 100 15 0 1 5 11 17 5 74 67 89 100 100 90 88 100 100 100 68 4 5 5 18 29 23 54 7 9 5 23 96 100
100 100 100 100 100 100 100 100 100 100 100 100 100 100 99 85 99 95 99 91 100 100 98 49 5 0 0 5 50 5 27 100 100 100 98 100 96 100 100 100 100 100 81 5 5 5 66 74 98 100 72 35 100 100
100 100 100 100 100 100 100 100 100 100 100 100 100 100 100 56 100 100 100 38 7 91 100 82 3 3 5 5 17 80 99 100 100 100 100 95 100 100 100 100 100 100 100 72 87 91 76 20 84 100 100 100 99 100
100 100 100 100 100 100 100 100 100 100 100 100 100 34 100 99 100 100 100 100 37 100 100 68 14 10 24 6 68 100 76 94 90 100 90 14 100 100 100 100 100 100 100 100 100 100 100 100 100 100 74 100 74 79
100 100 100 100 100 100 100 100 100 100 100 96 63 99 99 100 100 100 100 82 100 100 100 100 72 5 26 100 100 100 100 100 100 85 94 99 100 25 55 72 100 100 100 100 100 100 100 100 100 100 100 100 86 63
100 100 100 100 100 100 100 100 100 100 100 89 99 85 98 100 100 100 100 100 100 98 96 93 80 16 25 79 100 100 100 100 99 88 92 58 38 94 24 99 100 100 100 99 100 100 100 100 100 100 100 100 100 100
100 100 100 100 100 100 100 100 100 100 100 100 98 100 100 99 100 52 98 100 100 100 100 100 92 97 90 100 81 99 94 74 99 100 24 60 34 70 100 100 100 100 100 100 98 100 100 100 100 100 78 100 100 53
100 100 100 100 100 100 100 100 100 100 100 94 100 100 98 99 100 100 100 99 97 89 69 100 100 100 100 100 97 100 99 99 100 92 99 100 100 100 100 84 100 100 100 100 100 100 100 100 100 100 91 87 78 69
100 100 100 100 100 100 100 100 100 100 91 93 93 100 100 100 100 100 88 94 78 30 92 96 100 100 100 100 100 100 100 100 100 100 100 100 100 100 100 100 100 100 100 100 100 100 100 100 100 100 100 100 100 100
100 100 100 100 100 100 100 100 100 100 100 100 100 100 100 100 100 100 92 90 94 7 57 100 100 100 100 100 100 100 100 100 100 100 100 100 100 100 100 100 100 100 100 100 100 100 100 100 100 100 100 100 100 100
100 100 100 100 100 100 100 100 99 100 100 100 100 100 98 89 89 5 5 5 17 93 91 100 99 100 100 100 100 100 100 100 100 100 94 100 100 100 100 100 100 100 100 100 100 100 100 100 100 100 100 100 99 98
100 100 100 100 100 100 100 100 100 100 100 100 100 91 72 6 33 69 52 81 97 100 100 100 100 100 100 100 100 98 96 100 100 94 100 100 100 100 100 100 100 100 100 100 100 100 100 100 100 94 98 100 100 100
100 100 100 100 100 100 100 100 100 100 100 100 100 100 84 81 19 78 96 100 85 100 100 100 100 100 100 100 100 100 92 100 100 100 100 100 100 100 100 100 100 100 100 92 100 100 100 100 100 100 100 100 100 100
100 100 100 100 100 100 100 100 100 100 100 100 100 99 86 87 21 32 29 99 100 100 100 100 100 100 100 100 100 89 55 85 100 100 100 100 100 100 100 100 100 100 100 100 100 100 100 100 100 100 100 100 100 100
100 100 100 100 100 100 100 100 100 100 100 100 88 41 97 29 37 92 100 100 100 100 100 100 100 100 100 100 100 100 100 92 97 100 100 100 100 100 100 100 100 100 100 100 100 100 100 100 100 100 100 100 100 100
100 100 100 100 100 100 100 100 100 100 100 100 76 74 30 95 92 14 98 100 100 100 100 100 100 100 100 100 100 100 100 100 100 100 100 100 100 100 100 100 100 100 100 100 100 100 100 100 100 100 100 100 100 100
100 100 100 100 100 100 100 100 100 100 100 100 97 74 29 20 53 21 15 45 99 100 100 100 85 52 100 100 100 100 100 100 100 100 100 100 100 100 100 100 100 100 100 95 100 98 51 79 80 65 91 97 99 100
100 100 100 100 100 100 100 100 100 100 80 49 80 26 40 74 65 49 99 86 100 100 100 100 100 100 100 100 100 100 100 100 100 100 100 100 100 100 100 100 100 100 100 85 68 51 57 20 17 52 36 17 16 54
100 100 100 100 100 100 100 100 100 98 92 73 90 79 68 86 88 99 82 94 100 100 100 100 100 100 100 100 100 100 100 100 100 100 100 100 100 100 100 96 100 100 100 80 76 44 18 35 39 36 30 22 20 36
100 100 100 100 100 100 100 100 100 100 99 71 86 80 89 97 100 86 88 96 100 100 100 100 100 96 100 100 100 100 100 100 100 100 100 100 100 94 100 100 100 100 100 99 88 56 56 55 49 64 62 82 93 82
100 100 100 100 100 100 100 100 100 89 100 100 100 99 90 98 99 98 77 96 100 100 100 100 89 11 31 80 99 100 100 100 100 100 100 100 100 100 100 99 94 100 100 100 100 100 95 41 41 63 58 97 100 100
100 100 100 100 100 100 100 100 100 100 100 100 100 100 100 100 92 99 100 100 100 100 99 71 75 47 5 8 62 58 90 98 100 100 97 100 100 100 100 100 99 78 70 88 65 88 39 53 25 25 32 60 90 58
99 97 100 100 100 68 69 72 100 100 100 100 100 100 89 99 100 100 100 100 100 97 26 8 5 5 14 6 89 100 100 100 100 100 100 100 100 100 100 100 97 100 100 76 14 8 5 5 5 5 5 5 7 5
93 87 86 98 100 100 100 100 100 100 100 100 100 100 100 100 100 100 100 100 100 16 5 20 5 5 5 34 98 100 100 100 100 100 100 100 100 97 96 100 100 100 100 97 94 68 8 5 5 5 5 5 5 5
45 90 100 100 100 100 100 100 100 100 100 100 100 100 100 100 100 100 100 98 47 93 70 11 5 5 5 48 90 100 100 100 100 100 100 100 100 100 100 100 100 100 100 100 100 100 97 92 92 82 79 74 43 53
100 100 100 100 100 100 100 100 100 100 100 100 100 100 100 95 100 100 100 100 100 93 18 5 5 5 5 5 16 79 98 100 100 100 100 100 100 100 100 100 100 100 100 100 100 100 100 100 98 98 70 44 48 42
100 100 100 100 100 100 100 100 100 100 100 100 100 100 100 100 100 100 100 98 94 84 50 6 5 5 2 5 4 5 15 21 20 65 100 76 32 14 60 85 100 100 100 100 100 92 92 82 68 90 88 94 97 93
100 100 100 100 100 100 100 100 100 100 100 100 100 100 100 100 98 39 16 23 28 7 9 5 5 13 5 5 5 24 5 20 19 5 6 50 63 42 22 34 27 54 73 98 96 100 100 96 96 100 100 99 91 95
100 100 100 100 100 100 100 100 100 100 100 100 100 93 81 93 99 80 91 88 53 5 29 60 29 5 6 52 50 54 53 13 59 52 6 32 6 20 63 65 53 59 67 65 60 56 49 52 66 61 72 92 96 82
100 100 100 100 100 100 100 100 100 100 78 68 73 75 40 17 2 4 41 5 5 5 6 10 5 21 28 51 30 48 41 72 98 63 61 55 92 59 93 61 55 55 5 50 53 53 69 96 100 100 100 100 100 99

GFSWCAN_prec_cloud_078.txt.gz
Cloud_Cover
100 100 100 100 100 100 100 100 100 100 100 100 99 40 58 62 5 27 15 72 87 100 100 25 36 5 30 10 80 41 4 84 85 93 100 91 78 100 100 100 100 100 60 90 100 100 89 21 5 4 2 5 5 5
100 100 100 100 100 100 100 100 100 100 100 72 100 100 100 100 57 5 5 5 13 88 100 9 5 5 5 9 98 100 43 6 6 89 100 100 100 100 98 100 100 100 100 98 31 18 75 48 80 28 5 5 5 5
100 100 100 100 100 100 100 100 100 100 100 100 100 100 100 100 45 7 10 67 75 100 100 37 6 45 29 5 18 99 100 6 8 99 93 72 100 100 100 100 100 58 96 94 68 66 12 88 73 17 5 5 20 97
100 100 100 100 100 100 100 100 100 100 100 100 88 100 100 60 89 67 89 47 100 99 100 64 5 5 5 3 5 5 72 66 76 95 92 90 75 95 62 94 100 66 84 84 29 98 25 7 7 62 71 15 29 35
100 100 100 100 100 100 100 100 100 100 100 93 100 100 100 100 85 99 96 47 100 100 97 90 4 5 5 5 5 5 66 76 96 98 99 60 40 32 68 96 98 100 100 44 6 18 5 5 62 100 99 65 53 42
100 100 100 100 100 100 100 100 100 100 100 100 100 100 97 85 100 100 95 80 97 100 99 76 5 2 5 5 5 9 71 46 99 86 38 6 5 44 75 80 96 98 100 85 21 71 17 5 5 49 66 100 100 85
100 100 100 100 100 100 100 100 100 100 100 100 100 100 98 100 96 100 31 100 100 99 80 67 7 1 1 6 57 52 72 73 42 96 72 44 20 100 99 81 99 100 98 100 100 59 22 20 5 5 54 87 93 82
100 100 100 100 100 100 100 100 100 100 100 100 100 100 100 100 100 99 100 100 100 100 93 99 47 5 6 79 78 70 96 100 100 86 84 75 68 22 53 28 100 100 100 100 100 100 100 100 64 52 17 5 6 5
100 100 100 100 100 100 100 100 100 100 100 100 100 100 100 100 97 79 73 100 100 77 48 82 87 53 10 46 99 100 100 99 94 99 87 100 83 59 89 100 100 100 100 89 100 100 100 100 100 100 100 100 100 100
100 100 100 100 100 100 100 100 100 100 100 100 100 100 100 100 100 99 100 100 100 100 99 99 58 72 65 82 59 91 83 78 84 100 100 95 37 29 26 92 100 100 100 97 100 100 100 100 100 100 100 100 100 100
100 100 100 100 100 100 100 100 100 100 100 100 100 95 100 100 100 100 88 97 100 93 55 79 80 96 72 96 87 94 79 90 98 94 100 78 98 100 100 85 100 66 100 100 100 100 100 100 100 100 100 100 100 100
100 100 100 100 100 100 100 100 100 100 100 100 100 100 100 100 100 98 96 96 80 53 6 23 90 100 100 100 100 96 100 100 100 100 99 100 100 100 100 77 100 84 100 100 100 100 100 100 100 100 100 100 100 100
100 100 100 100 100 100 100 100 100 100 100 100 100 100 100 100 100 100 95 84 87 14 6 100 100 86 100 100 100 100 100 100 100 100 98 100 100 100 100 100 100 97 100 100 100 100 100 100 100 100 100 100 100 100
100 100 100 100 100 100 100 100 100 100 100 100 100 100 100 100 100 96 25 5 18 95 100 100 100 85 91 100 100 100 100 100 100 80 100 100 100 100 100 100 100 100 100 100 100 100 100 100 100 100 100 100 100 100
100 100 100 100 100 100 100 100 100 100 100 100 100 100 100 100 73 84 41 46 56 100 100 79 82 100 100 100 100 100 98 100 99 87 100 100 100 100 100 100 100 100 100 100 100 100 100 100 100 100 100 100 100 100
100 100 100 100 100 100 100 100 100 100 100 100 100 100 100 100 86 81 84 100 64 99 99 100 100 100 100 100 100 100 100 100 99 100 100 100 100 100 100 100 100 100 100 100 100 100 100 100 100 100 100 100 100 100
100 100 100 100 100 100 100 100 100 100 100 100 100 100 100 99 96 59 7 21 40 90 83 98 100 93 100 100 92 100 100 100 100 100 100 100 98 100 100 100 100 100 100 100 100 100 100 100 98 90 96 98 91 100
100 100 100 100 100 100 100 100 100 100 100 100 100 100 100 100 95 100 100 74 94 100 100 86 100 96 100 84 100 100 100 100 100 100 100 100 100 100 100 100 100 100 100 100 100 100 100 100 100 100 100 100 100 100
100 100 100 100 100 100 100 100 100 100 100 100 100 100 100 100 89 28 97 100 100 100 99 100 100 100 73 30 89 95 100 100 100 100 100 100 100 100 100 100 100 100 100 100 100 100 100 100 100 100 100 100 100 100
100 100 100 100 100 100 100 100 100 100 100 100 100 100 100 91 58 97 100 100 100 100 100 100 100 37 6 23 53 76 89 81 100 100 100 100 100 100 100 100 100 100 100 100 100 100 100 100 100 100 100 100 100 100
100 100 100 100 100 100 100 100 100 100 100 100 100 98 75 88 85 66 23 77 100 100 71 18 33 100 99 100 100 98 100 100 100 100 100 100 100 100 100 100 100 84 100 100 100 100 100 100 90 22 43 5 6 54
100 100 100 100 100 100 100 100 100 100 100 100 100 96 92 95 84 92 90 94 84 45 8 6 55 84 63 100 100 100 100 100 100 100 100 100 100 100 100 100 100 100 100 100 100 100 99 100 58 22 24 5 28 22
100 100 100 100 100 96 100 100 100 100 88 91 97 96 96 100 91 82 89 67 7 14 18 31 92 97 100 100 100 96 100 100 100 100 100 100 100 100 100 100 100 100 100 100 100 100 95 100 99 36 25 37 29 50
100 100 100 100 100 100 100 100 100 100 98 99 98 96 91 81 92 99 89 6 82 95 95 100 100 100 100 100 70 9 31 57 98 100 100 100 100 100 100 100 100 100 100 100 100 100 100 100 100 83 49 80 44 89
100 100 100 100 100 100 100 100 100 100 100 99 69 79 51 91 77 98 88 41 100 100 71 84 100 100 100 100 54 5 6 5 5 12 71 58 70 98 81 76 92 98 100 100 82 78 56 57 60 41 18 13 45 28
99 100 99 100 88 80 71 96 99 61 54 61 46 68 59 76 76 86 94 99 100 95 98 100 100 100 100 40 5 5 5 5 5 23 60 67 88 100 100 100 98 100 99 92 98 90 77 97 89 55 11 14 16 5
100 95 62 31 42 5 11 57 45 38 70 94 75 84 100 100 100 100 100 100 100 100 100 100 100 100 100 54 5 5 28 53 9 80 100 94 98 100 100 100 100 100 100 100 100 100 100 100 100 100 95 88 66 54
100 89 89 99 89 67 61 72 89 99 100 76 88 100 100 100 100 100 100 100 100 100 100 100 100 100 100 100 16 5 7 54 57 58 100 100 100 100 100 100 100 100 100 100 100 100 100 100 100 100 100 100 100 100
54 99 100 88 73 98 98 99 92 97 100 100 100 100 100 100 100 100 100 100 100 100 100 97 88 45 45 7 45 14 45 44 5 5 47 94 100 100 100 100 100 100 100 100 100 100 100 100 100 100 100 100 100 100
79 41 39 78 95 88 71 100 100 100 100 100 100 100 100 100 100 100 100 100 100 100 100 100 93 62 50 20 12 5 7 6 5 5 5 4 6 8 51 83 100 100 100 100 100 100 100 100 100 100 100 100 100 100
94 100 100 99 100 100 100 100 100 100 100 100 100 100 100 100 100 100 100 100 100 100 45 21 5 15 6 17 50 66 12 29 50 11 64 36 12 33 19 12 28 60 73 99 100 100 100 91 100 100 100 99 98 98
100 100 100 100 100 100 100 100 100 100 100 100 100 100 100 100 100 100 100 100 31 6 5 65 5 5 5 19 7 29 84 51 61 8 52 49 44 13 24 61 77 63 64 63 62 60 67 83 97 97 100 92 85 87
100 100 100 100 100 100 100 100 100 100 100 100 100 100 100 100 97 85 87 51 8 5 5 8 5 17 5 7 47 48 82 88 99 97 98 92 96 60 91 82 61 64 61 66 59 29 45 64 90 98 100 91 99 100

GFSWCAN_prec_cloud_081.txt.gz
Cloud_Cover
100 100 100 100 100 100 100 100 100 100 100 100 100 100 100 100 100 97 67 6 81 6 5 0 5 17 52 54 68 32 4 19 26 99 93 98 100 79 77 50 100 100 100 83 95 100 95 100 11 5 2 5 5 5
100 100 100 100 100 100 100 100 100 100 100 100 100 100 100 100 100 100 88 33 57 17 3 5 10 33 62 16 94 99 40 36 8 9 84 62 98 94 100 98 100 100 100 82 6 84 100 97 49 5 5 5 5 5
100 100 100 100 100 100 100 100 100 100 100 100 100 100 100 100 100 100 78 66 26 100 58 28 87 53 27 36 11 95 41 31 13 70 53 94 98 92 100 97 99 100 100 88 24 28 25 64 24 14 5 5 5 71
100 100 100 100 100 100 100 100 100 100 100 100 100 99 100 100 100 96 15 24 73 87 100 81 9 5 83 25 66 5 5 11 54 97 99 82 62 45 87 96 26 100 92 89 100 100 35 42 32 99 99 78 86 10
100 100 100 100 100 100 100 100 100 100 100 100 100 100 100 100 100 100 100 100 98 98 60 54 5 6 40 96 97 6 14 97 97 100 100 99 61 15 5 6 10 5 38 57 100 92 96 7 89 100 70 24 81 82
100 100 100 100 100 100 100 100 100 100 100 100 100 100 100 100 100 100 75 17 100 7 92 72 5 5 100 32 6 33 91 100 100 100 93 88 60 56 22 98 3 4 85 99 100 99 72 46 5 86 54 85 84 77
100 100 100 100 100 100 100 100 100 100 100 100 100 100 100 100 100 100 74 60 43 22 80 86 73 71 100 100 18 71 100 100 100 99 95 48 94 100 76 49 3 100 86 98 79 98 61 84 5 6 36 65 91 100
100 100 100 100 100 100 100 100 100 100 100 100 100 100 100 100 100 100 100 100 64 79 89 98 93 100 24 91 99 87 98 95 100 80 97 77 99 84 57 65 1 54 88 99 99 100 100 88 6 41 56 36 29 100
100 100 100 100 100 100 100 100 100 100 100 100 100 100 100 100 100 100 100 100 55 30 37 63 86 90 29 68 73 100 100 88 90 83 32 81 100 71 56 20 0 54 35 98 100 100 100 100 88 46 10 8 6 12
100 100 100 100 100 100 100 100 100 100 100 100 100 100 100 100 100 100 100 100 99 100 86 74 85 100 46 6 68 92 100 74 85 5 84 95 92 100 100 11 4 28 71 99 100 100 100 100 100 100 100 100 100 100
100 100 100 100 100 100 100 100 100 100 100 100 100 100 100 100 93 100 98 93 89 69 94 91 91 100 87 92 95 96 96 89 89 49 95 84 63 100 100 79 81 100 100 100 100 100 100 100 100 100 100 100 100 100
100 100 100 100 100 100 100 100 100 100 100 100 100 100 100 100 100 77 96 62 83 44 100 78 100 100 90 100 100 100 100 100 80 94 100 100 100 100 100 100 100 100 100 100 100 100 100 100 100 100 100 100 100 100
100 100 100 100 100 100 100 100 100 100 100 100 100 100 98 92 92 100 100 98 84 100 94 96 88 100 100 100 100 100 100 100 99 84 96 100 100 100 100 100 100 100 100 100 100 100 100 100 100 100 100 100 99 100
100 100 100 100 100 100 100 100 100 100 100 100 100 100 98 100 100 100 100 100 100 97 100 100 100 73 79 100 100 100 100 100 100 98 100 100 100 100 100 100 100 100 100 100 100 100 100 100 100 100 100 100 100 100
100 100 100 100 100 100 100 100 100 100 100 99 100 100 100 100 100 100 100 100 100 100 100 100 96 71 99 100 100 100 88 90 99 99 95 100 99 100 100 100 100 100 100 100 100 100 100 100 100 100 100 100 100 100
100 100 100 100 100 100 100 100 100 100 100 100 100 100 100 100 100 100 100 100 100 100 98 67 71 94 99 100 100 82 74 82 74 100 100 100 97 100 100 100 100 100 100 100 100 100 100 100 100 100 100 100 100 100
100 100 100 100 100 100 100 100 100 100 100 100 100 100 100 99 100 100 100 100 100 100 99 93 98 97 92 95 70 29 71 64 100 100 100 99 100 100 100 100 100 100 100 100 100 100 100 100 100 100 100 100 72 35
100 100 100 100 100 100 100 100 100 100 100 100 100 100 100 100 100 100 100 100 100 100 100 72 67 80 93 87 21 13 63 100 84 100 100 99 100 100 100 100 100 100 100 100 100 100 100 100 100 100 100 100 100 86
100 100 100 100 100 100 100 100 100 100 100 100 100 100 100 100 100 100 100 100 100 100 100 99 100 100 87 34 17 27 58 100 49 84 96 100 100 100 100 100 100 100 100 100 100 100 100 100 100 100 100 100 100 100
100 100 100 100 100 100 100 100 100 100 100 100 100 100 100 100 100 100 100 100 100 100 100 100 88 8 5 5 17 62 73 80 89 99 100 100 100 100 100 100 100 100 100 100 100 100 100 100 100 100 100 100 100 94
100 100 100 100 100 100 100 100 100 100 100 100 100 100 100 100 100 100 100 100 100 100 100 19 5 5 5 34 5 47 43 55 100 100 100 100 100 100 100 100 100 100 100 100 100 100 100 100 100 100 100 100 99 58
100 100 100 100 100 100 100 100 100 100 100 100 100 100 100 100 100 99 88 99 90 42 19 8 6 5 5 10 9 61 97 48 99 100 100 100 100 100 100 100 100 100 100 100 100 100 100 100 100 100 100 93 49 34
100 100 100 100 100 100 100 100 100 100 100 100 100 100 100 98 94 90 85 72 7 5 34 32 8 17 6 39 47 75 89 63 100 100 100 100 100 100 100 100 100 100 100 100 100 100 100 100 100 100 93 100 97 89
100 100 100 100 100 100 100 100 100 100 100 100 100 99 98 78 93 92 77 30 5 57 75 27 78 73 100 99 100 100 100 100 89 96 100 70 88 100 100 100 100 100 100 100 96 97 100 100 100 100 100 100 100 99
100 100 100 100 100 100 100 100 100 99 98 98 87 84 84 97 97 100 89 6 51 59 60 97 100 100 100 100 100 100 100 100 100 95 34 25 30 59 24 94 97 98 96 90 92 83 68 84 85 99 100 100 100 100
100 100 100 100 100 100 100 100 100 72 76 100 92 77 79 58 63 22 30 6 9 28 98 100 100 100 100 100 100 100 100 89 16 30 6 6 5 5 5 5 35 93 90 89 96 93 98 100 97 100 100 99 93 81
98 100 100 100 100 94 65 53 43 42 99 81 69 94 100 94 7 5 65 56 86 100 100 100 100 100 100 100 100 88 89 85 5 6 30 51 5 5 7 58 75 75 85 100 100 100 100 100 100 100 100 100 100 100
100 100 100 94 63 64 81 82 76 72 22 16 38 48 98 63 13 49 98 100 100 100 100 100 100 100 100 100 63 36 100 100 100 86 6 5 5 5 5 46 40 100 100 96 79 98 100 100 100 100 100 100 100 100
99 65 21 95 92 76 58 24 5 5 8 33 30 90 99 75 92 100 100 100 100 100 100 100 100 77 13 6 29 52 62 46 5 21 84 44 46 11 18 63 78 74 67 100 100 100 98 100 100 100 100 100 100 100
83 50 74 85 46 25 16 33 19 52 34 66 70 96 97 100 100 100 100 100 100 100 100 100 98 45 16 16 16 5 5 16 18 5 5 5 5 28 33 7 5 20 55 58 74 100 100 100 100 100 100 100 100 83
65 42 37 24 28 53 72 60 72 89 92 100 100 100 100 100 100 100 100 100 100 100 100 97 40 45 65 84 92 88 56 39 61 32 90 49 61 29 5 5 5 48 69 66 65 61 99 94 98 100 96 99 99 91
52 78 97 90 87 99 94 91 89 95 100 100 100 100 100 100 100 100 98 100 100 95 99 100 100 100 97 41 7 19 82 85 63 28 79 96 90 58 54 23 63 88 100 99 76 65 100 100 100 100 100 100 100 84
99 100 86 81 94 98 95 100 100 100 100 100 100 100 100 100 98 99 100 100 100 100 67 10 5 5 5 7 23 28 87 74 95 97 100 100 100 100 100 99 98 100 99 97 86 77 93 82 95 96 75 82 100 100

GFSWCAN_prec_cloud_084.txt.gz
Cloud_Cover
100 100 100 100 100 100 100 100 100 100 100 100 100 100 100 100 100 100 100 100 86 90 73 6 5 2 5 20 43 68 9 30 20 97 79 81 90 91 93 93 100 100 100 100 100 100 98 100 100 5 4 5 5 5
100 100 100 100 100 100 100 100 100 100 100 100 100 100 100 100 100 100 100 94 67 21 5 5 3 3 5 80 94 38 13 5 6 11 22 5 10 64 74 86 68 98 76 96 58 41 93 100 96 5 5 5 36 78
100 100 100 100 100 100 100 100 100 100 100 100 100 100 100 100 100 100 100 100 10 69 5 5 1 2 5 68 14 96 13 5 6 26 25 87 89 63 8 91 5 100 100 99 99 100 84 100 99 7 16 90 6 5
100 100 100 100 100 100 100 100 100 100 100 100 100 100 100 100 100 100 100 95 65 38 3 5 2 7 3 90 100 23 5 9 19 33 87 92 80 21 54 12 32 100 100 97 90 100 45 74 70 74 70 83 17 5
100 100 100 100 100 100 100 100 100 100 100 100 100 100 100 100 100 100 100 100 76 27 71 35 45 46 5 97 100 79 28 100 100 98 94 100 83 41 58 5 2 73 100 83 100 100 28 95 40 12 66 92 100 99
100 100 100 100 100 100 100 100 100 100 100 100 99 100 100 100 100 100 100 100 100 100 55 30 99 100 52 50 100 77 38 93 100 96 98 89 9 80 89 80 12 1 3 6 10 11 96 35 98 100 100 100 100 99
100 100 100 100 100 100 100 100 100 100 100 100 100 100 100 100 100 100 100 100 88 100 72 64 74 6 82 97 98 20 98 100 100 100 99 92 81 100 99 63 46 13 98 79 95 50 100 100 59 76 100 100 92 91
100 100 100 100 100 100 100 100 100 100 100 100 100 100 100 100 100 100 100 100 98 12 6 86 74 10 100 66 96 100 100 99 100 92 94 96 99 96 90 88 5 2 91 100 100 100 99 100 100 100 100 40 6 80
100 100 100 100 100 100 100 100 100 100 100 100 100 100 100 100 100 100 100 100 66 42 19 67 5 5 98 30 100 98 100 100 84 96 72 74 92 100 100 100 33 89 98 100 88 98 100 97 100 100 97 9 35 15
100 100 100 100 100 100 100 100 100 100 100 100 100 100 100 100 100 100 100 100 63 100 70 6 5 100 100 84 65 92 98 99 98 67 58 97 80 83 100 100 100 40 100 67 80 95 100 100 100 100 100 60 93 85
100 100 100 100 100 100 100 100 100 100 100 100 100 100 100 100 100 100 100 100 94 90 56 27 12 100 38 60 96 56 98 91 88 40 94 72 82 98 100 100 100 58 37 100 56 100 100 100 100 100 100 100 97 67
100 100 100 100 100 100 100 100 100 100 100 100 100 100 100 100 100 100 100 95 64 22 27 5 13 93 100 100 87 80 90 99 86 85 99 78 59 100 100 100 100 100 62 100 100 100 100 100 100 100 100 95 98 100
100 100 100 100 100 100 100 100 100 100 100 100 100 100 100 100 100 100 100 82 38 6 100 61 98 100 100 100 100 96 100 99 92 97 72 64 89 100 100 100 100 100 100 100 100 100 100 100 100 100 100 100 99 100
100 100 100 100 100 100 100 100 100 100 100 100 100 100 100 100 100 100 96 46 66 71 83 100 100 86 79 100 100 100 100 100 98 90 71 51 100 100 84 100 100 100 100 100 100 100 100 100 100 100 100 100 100 100
100 100 100 100 100 100 100 100 100 100 100 100 100 100 100 100 99 33 53 82 87 100 100 100 88 84 87 90 98 99 99 66 80 100 73 96 100 68 86 100 100 100 100 100 100 100 100 100 100 100 100 99 100 100
100 100 100 100 100 100 100 100 100 100 100 100 100 100 100 100 80 93 91 100 100 100 100 57 92 73 93 89 95 47 91 63 85 79 100 86 70 56 100 100 100 100 100 100 100 100 100 100 100 100 100 96 99 100
100 100 100 100 100 100 100 100 100 100 100 100 100 100 99 85 87 96 100 100 100 100 100 100 100 99 65 86 74 8 39 24 14 98 94 86 74 53 98 100 100 100 100 100 100 100 100 100 100 100 100 100 100 100
100 100 100 100 100 100 100 100 100 100 100 100 100 94 95 96 100 100 100 100 100 100 100 100 100 98 84 70 5 5 37 49 79 99 100 100 100 99 100 100 100 100 100 100 100 100 100 100 100 100 100 100 100 100
100 100 100 100 100 100 100 100 100 100 100 100 100 100 100 100 100 100 100 100 100 100 100 96 100 97 9 5 5 5 24 59 84 52 44 23 97 100 100 100 100 100 100 100 100 100 100 100 100 100 100 100 100 100
100 100 100 100 100 100 100 100 100 100 100 100 100 100 100 100 100 100 100 100 100 100 100 88 96 68 13 5 5 5 22 92 41 26 63 15 72 100 100 100 100 100 100 100 100 100 100 100 100 100 100 100 100 100
100 100 100 100 100 100 100 100 100 100 100 100 100 100 100 100 100 100 100 100 100 100 100 86 10 5 5 5 6 8 5 5 5 55 77 24 86 95 100 100 100 100 100 100 100 100 100 100 100 100 100 100 100 100
100 100 100 100 100 100 100 100 100 100 100 100 100 100 100 100 100 100 100 100 100 100 82 8 5 5 5 5 5 5 5 5 5 48 91 100 100 100 100 100 100 100 100 100 100 100 90 98 96 100 100 100 100 100
100 100 100 100 100 100 100 100 100 100 100 100 100 100 100 100 100 100 100 100 82 15 13 8 5 5 5 5 5 5 5 5 5 15 48 52 72 93 100 100 100 100 100 100 100 100 100 92 72 89 98 92 93 96
100 100 100 100 100 100 100 100 100 100 100 100 100 100 100 100 100 100 90 54 42 9 8 5 8 5 5 5 5 5 9 92 95 97 100 100 100 46 55 72 84 100 100 100 100 100 100 100 100 77 82 78 75 96
100 100 100 100 100 100 100 100 100 100 100 100 100 100 100 100 100 98 74 30 30 8 5 5 5 5 5 11 24 7 8 23 97 100 100 100 100 100 100 100 40 5 20 6 54 97 100 100 100 90 95 99 100 100
100 100 100 100 100 100 100 100 100 100 100 100 100 100 85 70 80 54 31 7 5 5 5 6 23 9 22 38 92 100 100 100 100 100 100 100 100 100 89 5 0 0 2 5 5 5 13 80 100 88 96 100 99 94
100 100 100 100 100 100 100 100 100 100 100 100 100 100 99 70 20 5 5 5 5 14 65 78 88 99 70 72 96 100 100 100 100 100 100 100 100 57 60 29 5 5 5 5 5 44 84 100 98 84 84 100 100 100
100 100 100 100 100 100 100 100 100 100 100 100 100 100 72 9 5 15 5 6 46 60 82 98 100 100 100 100 100 100 100 100 100 100 100 99 12 30 12 5 6 15 5 5 15 43 75 80 100 100 98 87 100 100
100 100 100 100 100 100 100 100 100 100 98 100 86 25 5 6 84 38 32 78 100 100 100 100 100 100 100 100 100 100 100 100 100 96 44 53 13 4 5 5 5 5 5 5 5 5 12 62 78 81 100 100 100 100
100 100 100 100 97 100 100 100 91 90 72 55 30 5 6 50 74 100 100 100 100 100 100 96 100 100 100 100 100 100 87 46 7 5 5 4 5 5 5 5 5 5 5 9 14 8 5 18 43 96 46 53 90 100
100 99 93 85 92 82 77 52 66 64 37 15 34 52 89 100 100 100 100 100 99 100 100 100 100 100 98 92 55 27 5 39 34 30 52 69 80 62 7 5 5 23 40 70 74 78 69 12 95 100 75 5 41 26
89 96 83 62 47 85 9 24 65 79 85 100 100 100 100 100 98 100 100 99 100 100 100 100 64 37 25 5 5 5 79 86 50 7 86 100 100 84 70 53 64 88 96 99 98 98 97 100 100 100 99 66 82 100
71 64 75 83 43 27 39 38 61 95 100 100 100 100 100 90 34 26 32 69 74 48 36 36 8 5 5 45 6 26 62 55 91 92 98 100 100 100 100 97 95 81 91 96 87 94 100 100 100 100 100 99 97 78

GFSWCAN_prec_cloud_087.txt.gz
Cloud_Cover
100 100 100 100 100 100 100 100 100 100 100 100 100 100 100 100 100 100 100 100 100 87 29 12 5 5 5 5 3 85 100 37 70 100 97 96 98 80 68 50 81 93 100 100 100 100 94 99 100 66 72 100 100 25
100 100 100 100 100 100 100 100 100 100 100 100 100 100 100 100 100 100 100 100 96 75 49 60 9 6 5 5 6 99 32 6 58 61 77 28 48 35 62 79 94 98 83 90 100 99 100 94 100 100 56 100 100 81
100 100 100 100 100 100 100 100 100 100 100 100 100 100 100 100 100 100 100 100 100 100 17 49 9 3 4 2 5 93 18 48 72 16 64 66 74 5 5 5 8 69 97 94 79 96 100 88 93 36 48 5 32 77
100 100 100 100 100 100 100 100 100 100 100 100 100 100 100 100 100 100 100 100 100 91 12 8 6 5 5 3 5 5 22 83 70 30 97 97 68 53 38 26 5 6 34 50 69 88 95 100 85 49 12 5 5 5
100 100 100 100 100 100 100 100 100 100 100 100 100 100 100 100 100 100 100 100 100 68 5 12 51 5 0 3 5 5 54 100 99 94 100 99 99 87 80 83 5 1 1 5 54 100 100 96 94 100 79 49 8 41
100 100 100 100 100 100 100 100 100 100 100 100 100 100 100 100 100 100 100 100 71 6 18 5 41 5 2 5 87 12 100 100 71 99 98 99 99 95 100 93 5 20 5 7 19 92 90 100 88 83 94 69 61 52
100 100 100 100 100 100 100 100 100 100 100 100 100 100 100 100 100 100 100 100 82 31 48 100 18 4 5 27 40 94 96 99 97 100 99 99 100 99 100 88 60 51 49 46 75 100 100 43 100 100 98 100 96 89
100 100 100 100 100 100 100 100 100 100 100 100 100 100 100 100 100 100 100 100 82 100 100 21 10 5 10 93 100 77 100 100 82 100 93 98 91 98 91 79 100 98 90 4 10 91 100 88 98 100 100 98 100 98
100 100 100 100 100 100 100 100 100 100 100 100 100 100 100 100 100 100 100 100 100 100 95 14 5 15 5 65 100 94 100 91 91 98 99 98 100 84 66 97 100 99 100 24 6 38 83 46 100 100 100 100 100 88
100 100 100 100 100 100 100 100 100 100 100 100 100 100 100 100 100 100 100 100 100 100 98 7 20 66 38 92 100 97 100 94 100 100 100 100 65 5 99 100 100 100 100 42 5 54 87 84 100 100 100 100 100 100
100 100 100 100 100 100 100 100 100 100 100 100 100 100 100 100 100 100 100 100 100 100 94 22 58 91 65 98 100 90 100 100 100 93 100 100 74 45 100 100 100 100 95 75 95 17 77 100 100 100 100 100 100 100
100 100 100 100 100 100 100 100 100 100 100 100 100 100 100 100 100 100 100 100 100 100 100 100 77 49 77 68 99 98 88 91 100 92 100 90 21 100 100 100 100 100 100 97 100 84 87 100 100 100 100 100 100 98
100 100 100 100 100 100 100 100 100 100 100 100 100 100 100 100 100 100 100 100 100 100 97 100 94 75 99 92 100 97 100 98 92 100 75 38 100 100 100 100 100 100 100 100 100 100 100 100 100 100 100 100 100 100
100 100 100 100 100 100 100 100 100 100 100 100 100 100 100 100 100 100 100 100 100 100 84 95 68 90 100 100 100 97 80 95 100 97 87 98 100 96 100 100 100 100 100 100 100 100 100 100 100 100 100 100 100 100
100 100 100 100 100 100 100 100 100 100 100 100 100 100 100 100 100 100 100 100 100 100 100 84 79 100 99 84 100 91 98 91 77 76 76 45 59 16 60 100 100 100 100 100 100 100 100 100 100 100 100 100 100 99
100 100 100 100 100 100 100 100 100 100 100 100 100 100 100 100 100 100 100 100 100 84 41 20 68 100 100 100 94 97 99 63 66 97 65 74 23 5 19 98 100 100 100 100 100 100 100 100 100 100 100 100 100 96
100 100 100 100 100 100 100 100 100 100 100 100 100 100 100 100 100 100 100 100 91 100 87 98 100 83 86 100 89 22 62 37 77 80 75 72 64 5 5 29 100 100 100 100 100 100 100 100 100 100 100 100 100 100
100 100 100 100 100 100 100 100 100 100 100 100 100 100 100 100 100 100 100 100 98 74 36 88 79 100 98 78 16 8 23 96 41 32 58 40 58 39 6 19 100 100 100 100 100 100 100 100 100 100 100 100 100 100
100 100 100 100 100 100 100 100 100 100 100 100 100 100 100 100 100 100 97 97 93 95 99 100 97 100 47 9 70 21 18 5 5 5 9 5 8 20 5 5 100 100 100 100 100 100 100 100 100 100 100 100 100 100
100 100 100 100 100 100 100 100 100 100 100 100 100 100 100 100 100 100 99 99 100 100 100 82 100 80 48 84 95 9 6 15 40 22 5 5 5 5 5 5 92 100 100 100 100 100 100 100 100 100 100 100 100 100
100 100 100 100 100 100 100 100 100 100 100 100 100 100 100 100 100 100 100 100 100 100 100 100 100 100 100 68 86 54 5 5 5 5 5 5 5 5 47 77 84 100 100 100 100 100 100 100 100 100 97 85 97 100
100 100 100 100 100 100 100 100 100 100 100 100 93 100 100 100 100 100 100 100 100 100 100 100 100 100 78 85 15 9 5 5 5 5 5 5 5 11 95 100 100 100 100 100 100 100 100 100 100 100 98 94 99 99
100 100 100 100 100 100 100 100 100 100 100 100 100 100 100 100 100 100 100 100 100 100 100 100 92 36 62 44 16 5 5 5 5 5 12 5 5 50 94 100 100 100 100 100 100 100 100 100 100 100 100 100 99 97
100 100 100 100 100 100 100 100 100 100 100 100 100 100 100 100 100 100 100 100 100 100 83 63 48 93 77 17 5 5 5 5 5 5 5 5 14 48 88 100 100 87 89 98 100 100 100 100 100 100 100 100 100 100
100 100 100 100 100 100 100 100 100 100 100 100 100 100 100 100 100 100 100 100 99 90 87 41 83 55 28 9 5 5 5 5 5 58 95 100 100 100 100 100 100 100 100 96 85 21 55 48 53 86 100 100 97 100
100 100 100 100 100 100 100 100 100 100 100 100 100 100 100 100 100 100 100 99 100 86 99 76 7 5 5 5 5 5 5 4 39 100 100 100 100 100 100 100 100 100 100 100 74 6 5 5 5 5 5 5 25 62
100 100 100 100 100 100 100 100 100 100 100 100 100 100 100 100 100 100 100 100 97 74 58 70 73 25 5 5 5 6 53 48 88 100 100 100 100 100 100 100 100 100 100 100 100 98 74 28 5 5 5 5 10 48
100 100 100 100 100 100 100 100 100 100 100 100 100 100 100 100 100 100 100 100 81 55 92 69 40 6 10 94 99 73 63 99 100 100 100 100 100 100 82 86 100 100 100 100 100 100 100 72 75 18 5 5 5 18
100 100 100 100 100 100 100 100 100 100 100 100 100 100 100 100 100 95 41 25 38 20 14 5 5 15 70 61 41 83 100 100 100 100 100 100 100 54 7 5 6 25 40 17 20 5 6 9 13 35 16 27 37 16
100 100 100 100 100 100 100 100 100 100 100 100 100 100 100 100 87 75 24 6 12 14 12 5 5 5 5 56 100 100 100 100 98 58 52 57 52 70 95 71 27 5 6 22 12 5 5 5 5 33 84 69 5 5
100 100 100 100 100 100 100 100 100 100 100 100 100 100 98 86 42 32 50 25 16 5 5 5 14 32 49 61 99 98 69 21 37 14 19 34 54 56 21 17 5 73 98 100 96 89 81 64 38 97 96 88 21 5
93 100 100 100 100 100 100 100 100 100 100 86 82 66 79 70 46 6 5 5 5 5 6 42 94 72 84 100 63 10 40 38 11 5 5 38 76 71 68 19 39 84 100 100 100 100 100 98 93 99 98 99 89 70
100 100 100 100 95 98 99 100 99 99 96 88 69 19 5 5 1 1 4 5 5 8 27 61 47 22 5 5 5 8 50 18 68 94 100 100 100 100 100 96 88 98 99 90 99 100 100 100 97 91 88 92 91 87

GFSWCAN_prec_cloud_090.txt.gz
Cloud_Cover
7 100 100 100 100 100 100 100 100 100 100 100 100 100 100 100 100 100 100 100 100 100 99 37 14 54 13 5 5 3 3 3 15 49 83 91 89 47 7 64 88 79 80 74 87 100 100 100 99 83 75 93 100 69
98 100 100 100 100 100 100 100 100 100 100 100 100 100 100 100 100 100 100 100 100 100 100 75 80 100 5 5 5 4 5 3 5 32 37 5 5 23 19 9 49 46 86 88 90 99 100 100 100 97 72 91 100 100
100 100 100 100 100 100 100 100 100 100 100 100 100 100 100 100 100 100 100 100 100 100 100 100 100 81 5 5 7 5 5 5 5 5 5 5 5 5 5 5 2 4 29 67 20 99 100 100 27 27 43 92 100 100
100 100 100 100 100 100 100 100 100 100 100 100 100 100 100 100 100 100 100 100 100 100 100 100 92 47 5 5 5 5 5 5 5 5 32 81 14 23 5 6 5 0 2 4 15 22 82 87 78 61 88 12 91 100
100 100 100 100 100 100 100 100 100 100 100 100 100 100 100 100 100 100 100 100 100 100 96 100 95 5 5 5 84 5 5 72 98 52 46 54 64 28 58 38 5 2 3 2 6 51 49 99 94 70 100 98 100 100
100 100 100 100 100 100 100 100 100 100 100 100 100 100 100 100 100 100 100 100 100 100 100 100 52 8 52 100 53 5 100 100 98 86 91 98 100 59 67 56 5 5 5 100 5 5 5 60 99 100 100 100 100 100
100 100 100 100 100 100 100 100 100 100 100 100 100 100 100 100 100 100 100 100 100 100 100 100 91 71 100 99 50 100 100 100 99 99 93 100 100 38 92 24 25 79 90 94 95 19 3 65 98 100 100 100 100 100
100 100 100 100 100 100 100 100 100 100 100 100 100 100 100 100 100 100 100 100 100 100 99 80 100 99 100 100 100 100 100 99 88 90 98 100 91 77 68 17 12 95 98 88 79 16 3 37 92 100 100 100 100 100
100 100 100 100 100 100 100 100 100 100 100 100 100 100 100 100 100 100 100 100 100 100 59 86 53 53 97 100 100 100 100 100 96 91 97 92 73 56 5 68 100 100 100 100 48 8 77 71 26 100 100 100 100 100
100 100 100 100 100 100 100 100 100 100 100 100 100 100 100 100 100 100 100 100 99 100 100 68 98 35 41 100 100 100 100 98 100 90 96 99 74 4 21 99 100 100 100 100 90 24 8 78 22 100 100 100 100 100
100 100 100 100 100 100 100 100 100 100 100 100 100 100 100 100 100 100 100 100 100 100 100 86 100 30 100 94 96 100 99 100 100 95 99 100 88 22 63 100 100 100 100 100 43 58 98 80 93 100 100 100 100 100
100 100 100 100 100 100 100 100 100 100 100 100 100 100 100 100 100 100 100 100 100 100 100 100 98 44 32 59 99 100 97 95 96 99 100 100 24 92 100 100 100 100 100 100 96 91 100 100 100 100 100 98 100 100
100 100 100 100 100 100 100 100 100 100 100 100 100 100 100 100 100 100 100 100 100 100 100 98 93 72 94 96 100 100 100 86 87 100 100 43 58 100 100 100 100 100 100 100 100 100 100 100 100 100 100 100 100 100
100 100 100 100 100 100 100 100 100 100 100 100 100 100 100 100 100 100 100 100 100 100 100 100 100 66 100 100 100 76 63 96 99 90 52 52 8 7 47 100 100 100 100 100 100 100 100 100 100 100 100 100 100 100
100 100 100 100 100 100 100 100 100 100 100 100 100 100 100 100 100 100 100 100 100 100 100 100 100 99 100 98 89 65 98 90 34 27 67 83 5 5 9 100 100 100 100 100 100 100 100 100 100 100 100 93 100 100
100 100 100 100 100 100 100 100 100 100 100 100 100 100 100 100 100 100 100 100 100 100 100 100 100 100 100 100 100 99 99 47 12 79 99 70 10 5 5 99 100 100 100 100 65 100 100 100 100 100 100 100 100 100
100 100 100 100 100 100 100 100 100 100 100 100 100 100 100 100 100 100 100 100 100 100 100 100 100 65 84 100 100 99 72 24 99 16 33 84 82 5 5 24 100 100 100 100 100 100 100 100 100 100 100 100 100 100
100 100 100 100 100 100 100 100 100 100 100 100 100 100 100 100 100 100 100 100 100 100 100 98 67 98 100 93 60 11 26 100 42 12 19 5 5 18 5 12 92 100 100 100 100 100 100 100 100 99 100 100 100 100
100 100 100 100 100 100 100 100 100 100 100 100 100 100 100 100 100 100 100 100 100 100 98 70 97 55 42 32 27 92 44 17 6 5 5 5 5 5 5 5 23 46 95 100 100 100 100 100 100 100 100 100 100 100
100 100 100 100 100 100 100 100 100 100 100 100 100 100 100 100 100 100 100 100 95 92 47 59 96 61 12 25 22 5 12 5 5 5 5 5 5 5 5 5 9 5 51 6 38 89 100 100 100 100 100 100 98 100
100 100 100 100 100 100 100 100 100 100 100 100 100 100 100 100 100 100 100 90 100 68 93 78 61 90 36 42 6 5 38 50 25 5 5 5 5 6 5 5 5 10 13 5 21 96 98 100 100 100 100 100 100 78
100 100 100 100 100 100 100 100 100 100 100 100 100 100 100 100 100 98 98 100 75 98 78 84 76 62 81 26 50 10 50 9 6 5 5 5 5 5 5 5 5 5 28 39 76 100 100 100 100 100 100 100 100 100
100 100 100 100 100 100 100 100 100 100 100 100 90 94 100 100 94 76 77 81 88 96 100 98 73 57 20 6 7 10 8 30 8 20 5 11 5 5 5 5 5 7 72 100 100 100 96 100 100 100 100 100 100 100
100 100 100 100 100 100 100 100 100 100 100 99 99 99 96 89 79 76 94 100 100 100 100 64 64 56 8 15 45 39 65 44 28 13 30 5 5 5 5 5 18 22 39 94 100 100 100 100 100 100 100 100 100 100
100 100 100 100 100 100 100 100 100 100 100 100 100 96 97 77 89 100 100 100 100 100 100 99 54 52 13 34 63 95 87 58 61 33 5 5 5 5 59 39 5 68 97 100 100 100 100 100 100 100 99 98 96 97
100 100 100 100 100 100 100 100 100 100 99 95 80 83 95 100 100 100 100 99 74 81 97 96 95 100 92 100 100 93 75 57 26 6 5 5 5 22 61 94 100 100 100 100 100 100 100 100 100 100 100 69 38 24
100 100 100 100 100 100 100 100 100 100 99 100 100 100 100 100 100 100 100 100 100 100 85 79 90 99 97 94 99 99 51 6 5 13 5 30 100 100 100 100 100 100 100 100 100 100 100 100 100 100 100 100 100 100
100 100 100 100 100 100 100 100 100 100 100 100 100 100 100 100 100 100 100 100 100 100 100 100 100 100 99 89 35 6 5 5 16 92 99 100 100 99 61 100 100 100 100 100 100 100 100 100 100 100 100 100 100 100
100 100 100 100 100 100 100 100 100 100 100 100 100 100 100 100 100 100 100 100 100 100 100 99 94 91 63 60 8 5 15 90 100 100 100 100 100 91 62 45 64 100 100 100 100 100 100 97 87 85 63 84 75 86
100 100 100 100 100 100 100 100 100 100 100 100 100 100 100 100 100 100 100 100 100 100 100 100 78 58 20 5 5 8 50 44 56 88 75 54 49 90 100 100 99 79 60 78 72 47 57 52 20 56 80 93 96 95
100 100 100 100 100 100 100 100 100 100 100 100 100 100 100 100 100 100 100 100 100 100 97 91 51 26 8 5 5 5 5 55 61 10 48 66 74 66 45 37 51 69 82 99 99 96 88 84 90 92 89 92 96 96
96 100 100 100 100 100 100 100 100 100 100 100 100 100 100 100 100 100 100 100 100 100 70 60 18 5 5 33 42 57 47 65 60 59 48 76 74 44 13 19 18 57 96 100 100 100 100 100 100 94 97 91 100 100
97 100 100 100 100 100 100 100 100 100 100 100 100 100 100 100 100 99 95 68 51 42 10 5 15 50 5 22 36 45 58 46 67 75 99 100 100 100 100 84 36 72 96 92 91 88 100 100 100 91 89 97 100 100

GFSWCAN_prec_cloud_093.txt.gz
Cloud_Cover
5 5 4 96 94 100 100 100 100 100 100 100 100 100 100 100 100 100 100 97 100 100 100 100 8 23 11 7 46 12 7 5 5 5 5 6 5 5 5 50 38 100 100 96 99 100 100 100 100 83 20 100 100 100
38 5 3 44 100 100 100 100 100 100 100 100 100 100 100 100 100 100 100 100 100 100 100 100 93 5 5 45 48 5 5 4 5 5 9 26 5 14 5 9 79 68 26 82 100 99 52 64 100 100 94 100 100 100
44 4 5 100 100 100 100 100 100 100 100 100 100 100 100 100 100 100 100 100 100 100 100 100 88 15 5 48 19 5 5 5 5 5 5 6 5 5 5 5 2 5 5 5 4 27 70 100 100 100 100 100 100 100
65 2 5 100 100 100 100 100 100 100 100 100 100 100 100 100 100 100 100 100 100 100 100 100 99 48 64 51 5 5 14 5 5 4 5 6 5 5 5 5 5 1 4 2 4 10 7 34 98 100 92 94 100 100
5 16 100 100 100 100 100 100 100 100 100 100 100 100 100 100 100 100 100 100 100 99 100 100 95 32 99 62 5 24 46 5 5 9 8 5 5 12 5 5 5 0 4 2 5 4 24 51 56 98 99 100 82 97
5 14 91 91 100 100 100 100 100 100 100 100 100 100 100 100 100 100 100 100 100 100 100 100 100 15 83 65 5 24 100 30 19 6 5 18 86 18 53 54 4 5 5 5 5 72 65 6 100 72 100 100 100 100
5 99 100 87 100 100 100 100 100 100 100 100 100 100 100 100 100 100 100 100 100 100 100 92 90 18 16 63 91 100 100 98 78 32 17 70 99 30 78 63 5 33 59 76 100 92 11 67 5 5 98 100 100 100
64 100 100 100 100 100 100 100 100 100 100 100 100 100 100 100 100 100 95 100 100 100 100 99 100 48 80 74 89 100 100 100 95 79 87 91 67 49 59 3 5 21 100 97 85 89 72 6 40 8 75 100 100 100
100 100 100 100 100 100 100 100 100 100 100 100 100 100 100 100 100 100 100 100 100 100 100 100 99 100 84 96 100 100 100 100 87 73 98 75 29 55 3 5 84 100 100 100 98 36 46 92 27 78 100 100 100 100
100 100 100 100 100 100 100 100 100 100 100 100 100 100 100 100 100 100 100 97 100 100 100 100 100 100 100 100 100 100 93 100 96 96 92 95 10 0 4 10 69 100 100 100 100 32 5 38 94 100 100 100 100 100
100 100 100 100 100 100 100 100 100 100 100 100 100 100 100 100 100 100 100 100 100 100 98 90 100 100 95 81 93 88 98 94 100 93 94 95 61 7 15 79 100 100 100 100 100 100 43 92 98 100 100 100 100 100
100 100 100 100 100 100 100 100 100 100 100 100 100 100 100 100 100 100 100 100 100 100 100 100 100 35 60 96 100 100 88 94 100 90 97 100 12 6 80 100 100 100 100 100 100 100 100 100 100 100 100 100 100 100
100 100 100 100 100 100 100 100 100 100 100 100 100 100 100 100 100 100 100 100 100 100 100 100 40 90 95 100 100 100 99 94 98 100 100 24 5 24 80 100 100 100 100 100 100 100 100 100 100 100 100 100 100 100
100 100 100 100 100 100 100 100 100 100 100 100 100 100 100 100 100 100 100 100 100 100 100 100 41 92 100 100 100 100 100 96 100 91 14 29 5 5 5 88 100 99 100 100 100 100 100 100 100 100 100 100 100 100
100 100 100 100 100 100 100 100 100 100 100 100 100 100 100 100 100 100 100 100 100 100 100 100 98 100 100 100 100 100 98 89 64 29 50 32 5 5 6 70 100 100 100 100 100 100 100 100 100 98 100 100 100 100
100 100 100 100 100 100 100 100 100 100 100 100 100 100 100 100 100 100 100 100 100 100 100 100 100 100 100 100 99 96 73 19 8 7 13 52 7 5 5 84 100 100 100 100 89 41 67 86 97 100 99 100 100 100
100 100 100 100 100 100 100 100 100 100 100 100 100 100 100 100 100 100 100 100 100 100 100 100 100 100 100 98 85 96 57 5 82 48 31 97 71 5 5 24 90 100 100 100 100 100 77 56 99 100 100 100 100 100
100 100 100 100 100 100 100 100 100 100 100 100 100 100 100 100 100 100 100 100 100 100 100 100 100 100 100 100 66 35 65 100 64 20 23 5 5 5 5 5 93 100 100 100 100 100 100 100 100 100 100 100 100 100
100 100 100 100 100 100 100 100 100 100 100 100 100 100 100 100 100 100 100 100 100 100 100 100 100 100 100 68 46 100 95 99 20 5 5 5 5 5 5 4 10 69 98 91 92 100 100 100 100 100 100 100 100 100
100 100 100 100 100 100 100 100 100 100 100 100 100 100 100 100 100 100 100 100 100 100 100 100 100 100 58 66 73 58 56 8 5 5 5 5 5 19 5 7 5 5 5 9 33 73 75 83 54 96 100 100 100 100
100 100 100 100 100 100 100 100 100 100 100 100 100 100 100 100 100 100 100 100 100 100 100 100 100 54 22 62 98 50 20 5 5 5 5 6 5 11 5 7 46 6 5 5 52 12 5 81 98 100 100 100 100 100
100 100 100 100 100 100 100 100 100 100 100 100 100 100 100 100 100 100 100 100 100 100 100 96 100 89 47 31 22 34 6 5 5 5 5 5 5 5 6 5 5 5 20 36 36 6 9 66 100 100 100 100 100 100
100 100 100 100 100 100 100 100 100 100 100 100 100 100 100 100 100 100 100 100 100 100 40 48 79 37 8 16 5 9 5 10 6 5 5 5 5 12 5 25 34 6 5 32 23 6 26 98 100 100 100 100 100 100
100 100 100 100 100 100 100 100 100 100 100 100 100 100 100 100 100 100 100 100 100 66 8 10 40 27 43 10 9 19 5 8 31 65 58 52 16 5 5 5 5 13 15 26 43 23 100 100 100 100 100 100 100 100
100 100 100 100 100 100 100 100 100 100 100 100 100 100 100 100 100 100 100 27 66 59 59 69 65 63 54 83 49 14 10 22 45 13 30 23 25 6 5 5 19 73 24 62 100 100 100 100 100 100 100 100 100 100
100 100 100 100 100 100 100 100 100 100 100 100 100 100 100 97 100 52 11 9 31 72 76 66 63 70 57 58 7 11 5 52 12 27 13 24 5 5 5 5 5 37 98 100 100 100 100 100 100 100 100 100 100 100
100 100 100 100 100 100 100 100 100 100 100 100 100 100 100 100 97 84 88 94 87 94 96 100 92 76 72 42 46 30 58 65 6 17 32 41 57 49 16 52 99 98 100 100 100 100 100 100 100 100 100 100 100 100
100 100 100 100 100 100 100 100 100 100 100 100 100 100 100 100 100 87 99 100 100 100 100 100 100 100 92 54 45 20 9 26 34 51 44 43 67 68 6 21 61 90 99 100 100 100 100 100 100 100 100 100 100 100
100 100 100 100 100 100 100 100 100 100 100 100 100 100 100 100 100 100 100 100 100 100 99 65 42 71 53 60 64 63 58 27 5 5 5 5 17 20 57 27 52 45 60 50 82 94 100 99 100 100 100 100 100 100
100 100 100 100 100 100 100 100 100 100 100 100 100 100 100 100 100 100 100 98 89 75 77 69 46 9 20 40 16 8 54 65 55 5 5 5 5 36 56 38 42 57 45 67 76 69 70 75 58 74 78 73 55 92
100 100 100 100 100 100 100 100 100 100 100 100 100 100 100 100 100 100 92 97 93 87 63 19 9 30 5 5 5 5 5 19 45 40 73 75 68 62 39 7 5 46 69 97 100 95 88 80 72 76 84 91 68 95
100 100 100 100 100 100 100 100 100 99 100 100 100 100 100 100 100 100 100 92 91 86 25 36 7 35 16 34 44 57 45 65 61 51 48 78 70 32 7 45 63 86 100 99 100 100 100 100 99 99 100 94 75 72
100 100 100 100 100 100 100 100 100 100 100 100 100 100 99 98 94 65 70 69 56 50 46 47 27 42 37 20 6 58 39 43 70 89 93 91 100 100 100 87 99 100 100 100 98 88 100 100 97 89 86 82 78 84

GFSWCAN_prec_cloud_096.txt.gz
Cloud_Cover
96 48 68 5 5 9 10 100 100 100 100 100 100 100 100 100 100 100 100 100 100 100 99 93 100 55 100 100 78 82 43 9 5 7 5 5 5 5 5 23 66 60 78 70 92 82 59 100 100 100 95 95 100 100
100 100 74 5 5 5 97 100 100 100 100 100 100 100 100 100 100 100 100 100 100 99 100 100 90 96 67 30 94 100 50 6 5 5 40 29 10 20 6 5 5 91 38 95 80 38 20 34 100 100 100 98 94 99
100 100 72 6 5 5 100 100 100 100 100 100 100 100 100 100 100 100 100 100 100 100 100 100 100 60 56 15 32 100 87 6 5 5 5 15 5 5 5 5 3 4 5 50 5 17 55 8 75 99 100 97 100 100
96 99 91 46 5 61 100 100 100 100 100 100 100 100 100 100 100 100 100 100 100 100 100 100 93 100 100 64 68 100 100 5 5 5 7 44 5 5 5 5 5 1 0 0 4 0 2 4 5 10 100 100 100 59
100 11 95 42 18 100 100 100 100 100 100 100 100 100 100 100 100 100 100 100 100 100 100 100 97 100 100 82 89 100 94 5 5 5 6 5 5 5 5 5 5 0 0 5 5 4 5 5 42 96 100 100 100 98
100 20 31 5 64 100 100 100 100 100 100 100 100 100 100 100 100 100 100 100 100 100 100 100 100 78 100 84 80 100 90 5 5 5 5 5 5 5 44 59 0 0 5 5 5 78 5 5 72 100 83 55 80 100
98 93 8 5 96 100 100 100 100 100 100 100 100 100 100 100 100 100 100 100 100 100 100 100 100 98 65 68 80 100 76 6 5 21 8 5 5 10 79 85 0 5 6 97 98 100 63 88 84 62 18 93 100 94
100 95 12 14 100 100 100 100 100 100 100 100 100 100 100 100 100 100 100 100 100 100 100 100 100 100 86 81 90 100 100 93 82 18 38 56 13 5 75 5 2 6 88 87 100 100 84 14 44 95 32 44 100 100
100 52 5 88 100 100 100 100 100 100 100 100 100 100 100 100 100 100 100 100 98 100 100 100 100 100 89 84 83 100 92 70 49 9 39 32 27 57 4 5 4 91 78 100 100 99 7 5 26 96 84 100 100 100
66 5 78 100 100 100 100 100 100 100 100 100 100 100 100 100 100 100 100 97 100 100 96 92 100 100 100 100 100 100 100 100 91 32 54 12 13 0 0 1 5 28 100 100 100 79 6 6 70 91 82 100 100 100
5 14 100 100 100 100 100 100 100 100 100 100 100 100 100 100 100 100 95 56 82 100 100 100 100 100 100 100 100 91 67 86 99 68 47 76 46 5 5 7 92 100 92 100 100 100 100 100 100 100 100 100 100 100
33 100 100 100 100 100 100 100 100 100 100 100 100 100 100 100 100 85 34 72 99 100 100 100 100 100 100 83 57 63 71 82 99 84 80 95 6 5 5 63 94 100 100 100 100 100 100 100 100 100 100 100 100 100
97 100 100 100 100 100 100 100 100 100 100 100 100 100 100 87 99 100 100 100 100 100 100 100 100 100 84 61 77 91 84 73 78 100 98 10 5 5 5 5 40 97 100 100 100 100 100 100 100 100 100 100 100 100
100 100 100 100 100 100 100 100 100 100 100 100 100 100 100 100 100 100 100 100 100 100 100 100 100 93 32 36 98 80 42 100 100 99 20 5 4 5 5 84 100 100 100 100 100 100 100 100 100 98 99 100 100 100
100 100 100 100 100 100 100 100 100 100 100 100 100 100 100 100 100 100 100 100 100 100 100 100 66 67 79 53 18 68 97 96 56 5 5 39 5 5 6 58 92 100 95 100 100 100 100 100 98 91 89 93 99 84
100 100 100 100 100 100 100 100 100 100 100 100 100 100 100 100 100 100 100 100 100 100 97 47 74 79 72 15 28 29 100 50 5 7 15 14 5 5 5 40 100 100 100 100 90 61 85 90 46 54 53 97 97 98
100 100 100 100 100 100 100 100 100 100 100 100 100 100 100 100 100 100 100 100 100 100 96 94 99 96 44 45 83 88 61 6 15 94 33 5 5 5 5 5 48 100 100 100 100 100 98 96 92 76 87 60 98 100
100 100 100 100 100 100 100 100 100 100 100 100 100 100 100 100 100 100 100 100 100 100 100 100 100 100 99 68 90 100 79 20 48 29 30 5 5 5 5 6 83 100 100 100 100 100 100 100 100 100 100 100 100 100
100 100 100 100 100 100 100 100 100 100 100 100 100 100 100 100 100 100 100 100 100 100 100 100 100 99 100 100 99 45 80 83 79 10 5 5 5 5 5 5 27 98 94 54 65 100 100 100 100 100 100 97 100 100
100 100 100 100 100 100 100 100 100 100 100 100 100 100 100 100 100 100 100 100 100 100 100 91 97 100 100 100 100 43 79 73 48 50 24 19 5 24 6 9 9 8 8 25 53 47 74 87 31 38 66 89 99 100
100 100 100 100 100 100 100 100 100 100 100 100 100 100 100 100 100 100 100 100 100 99 99 100 100 100 100 100 100 72 12 13 9 15 7 11 5 20 30 68 43 6 5 7 10 29 54 6 5 55 61 88 100 100
100 100 100 100 100 100 100 100 100 100 100 100 100 100 100 100 100 100 100 100 100 100 100 100 100 100 100 99 44 5 12 5 49 28 5 5 5 8 15 7 44 5 5 5 51 50 22 35 18 65 25 20 93 100
100 100 100 100 100 100 100 100 100 100 100 100 100 100 100 100 100 100 100 100 100 100 100 100 100 100 94 79 13 9 12 8 5 5 5 5 5 22 41 28 26 5 5 31 40 84 47 8 22 26 52 72 100 100
100 100 100 100 100 100 100 100 100 100 100 100 100 100 100 100 100 100 100 100 100 100 100 100 69 92 66 19 7 5 5 51 36 77 76 59 82 42 5 6 5 5 15 8 52 26 51 50 22 24 67 74 100 100
100 100 100 100 100 100 100 100 100 100 100 100 100 100 100 100 100 100 100 100 100 100 96 100 100 98 34 82 67 16 32 68 66 60 36 66 62 7 5 33 5 19 69 32 5 5 5 34 52 91 100 100 100 100
100 100 100 100 100 100 100 100 100 100 100 100 100 100 100 100 100 100 100 100 100 100 100 100 100 100 88 50 38 58 94 100 58 50 13 69 58 5 5 5 35 5 70 43 13 45 76 100 99 91 100 100 100 100
100 100 100 100 100 100 100 100 100 100 100 100 100 100 100 100 100 100 100 100 100 100 100 100 100 100 97 75 88 99 90 69 11 19 57 75 83 74 5 6 6 51 69 65 67 92 86 93 100 100 100 100 100 99
100 100 100 100 100 100 100 100 100 100 100 100 100 100 100 100 100 100 100 100 100 100 100 100 99 100 100 100 60 30 10 57 93 71 49 42 65 54 26 39 32 5 14 27 56 71 84 88 95 91 92 97 98 90
100 100 100 100 100 100 100 100 100 100 100 100 100 100 100 100 100 100 100 100 100 100 100 100 100 96 62 51 50 52 50 6 5 5 0 3 5 20 77 33 52 36 53 41 21 86 99 99 100 100 100 99 91 91
100 100 100 100 100 100 100 100 100 100 100 100 100 100 100 100 100 100 100 100 100 100 100 97 84 18 5 5 5 5 39 50 22 5 5 5 5 77 50 55 54 27 57 65 74 70 71 71 67 93 72 36 35 51
100 100 100 100 100 100 100 100 100 100 100 100 100 100 100 100 100 100 100 100 100 100 92 95 27 36 5 5 5 5 5 18 53 60 74 67 84 79 55 44 34 61 81 100 100 93 97 90 90 92 90 82 56 81
100 100 100 100 100 100 100 100 100 100 100 100 100 100 100 100 90 80 60 95 91 84 92 96 49 9 5 5 19 30 16 36 59 49 50 84 80 49 67 58 69 97 100 100 91 95 96 100 100 100 100 94 70 65
100 100 100 100 100 100 100 100 100 100 100 100 100 100 100 100 100 100 100 78 66 66 86 46 10 16 22 14 24 85 37 38 72 92 96 94 100 100 91 76 81 85 99 91 82 79 99 100 99 88 82 80 73 68

GFSWCAN_prec_cloud_099.txt.gz
Cloud_Cover
5 5 98 100 93 59 11 5 11 82 100 100 100 100 100 100 100 100 100 100 100 100 100 100 98 100 82 100 25 72 85 43 6 18 5 7 5 5 5 5 13 34 83 99 76 93 49 5 93 100 100 100 95 100
41 15 95 100 100 100 9 5 1 100 100 100 100 100 100 100 100 100 100 100 100 100 100 100 100 100 94 100 85 73 35 5 28 5 42 48 11 46 6 5 5 5 5 12 18 5 16 39 5 47 100 100 100 100
100 30 80 100 100 100 7 4 13 100 100 100 100 100 100 100 100 100 100 100 100 100 100 100 98 100 38 72 77 61 30 31 18 5 5 6 4 5 16 8 3 5 5 41 6 3 5 5 7 62 6 76 100 100
97 35 18 89 100 100 24 35 98 100 100 100 100 100 100 100 100 100 100 100 100 100 100 96 96 74 92 79 100 92 20 50 6 5 5 15 5 5 5 5 5 1 3 2 5 1 0 1 0 1 2 5 5 100
100 87 91 89 99 100 17 53 61 92 100 100 100 100 100 100 100 100 100 100 100 100 100 100 100 100 85 96 100 64 5 5 8 5 5 5 5 5 5 5 5 5 0 4 0 1 5 5 5 59 40 20 58 35
5 14 42 99 95 100 5 41 100 100 100 100 100 100 100 100 100 100 100 100 100 100 100 100 100 100 100 77 100 91 5 5 5 5 5 5 5 4 7 47 0 0 0 0 5 5 5 5 5 24 56 64 7 33
64 89 92 100 100 17 16 100 100 100 100 100 100 100 100 100 100 100 100 100 100 100 100 100 100 100 100 92 41 51 5 5 5 21 5 5 5 5 76 88 0 0 4 6 87 65 34 48 21 8 6 16 5 5
100 98 98 100 86 5 6 79 100 100 100 100 100 100 100 100 100 100 100 100 100 100 100 100 100 100 100 100 100 100 16 5 5 25 12 5 5 5 79 5 1 0 12 100 66 100 100 39 5 80 100 92 26 45
100 100 92 100 29 5 37 100 100 100 100 100 100 100 100 100 100 100 100 100 100 100 100 100 100 100 72 100 100 100 38 38 22 5 5 5 6 89 3 4 0 5 17 95 99 100 100 47 5 48 100 90 100 100
100 99 100 100 5 55 100 100 100 100 100 100 100 100 100 100 100 100 100 100 96 98 34 100 78 100 100 62 100 100 100 100 92 14 19 64 6 0 0 0 0 5 6 100 100 100 100 30 22 98 100 100 100 100
100 99 100 29 56 100 100 100 100 100 100 100 100 100 100 100 100 100 100 100 100 100 100 100 100 100 100 100 100 86 95 69 88 26 63 69 35 5 5 4 3 8 94 100 100 100 100 87 100 100 100 100 100 100
99 100 32 48 100 100 100 100 100 100 100 100 100 100 100 100 100 86 98 100 65 90 98 100 100 100 100 100 100 100 89 60 50 31 85 63 5 5 5 5 5 5 73 100 100 100 100 100 100 100 100 100 100 100
98 33 5 100 100 100 100 100 100 100 100 100 100 100 100 70 30 94 100 91 100 56 100 100 100 100 100 100 100 100 93 80 61 99 39 8 2 5 4 5 35 64 70 100 100 100 100 100 100 100 100 100 100 100
5 13 25 100 100 100 100 100 100 100 100 100 100 100 94 74 100 100 100 100 100 100 100 100 100 100 100 100 100 78 16 86 100 83 12 5 5 4 5 27 62 96 100 100 100 100 100 100 100 100 99 100 99 72
3 72 100 100 100 100 100 100 100 100 100 100 100 91 100 100 100 100 100 100 100 100 100 100 100 93 86 87 56 37 97 100 69 7 5 5 5 3 12 46 92 100 100 100 100 100 100 100 99 89 98 74 73 78
15 100 100 100 100 100 100 100 100 100 100 100 100 86 100 100 100 100 100 100 100 100 100 100 100 100 47 76 79 82 43 76 46 5 9 12 0 5 5 53 71 98 100 100 89 83 79 31 47 73 5 82 68 82
100 100 100 100 100 100 100 100 100 100 100 100 100 100 100 100 100 100 100 100 100 100 100 100 100 100 100 74 60 99 53 8 13 53 82 1 4 5 5 5 94 98 100 100 100 100 93 80 100 100 41 87 78 76
100 100 100 100 100 100 100 100 100 100 100 100 100 100 100 100 100 100 100 100 100 100 100 100 100 100 100 100 100 100 93 43 59 39 30 3 5 5 5 5 9 95 100 100 100 100 100 100 100 100 100 100 100 95
100 100 100 100 100 100 100 100 100 100 100 100 100 100 100 100 100 100 100 100 100 100 100 100 100 100 100 100 100 95 94 41 78 24 5 5 5 5 5 7 44 99 96 60 69 98 100 83 100 100 99 100 100 96
100 100 100 100 100 100 100 100 100 100 100 100 100 100 100 100 100 100 100 100 100 100 100 100 100 100 100 100 96 45 30 15 11 8 7 14 10 40 7 9 31 100 81 47 88 85 89 37 17 98 96 96 97 100
100 100 100 100 100 100 100 100 100 100 100 100 100 100 100 100 100 100 100 100 100 100 100 100 100 100 55 95 100 21 10 6 5 5 5 28 13 30 63 77 70 35 5 6 9 6 5 42 63 100 100 96 100 100
100 100 100 100 100 100 100 100 100 100 100 100 100 100 100 100 100 100 100 100 100 100 100 100 100 100 100 100 86 18 5 5 5 5 7 61 92 77 72 49 86 42 8 6 6 5 18 67 77 72 100 99 100 66
100 100 100 100 100 100 100 100 100 100 100 100 100 100 100 100 100 100 100 100 100 100 100 100 100 100 100 92 37 10 13 7 5 12 100 100 89 57 64 42 43 39 7 26 41 28 38 52 86 98 84 90 75 72
100 100 100 100 100 100 100 100 100 100 100 100 100 100 100 100 100 100 100 100 100 100 100 100 100 100 100 98 16 19 21 52 38 74 100 98 75 48 8 27 18 18 34 9 57 54 59 63 34 29 59 69 71 77
100 100 100 100 100 100 100 100 100 100 100 100 100 100 100 100 100 100 100 100 100 100 100 100 100 100 100 76 74 18 17 66 57 100 100 100 94 30 5 37 9 48 76 41 12 5 58 55 62 66 63 69 100 100
100 100 100 100 100 100 100 100 100 100 100 100 100 100 100 100 100 100 100 100 100 100 100 100 100 87 93 93 76 81 74 81 100 87 79 86 65 23 26 66 29 5 72 41 25 12 7 48 58 49 92 100 84 59
100 100 100 100 100 100 100 100 100 100 100 100 100 100 100 100 100 100 100 100 100 100 100 100 100 99 100 99 92 98 100 84 48 94 99 92 88 68 86 20 6 42 70 29 20 20 19 54 81 75 73 40 62 64
100 100 100 100 100 100 100 100 100 100 100 100 100 100 100 100 100 100 100 100 100 100 100 100 100 100 100 100 100 100 100 100 100 69 37 8 72 64 55 21 46 22 58 57 69 94 100 100 100 100 98 98 78 75
100 100 100 100 100 100 100 100 100 100 100 100 100 100 100 100 100 100 100 100 100 100 100 100 94 100 100 100 100 100 100 99 44 7 57 38 16 53 73 11 46 22 50 48 46 88 100 100 100 100 100 100 96 70
100 100 100 100 100 100 100 100 100 100 100 100 100 100 100 100 100 100 100 100 100 100 100 100 100 100 100 100 100 100 91 47 7 8 18 16 9 6 49 55 55 37 56 86 95 74 52 61 64 91 71 35 28 63
100 100 100 100 100 100 100 100 100 100 100 100 100 100 100 100 100 100 100 100 100 100 100 100 100 97 93 70 25 12 37 40 59 86 77 59 62 80 59 52 55 70 97 100 94 92 99 96 96 100 98 89 63 89
100 100 100 100 100 100 100 100 100 100 100 100 100 100 100 100 100 100 100 100 100 97 32 14 6 15 67 94 99 99 82 31 56 30 17 74 97 62 63 62 75 92 100 100 100 100 100 100 100 100 100 87 75 76
100 100 100 100 100 100 100 100 100 100 100 100 100 100 100 99 99 100 99 95 89 97 100 100 100 100 100 93 44 92 59 12 78 93 100 95 100 98 98 88 89 99 100 100 100 96 95 100 100 97 86 88 82 82

GFSWCAN_prec_cloud_102.txt.gz
Cloud_Cover
5 99 46 12 100 100 52 96 5 96 66 61 100 100 100 100 100 100 100 100 100 100 99 95 100 100 100 100 100 100 79 5 12 17 5 14 5 5 5 5 5 24 43 97 93 92 54 5 4 34 79 100 100 95
5 5 5 28 99 100 54 90 69 87 92 100 100 100 100 100 100 100 100 100 100 100 80 100 100 100 100 100 80 88 78 5 14 5 40 45 17 65 5 5 5 42 5 10 8 7 3 90 5 5 28 86 100 98
5 5 7 35 97 100 77 7 43 100 100 89 100 100 100 100 100 100 100 100 100 100 88 96 100 100 100 98 100 100 15 5 11 5 5 7 5 5 27 9 2 5 5 22 5 2 0 5 8 61 5 1 0 20
5 6 27 5 85 100 96 74 12 98 100 59 100 100 100 100 100 100 100 100 100 100 100 100 100 100 100 95 44 68 28 5 5 5 23 24 5 4 5 2 5 1 5 5 5 3 2 1 3 5 5 5 5 5
49 52 5 5 21 100 79 6 40 100 99 98 100 100 100 100 100 100 100 100 100 100 100 100 100 100 81 100 62 60 27 5 5 5 10 5 5 5 5 5 5 5 3 4 1 0 0 5 5 5 5 60 76 5
95 48 5 5 5 97 92 5 38 98 96 100 100 100 100 100 100 100 100 100 100 100 100 100 100 79 98 91 88 96 40 27 5 5 6 5 5 4 7 18 0 4 0 0 0 1 5 5 5 5 5 5 5 5
42 36 15 90 6 88 97 5 9 100 100 100 100 100 100 100 100 100 100 100 100 100 100 100 94 100 100 50 100 63 14 5 5 31 8 5 5 5 59 64 0 0 0 4 27 15 5 5 5 5 6 70 64 21
88 90 100 100 94 70 96 5 3 8 100 100 100 100 100 100 100 100 100 100 100 100 100 100 97 100 80 89 100 16 5 5 9 35 25 5 5 5 84 5 1 2 5 5 88 99 70 71 5 5 86 94 86 77
69 99 100 100 99 17 97 6 1 4 100 100 100 100 100 100 100 100 100 100 100 100 100 100 100 100 100 100 79 66 77 49 34 8 5 5 12 92 3 4 5 1 5 5 48 51 100 100 20 5 94 100 100 100
5 83 100 100 100 59 83 29 5 42 100 100 100 100 100 100 100 100 100 100 100 100 100 100 100 100 100 100 62 68 90 61 74 6 7 72 14 4 1 0 0 3 5 8 96 48 100 100 83 100 100 100 100 100
29 98 100 100 68 100 100 45 59 100 100 100 100 100 100 100 100 100 100 100 99 93 100 100 100 100 78 43 97 100 100 100 24 25 32 56 70 5 5 5 4 4 5 15 42 84 100 100 91 100 100 100 100 100
96 100 100 100 100 100 77 26 100 100 100 100 100 100 100 100 100 100 100 72 98 75 96 91 85 99 91 98 100 100 100 57 24 8 85 81 8 5 5 5 3 5 5 7 42 99 100 100 100 100 100 100 100 100
74 44 100 90 100 100 91 100 100 100 100 100 100 100 100 100 96 30 99 99 96 100 100 99 90 100 100 73 100 98 66 67 38 96 38 8 5 5 8 5 18 50 27 32 91 100 100 100 100 100 100 100 100 100
56 94 100 100 100 100 100 100 100 100 100 100 100 100 100 100 100 100 100 100 100 100 100 66 84 100 100 82 100 63 26 73 95 75 44 5 5 5 5 7 44 61 100 100 100 100 100 100 100 95 100 100 51 63
69 76 100 100 100 100 100 100 100 100 100 100 100 100 100 100 100 100 100 100 100 100 100 94 97 100 100 71 49 73 100 85 40 51 6 5 5 4 31 93 89 100 100 99 100 100 100 100 100 97 94 52 6 72
65 100 87 100 100 100 100 100 100 100 100 100 100 100 100 100 100 100 100 100 100 100 100 100 100 100 64 75 88 67 86 21 51 7 6 24 5 5 9 89 47 51 99 100 99 95 84 39 8 30 22 6 47 100
100 95 95 100 100 100 100 100 100 100 100 100 100 100 100 100 100 100 100 100 100 100 100 100 100 92 64 80 77 100 54 25 33 5 75 11 5 5 5 24 97 31 66 100 100 99 88 78 94 100 100 98 93 100
100 100 100 100 100 100 100 100 100 100 100 100 100 100 100 100 100 100 100 100 100 100 100 100 100 100 99 29 80 30 34 70 74 86 23 5 5 5 5 16 100 98 79 100 100 99 98 99 97 96 94 100 97 99
100 100 100 100 100 100 100 100 100 100 100 100 100 100 100 100 100 100 100 100 100 100 100 100 100 100 92 64 75 40 98 98 100 53 6 5 5 4 5 8 42 100 100 98 100 96 93 100 89 93 70 90 93 100
100 100 100 100 100 100 100 100 100 100 100 100 100 100 100 100 100 100 100 100 100 100 100 100 100 100 100 100 96 55 67 100 99 64 36 19 8 33 6 10 80 100 100 100 100 99 100 63 6 5 22 48 69 51
100 100 100 100 100 100 100 100 100 100 100 100 100 100 100 100 100 100 100 100 100 100 100 100 100 100 100 100 94 81 12 16 99 15 5 70 22 26 81 70 73 98 40 37 5 44 5 17 13 45 84 19 5 26
100 100 100 100 100 100 100 100 100 100 100 100 100 100 100 100 100 100 100 100 100 100 100 100 100 100 100 100 98 100 37 52 40 5 5 4 36 92 100 88 99 81 49 18 84 26 16 33 58 65 81 69 52 74
100 100 100 100 100 100 100 100 100 100 100 100 100 100 100 100 100 100 100 100 100 100 100 100 100 100 100 100 88 70 72 52 6 5 5 5 5 67 69 55 64 67 77 49 64 88 26 26 50 14 59 41 77 67
100 100 100 100 100 100 100 100 100 100 100 100 100 100 100 100 100 100 100 100 100 100 100 100 100 100 100 100 99 48 43 54 49 77 81 66 81 87 70 13 74 97 71 100 98 66 66 8 30 25 62 64 63 70
100 100 100 100 100 100 100 100 100 100 100 100 100 100 100 100 100 100 100 100 100 100 100 100 100 100 100 100 100 73 45 64 22 46 80 77 82 41 17 48 5 82 80 96 87 16 21 57 62 61 60 62 60 6
100 100 100 100 100 100 100 100 100 100 100 100 100 100 100 100 100 100 100 100 100 100 100 100 100 100 100 95 82 48 47 80 64 96 96 96 67 39 47 5 90 83 84 47 6 5 5 23 18 58 58 47 39 70
100 100 100 100 100 100 100 100 100 100 100 100 100 100 100 100 100 100 100 100 100 100 100 100 100 100 100 90 82 91 100 100 100 100 100 100 100 62 47 98 87 89 68 38 20 5 23 69 92 96 98 79 66 65
100 100 100 100 100 100 100 100 100 100 100 100 100 100 100 100 100 100 100 100 100 100 100 100 100 100 100 100 100 100 100 100 100 100 54 82 86 62 40 56 60 47 33 65 74 96 100 100 100 99 94 92 80 69
100 100 100 100 100 100 100 100 100 100 100 100 100 100 100 100 100 100 100 100 100 100 100 100 100 100 100 100 100 100 100 100 100 100 100 84 37 49 58 28 42 44 56 31 68 92 100 98 100 100 98 87 63 60
100 100 100 100 100 100 100 100 100 100 100 100 100 100 100 100 100 100 100 100 100 100 100 100 100 100 100 100 100 100 100 98 79 33 5 17 43 11 48 57 57 58 79 92 96 76 77 53 58 71 51 27 29 32
100 100 100 100 100 100 100 100 100 100 100 100 100 100 100 100 100 100 100 100 100 100 100 100 100 100 100 100 100 100 97 55 81 85 66 42 54 59 62 54 58 83 99 100 97 96 98 94 98 100 87 84 54 84
100 100 100 100 100 100 100 100 100 100 100 100 100 100 100 100 100 100 100 100 100 100 100 100 100 100 100 100 100 88 10 56 54 39 69 82 77 59 58 68 87 99 100 100 100 100 100 100 100 100 96 85 84 83
100 100 100 100 100 100 100 100 100 100 100 100 100 100 100 100 100 100 100 100 100 100 100 100 100 100 100 100 100 83 49 72 90 79 91 89 100 99 96 95 99 98 96 99 99 98 100 100 100 100 98 88 81 81

GFSWCAN_prec_cloud_105.txt.gz
Cloud_Cover
100 100 94 98 98 100 6 8 10 5 5 5 97 100 100 100 94 100 98 100 100 100 100 88 98 100 99 70 80 46 100 100 64 72 5 26 5 5 5 5 5 5 40 35 52 84 21 3 5 21 5 7 46 57
100 100 69 86 30 16 8 27 8 5 5 5 56 100 100 100 100 99 100 100 100 100 99 82 100 100 100 94 61 59 90 40 71 20 35 45 17 77 9 5 5 38 3 4 5 2 0 5 5 5 8 6 4 10
98 100 51 62 94 100 88 66 5 5 5 3 11 99 100 100 100 100 100 98 100 100 100 99 100 100 100 100 74 100 77 10 23 7 29 7 5 5 28 10 1 5 5 36 5 3 1 4 4 25 5 5 4 0
98 17 54 60 18 100 85 100 5 5 5 4 3 61 100 100 100 100 100 92 100 100 100 100 100 100 90 100 100 82 35 9 8 7 17 5 5 5 4 2 4 1 5 5 5 2 0 0 2 4 5 5 5 5
5 22 54 57 44 82 54 99 5 5 5 4 5 80 100 100 100 100 98 97 100 100 100 100 100 100 100 100 100 88 74 42 35 5 5 5 5 5 5 5 10 5 5 4 1 0 0 0 1 5 5 5 5 8
5 58 94 21 100 14 22 44 5 5 5 0 6 100 100 100 100 100 100 99 94 100 100 100 100 100 100 100 100 89 100 68 18 5 6 5 5 5 8 16 0 5 0 0 0 0 1 5 5 5 5 5 5 22
11 43 9 70 100 6 5 5 5 5 5 5 70 100 100 100 100 100 100 100 100 100 100 100 100 100 97 78 98 100 63 73 5 18 10 5 5 26 53 28 0 2 0 0 5 5 5 5 5 5 5 5 28 91
13 5 5 6 36 24 31 62 4 12 5 5 94 100 100 100 100 100 100 100 100 100 100 100 100 100 100 80 56 65 95 58 11 29 22 5 6 26 80 5 0 3 2 5 5 21 40 5 5 5 5 41 100 100
4 12 37 7 39 78 92 97 5 25 5 5 98 100 100 100 100 100 100 100 100 100 100 100 100 100 89 75 67 75 75 55 33 61 50 5 25 66 5 0 5 5 5 5 5 69 18 89 10 5 73 100 100 100
18 44 68 59 93 99 100 99 31 75 5 74 100 100 100 100 100 100 100 100 100 86 100 100 100 100 100 100 91 93 68 42 59 5 22 84 15 5 5 3 0 1 2 5 5 64 28 100 98 100 100 100 100 100
5 5 15 34 62 70 100 100 100 26 68 97 100 100 100 100 100 100 100 100 100 99 99 100 100 100 92 100 93 85 100 59 15 34 55 54 71 5 5 5 5 3 5 5 5 12 80 100 73 100 100 100 100 100
21 5 5 15 100 100 100 100 100 72 100 68 100 100 100 100 100 100 100 80 71 53 100 100 93 98 81 93 100 89 100 87 5 13 77 86 9 5 5 5 5 4 5 5 48 96 55 90 100 100 100 100 100 100
43 92 86 99 100 100 100 100 93 99 98 100 100 100 100 100 100 70 84 90 98 100 100 100 100 100 70 97 88 100 100 48 31 93 56 5 5 32 18 5 4 5 5 5 98 100 100 100 100 100 100 100 100 79
99 100 100 100 100 100 100 100 79 100 100 100 100 100 98 100 100 29 93 100 100 100 100 100 86 93 99 90 98 100 100 85 100 100 56 5 16 31 7 5 8 24 5 19 96 100 100 100 100 100 89 76 98 84
97 92 100 100 100 100 99 100 100 100 100 100 100 100 100 100 100 100 100 100 100 100 93 94 69 67 64 91 71 99 100 98 42 48 11 5 39 29 29 40 11 12 84 98 99 100 100 100 57 26 65 54 99 100
100 100 100 100 100 100 100 100 100 100 100 100 100 100 100 100 100 100 100 100 100 91 75 95 100 100 100 100 100 100 66 16 7 34 23 67 62 29 12 99 53 45 98 100 99 24 11 54 6 97 84 38 63 49
100 100 95 100 100 100 100 100 100 100 100 100 100 100 100 100 100 100 100 100 99 100 100 100 100 100 100 100 100 54 43 47 58 96 100 62 44 35 40 95 5 5 55 100 100 98 67 64 29 33 57 98 100 100
39 88 100 100 100 100 100 100 100 100 100 100 100 100 100 100 100 100 100 100 100 100 100 100 100 100 100 100 45 81 85 94 99 93 54 25 42 10 58 49 100 63 11 89 100 99 99 100 82 53 63 100 72 40
100 100 100 100 100 100 100 100 100 100 100 100 100 100 100 100 100 100 100 100 100 100 100 100 100 100 100 100 100 100 99 100 100 75 57 91 74 9 6 96 100 100 100 97 100 88 80 99 83 82 43 99 49 40
100 100 100 100 100 100 100 100 100 100 100 100 100 100 100 100 100 100 100 100 100 100 100 100 100 100 100 100 100 100 100 100 97 61 89 38 8 16 6 35 100 100 100 100 100 100 100 84 32 41 61 77 58 15
100 100 100 100 100 100 100 100 100 100 100 100 100 100 100 100 100 100 100 100 100 100 100 100 100 100 100 100 100 100 100 100 100 100 100 100 48 17 76 81 100 100 100 100 54 7 57 13 9 100 90 73 5 5
100 100 100 100 100 100 100 99 100 100 100 100 100 100 100 100 100 100 100 100 100 100 100 100 100 100 100 100 100 100 100 100 100 69 96 71 100 100 100 86 100 100 79 47 37 5 5 9 69 68 79 72 65 78
100 100 100 100 100 100 100 100 100 100 100 100 100 100 100 100 100 100 100 100 100 100 100 100 100 100 100 100 100 100 100 100 100 100 100 28 12 77 89 96 100 98 95 57 36 63 62 25 40 63 50 44 62 56
100 100 100 100 100 100 100 100 100 100 100 100 100 100 100 100 100 100 100 100 100 100 100 100 100 100 100 100 100 100 100 100 100 100 97 41 75 67 27 19 14 39 62 69 100 94 76 54 31 54 60 52 27 58
100 100 100 100 100 100 100 100 100 100 100 100 100 100 100 100 100 100 100 100 100 100 100 100 100 100 100 100 100 100 100 100 100 96 90 73 82 74 68 55 58 63 72 62 60 37 55 55 59 49 53 37 62 40
100 86 100 72 100 100 100 100 100 100 100 100 100 100 100 100 100 100 100 100 100 100 100 100 100 100 100 100 100 100 100 100 100 54 85 77 66 20 37 20 52 50 68 38 7 5 11 36 42 49 61 61 59 92
100 89 100 100 100 100 100 100 100 100 100 100 100 100 100 100 100 100 100 100 100 100 100 100 100 100 100 100 100 100 100 100 95 63 73 68 68 66 8 10 5 44 63 5 24 5 13 62 84 94 96 81 72 76
100 98 100 100 100 100 100 100 100 100 100 100 100 100 100 100 100 100 100 100 100 100 100 100 100 100 100 100 100 100 100 100 97 95 99 52 54 56 80 81 74 23 72 66 51 89 86 92 100 97 99 100 89 67
100 100 100 100 100 100 100 100 100 100 100 100 100 100 100 100 100 100 100 100 100 100 100 100 100 100 100 100 100 100 100 100 100 100 93 59 75 32 77 53 62 98 98 65 64 96 98 99 100 99 89 78 56 24
100 100 100 100 100 100 100 100 100 100 100 100 100 100 100 100 100 100 100 100 100 100 100 100 100 100 100 100 100 100 100 100 99 66 92 100 92 23 64 71 100 93 97 94 87 60 85 52 57 80 47 5 8 65
100 100 100 100 100 100 100 100 100 100 100 100 100 100 100 100 100 100 100 100 100 100 100 100 100 100 100 100 100 100 100 100 100 94 92 83 53 61 68 81 78 96 99 94 81 77 84 92 98 100 62 51 33 77
100 100 100 100 100 100 100 100 100 100 100 100 100 100 100 100 100 100 100 100 100 100 100 100 100 100 100 100 100 100 100 100 96 77 98 93 100 94 52 70 99 100 100 92 82 88 100 100 100 98 92 96 91 96
100 100 100 100 100 100 100 100 100 100 100 100 100 100 100 100 100 100 100 100 100 100 100 100 100 100 100 100 97 82 75 89 100 100 92 68 97 62 87 90 100 94 88 90 100 99 99 100 99 100 100 100 97 91

GFSWCAN_prec_cloud_108.txt.gz
Cloud_Cover
100 100 100 100 100 100 18 80 95 36 5 5 1 18 100 100 100 100 24 100 100 38 100 90 39 80 100 100 100 90 57 99 59 21 6 5 5 5 3 4 5 1 2 4 6 5 0 0 5 8 2 1 6 69
100 100 100 100 100 100 100 10 45 11 17 5 2 17 100 100 100 93 6 35 100 99 60 74 66 88 58 86 64 34 96 88 37 34 5 5 5 17 2 0 4 4 0 0 0 0 0 0 0 0 0 5 7 0
100 100 100 100 100 93 96 56 70 47 5 2 4 43 100 100 94 48 20 6 7 9 54 89 51 100 75 87 20 45 38 12 34 30 5 6 5 5 1 0 0 4 0 5 4 0 0 0 0 3 2 5 5 1
100 100 100 100 100 26 100 98 55 32 5 4 0 31 100 100 100 83 56 55 61 10 58 93 79 100 84 100 58 100 48 7 49 62 41 19 5 5 5 5 4 0 5 5 5 0 0 0 0 3 3 5 5 5
100 100 100 99 72 84 93 88 43 8 6 5 0 5 100 100 93 88 100 35 78 47 88 76 100 100 64 52 58 16 52 67 91 95 69 39 5 5 23 18 5 1 0 1 0 0 0 0 0 0 4 5 5 5
100 100 100 100 50 55 14 49 26 5 5 5 3 4 100 100 100 100 100 94 71 100 100 58 100 100 43 41 48 5 5 23 100 80 64 23 5 5 42 62 2 0 0 0 0 0 0 2 5 5 5 5 5 5
100 100 100 100 64 59 32 5 27 5 6 5 4 3 100 100 100 100 100 99 96 97 100 82 57 100 98 100 17 16 5 27 26 39 60 17 5 5 87 49 5 0 0 0 0 2 4 5 5 5 5 5 15 57
100 100 69 87 6 55 5 5 5 3 5 5 4 5 100 100 100 100 100 99 86 96 91 100 87 100 96 20 100 100 61 5 10 32 9 5 10 79 78 16 5 2 0 5 5 4 5 5 5 5 5 80 100 90
97 100 76 96 82 100 86 5 5 4 5 46 5 26 100 100 100 100 100 100 100 100 100 100 98 100 72 70 100 91 12 48 32 5 33 38 8 19 5 17 5 5 2 1 5 5 5 5 5 5 33 100 100 100
34 70 100 5 54 14 5 26 69 75 35 100 50 100 100 100 100 100 100 100 100 100 100 84 100 100 81 100 99 59 20 98 65 22 28 76 37 5 12 47 5 5 5 5 5 43 38 5 25 36 100 100 100 100
13 6 97 16 20 76 79 96 96 100 100 100 100 100 100 100 100 100 100 100 100 100 92 100 97 100 75 100 100 43 54 85 30 12 72 31 56 85 91 66 6 5 5 5 2 5 5 5 31 98 100 100 100 100
61 95 45 48 9 15 44 88 100 100 100 100 51 98 100 100 100 100 100 99 90 100 100 100 100 98 100 100 78 72 98 99 17 40 82 56 99 100 96 21 5 5 5 5 5 5 6 5 39 82 100 100 100 100
100 100 59 5 24 83 78 28 100 100 100 100 99 100 100 100 100 100 93 93 58 100 100 100 100 100 100 99 84 97 91 80 55 90 62 62 100 95 73 21 12 5 5 5 73 98 100 100 100 100 100 100 100 90
100 32 6 5 5 30 100 100 100 100 100 100 100 100 100 100 52 12 21 37 100 100 100 100 100 100 100 100 99 99 100 93 96 77 75 82 73 79 66 35 5 6 18 37 99 100 100 99 100 100 98 18 75 29
100 94 28 16 20 63 100 100 100 100 100 100 100 100 100 33 58 100 100 100 100 100 100 100 100 100 100 100 100 100 97 69 100 95 76 59 54 75 67 20 7 24 40 32 80 100 100 100 100 55 22 5 5 18
100 100 89 100 83 94 100 100 100 100 100 100 100 100 96 22 100 100 100 100 100 100 93 35 92 100 100 100 100 99 97 99 57 100 65 13 21 82 36 40 25 68 26 5 45 90 100 100 22 5 5 5 5 27
87 100 100 100 100 100 100 100 100 100 100 100 98 58 41 98 100 100 100 100 100 100 16 86 100 100 100 100 100 100 100 34 100 99 53 67 39 32 15 50 50 52 5 16 97 86 25 26 6 5 9 14 91 99
80 99 100 100 100 100 100 100 100 100 100 100 100 99 96 100 100 100 100 100 95 59 58 75 59 100 100 100 100 96 46 100 100 67 62 78 90 81 84 31 5 5 5 78 100 100 100 100 81 51 59 94 58 18
98 100 100 100 100 100 100 100 100 100 100 100 100 98 100 100 100 100 100 100 100 100 91 76 90 100 100 100 100 99 77 100 100 66 63 100 83 68 27 84 45 7 7 79 100 91 56 58 63 40 20 8 10 6
100 100 100 100 100 100 100 100 100 100 100 100 100 100 100 100 100 100 100 100 100 99 62 48 100 100 100 100 100 100 100 100 100 99 68 100 100 91 99 100 100 100 100 100 100 100 100 92 62 13 5 5 5 5
100 100 100 100 100 100 100 100 100 100 98 94 100 100 100 100 100 100 100 100 100 90 76 98 100 100 100 100 100 100 100 100 100 82 99 100 100 100 67 100 100 100 100 100 100 100 98 16 5 5 5 5 29 16
100 100 100 100 100 100 100 100 100 100 100 100 100 100 100 100 100 100 100 100 100 100 100 100 100 100 100 100 100 100 100 100 100 100 100 100 100 100 98 100 100 100 100 99 29 5 9 5 5 5 7 20 5 7
100 100 100 100 100 100 100 100 100 94 100 100 100 100 100 100 100 100 100 100 100 100 100 100 100 100 100 100 100 100 100 100 100 100 100 100 100 100 100 100 100 100 100 48 13 5 20 15 9 5 5 5 5 16
100 100 100 100 100 100 100 100 99 88 100 100 100 100 100 100 100 100 100 100 100 100 100 100 100 100 100 100 100 100 100 100 100 100 100 100 97 100 100 100 100 100 100 60 16 55 59 31 9 5 5 5 35 5
100 100 100 100 100 100 100 100 100 92 100 100 100 100 100 100 100 100 100 100 100 100 100 100 100 100 100 100 100 100 100 100 100 100 100 100 100 100 100 100 100 100 62 5 5 15 19 5 5 5 5 5 7 39
100 100 100 100 100 100 100 100 48 99 100 100 100 100 100 100 100 100 100 100 100 100 100 100 100 100 100 100 100 100 100 100 100 100 100 100 100 100 100 100 73 65 5 5 5 5 5 5 52 5 5 12 61 72
100 100 100 100 98 100 100 93 98 100 100 100 100 100 100 100 100 100 100 100 100 100 100 100 100 100 100 100 100 100 100 100 100 100 100 100 100 100 100 69 19 7 5 5 5 5 5 5 5 9 51 61 43 79
100 100 100 90 72 87 83 96 100 100 100 100 100 100 100 100 100 100 100 100 100 100 100 100 100 100 100 100 100 100 100 100 100 100 100 100 100 100 94 84 19 5 18 44 23 5 5 10 64 73 85 92 64 11
87 100 100 100 100 100 100 100 100 100 100 100 100 100 100 100 100 100 100 100 100 100 100 100 100 100 100 100 100 100 100 100 100 100 100 100 100 96 70 39 60 56 54 69 85 75 80 76 94 90 30 5 5 5
100 100 100 100 100 100 100 100 100 100 100 100 100 100 100 100 100 100 100 100 100 100 100 100 100 100 100 100 100 100 100 100 100 100 100 100 85 58 28 38 61 78 73 53 24 54 77 21 28 24 14 7 14 43
100 100 100 100 100 100 100 100 100 100 100 100 100 100 100 100 100 100 100 100 100 100 100 100 100 100 100 100 100 100 100 100 100 96 73 53 54 47 45 54 71 94 83 48 5 5 30 30 20 5 5 5 56 78
100 100 100 100 100 100 100 100 100 100 100 100 100 100 100 100 100 100 100 100 100 100 100 100 100 100 100 100 100 100 100 93 80 69 58 74 64 92 100 87 100 87 67 50 5 17 67 16 6 13 11 68 85 90
100 100 100 100 100 100 100 100 100 100 100 100 100 100 100 100 100 100 100 100 100 100 100 100 100 100 100 100 100 100 100 100 100 98 81 100 100 90 99 98 88 65 34 49 58 27 12 11 28 75 97 100 99 90

GFSWCAN_prec_cloud_111.txt.gz
Cloud_Cover
100 100 100 100 100 100 100 100 100 100 100 100 31 4 4 100 100 100 100 100 85 20 94 100 100 100 85 100 100 100 43 56 42 99 56 53 5 3 2 0 0 0 1 1 0 1 0 0 0 4 1 0 4 45
100 100 100 100 100 100 100 100 100 100 100 100 84 2 23 100 100 100 100 100 89 10 52 100 100 100 84 86 100 99 51 26 65 60 47 58 14 5 5 5 0 2 0 0 0 0 0 0 4 0 0 4 18 3
100 100 100 100 100 100 100 100 100 100 100 100 100 1 21 100 100 100 100 78 22 61 67 86 100 100 92 100 100 100 40 14 67 49 60 70 57 5 5 5 5 2 1 0 0 0 0 0 0 0 4 3 2 4
100 100 100 100 100 100 100 100 100 100 100 100 83 1 61 100 100 100 41 5 4 5 65 99 94 100 100 100 100 99 60 27 63 50 82 65 54 10 5 5 5 5 5 0 0 0 0 0 0 3 3 2 5 5
100 100 100 100 100 100 100 100 100 100 100 100 12 3 9 100 100 100 63 98 45 16 47 100 100 76 100 100 100 100 63 43 10 33 82 92 52 19 5 5 5 5 5 5 0 0 0 0 0 0 0 3 5 5
100 100 100 100 100 100 100 100 100 100 100 100 5 5 0 99 100 100 98 77 99 100 64 100 100 100 100 100 100 100 90 92 8 49 76 55 57 5 14 11 5 5 5 5 5 0 0 0 0 0 4 2 4 5
100 100 100 100 100 100 100 100 100 100 100 27 5 5 5 46 100 100 100 100 99 95 55 98 100 100 100 100 100 85 84 81 40 62 62 62 16 5 22 24 10 8 5 5 5 0 0 0 1 3 1 1 4 22
100 100 100 100 100 100 100 100 100 96 99 18 5 5 5 13 99 100 99 97 89 90 43 91 100 100 100 100 100 78 66 68 50 52 96 72 62 40 30 5 5 64 48 14 5 2 0 0 4 4 5 5 93 100
100 100 100 100 100 100 100 100 43 93 90 25 11 98 85 95 100 100 100 96 98 100 98 98 100 100 100 100 100 78 68 68 56 70 86 84 41 28 14 5 39 84 67 22 6 5 5 4 5 5 5 21 100 100
100 100 100 100 100 100 100 100 100 100 59 89 67 100 100 100 88 100 100 100 100 100 77 95 100 100 100 100 100 92 68 66 73 76 73 66 17 93 93 63 66 78 43 22 14 5 4 5 5 5 5 100 100 100
100 100 100 100 100 100 100 100 100 64 98 100 100 100 93 100 100 100 100 100 100 100 78 59 100 100 100 100 100 100 100 81 85 39 36 65 76 86 96 69 79 78 39 17 32 8 5 4 5 5 73 100 100 100
100 100 100 95 100 100 100 100 100 100 100 100 100 100 100 100 100 100 100 100 99 28 5 42 100 100 100 100 100 100 100 78 100 70 57 70 98 90 100 92 70 68 34 39 42 18 5 5 5 32 95 100 100 100
100 100 92 99 100 100 100 100 100 100 100 100 100 100 100 100 100 100 99 99 88 38 5 70 100 100 100 100 100 100 99 95 100 97 100 34 100 100 100 90 44 63 36 76 5 9 7 38 100 98 100 100 100 100
100 100 100 100 100 100 93 100 100 100 100 100 100 100 97 98 68 62 5 5 5 5 9 100 100 100 100 100 100 98 100 100 100 100 93 70 100 90 100 99 74 57 59 72 50 14 88 91 100 100 100 79 56 5
91 100 98 100 100 100 100 93 100 100 100 100 100 100 100 35 60 41 16 5 5 1 75 100 100 100 100 100 100 100 87 84 100 100 84 100 88 95 100 100 85 54 48 61 10 74 76 100 89 97 55 19 5 5
84 98 95 100 100 100 100 92 100 100 100 100 100 100 97 89 100 89 13 98 10 9 100 100 100 100 100 100 100 75 100 100 100 89 100 100 100 100 100 100 81 61 58 47 44 100 100 100 100 49 5 5 5 5
100 91 30 100 100 100 100 100 100 100 100 100 100 42 99 94 100 100 11 48 100 100 100 100 100 80 79 58 100 100 100 100 100 55 100 100 100 98 100 100 80 72 47 32 90 100 97 47 5 5 5 5 36 47
99 96 76 100 100 100 100 100 100 100 100 100 98 78 100 100 74 100 100 100 100 100 100 100 50 45 81 100 100 100 100 100 100 99 100 100 69 97 99 86 94 56 7 24 6 22 28 16 36 93 24 73 34 5
100 72 100 100 100 100 100 100 100 100 100 82 100 100 100 100 100 100 100 100 100 100 100 100 92 30 100 100 100 100 100 100 84 100 100 100 100 86 100 96 100 95 15 12 81 84 98 99 41 14 32 10 5 5
100 100 100 100 100 100 100 100 100 100 100 92 100 100 100 100 100 100 100 100 100 100 100 89 50 97 100 100 100 100 100 100 80 100 100 100 100 100 100 100 100 100 96 93 100 92 100 99 82 19 43 5 5 5
82 100 100 100 100 100 100 92 100 88 88 100 100 100 100 100 100 100 100 100 100 100 100 93 100 100 100 100 100 100 100 100 100 100 100 100 100 100 100 100 100 100 95 100 100 100 100 100 86 90 52 5 5 5
100 100 100 100 100 88 54 92 94 84 96 100 100 100 100 100 100 100 100 100 100 100 100 100 100 100 100 100 100 100 100 100 100 100 100 100 100 100 100 100 100 100 100 100 100 95 96 100 67 20 19 5 5 3
100 100 100 100 100 83 100 100 100 100 100 100 100 100 100 100 100 100 100 100 100 100 100 100 100 100 100 100 100 100 100 100 100 100 100 100 100 100 100 100 100 100 100 100 100 100 82 10 5 5 5 5 5 5
100 100 100 100 94 98 100 100 100 100 100 100 100 100 100 100 100 100 100 100 100 100 100 100 100 100 100 100 100 100 100 100 100 100 100 100 100 100 100 100 100 100 100 100 89 25 5 5 5 5 5 5 5 5
100 100 100 100 100 100 100 100 100 100 100 98 100 100 100 100 100 100 100 100 100 100 100 100 100 100 100 100 100 100 100 100 100 100 100 100 100 100 100 100 100 100 100 89 62 8 5 5 5 5 5 4 5 5
100 100 100 100 100 100 100 100 100 100 100 100 100 100 100 100 100 100 100 100 100 100 100 100 100 100 100 100 100 100 100 100 100 100 100 100 100 99 99 100 100 100 79 95 84 5 5 5 5 5 5 5 24 8
100 100 100 97 100 100 100 100 100 100 94 100 100 100 100 100 100 100 100 100 100 100 100 100 100 100 100 100 100 100 100 100 100 100 100 100 100 100 100 100 100 100 100 96 11 5 5 5 5 5 5 5 20 5
100 100 100 100 100 100 100 100 100 91 100 100 100 100 100 100 100 100 100 100 100 100 100 100 100 100 100 100 100 100 100 100 100 100 100 100 100 100 100 100 100 100 87 19 5 5 5 5 5 5 5 5 5 5
100 100 100 100 100 100 100 100 96 100 100 100 100 100 100 100 100 100 100 100 100 100 100 100 100 100 100 100 100 100 100 100 100 100 100 100 100 100 100 100 100 56 33 7 48 47 65 32 42 22 5 5 5 5
100 100 100 100 100 99 99 100 100 100 100 100 100 100 100 100 100 100 100 100 100 100 100 100 100 100 100 100 100 100 100 100 100 100 100 100 100 100 100 100 47 42 35 36 34 87 99 32 43 5 5 5 10 5
100 100 98 98 100 100 100 100 100 100 100 100 100 100 100 100 100 100 100 100 100 100 100 100 100 100 100 100 100 100 100 100 100 100 100 100 100 100 100 49 24 64 99 73 11 5 5 7 5 5 5 5 37 33
100 100 100 100 100 100 100 100 100 100 100 100 100 100 100 100 100 100 100 100 100 100 100 100 100 100 100 100 100 100 100 100 100 100 100 100 100 100 100 85 82 31 6 5 5 5 5 5 28 13 12 8 11 14
100 100 100 100 100 100 100 100 100 100 100 100 100 100 100 100 100 100 100 100 100 100 100 100 100 100 100 100 100 100 100 100 100 100 100 100 100 97 74 68 40 5 5 5 5 5 5 17 5 15 8 60 66 65

GFSWCAN_prec_cloud_114.txt.gz
Cloud_Cover
100 100 100 100 100 100 100 100 100 100 100 100 100 100 100 100 91 100 49 100 100 92 5 27 100 100 100 75 99 86 100 76 63 63 53 73 81 6 5 4 0 1 3 5 0 2 2 0 0 2 0 0 1 5
100 100 100 100 100 100 100 100 100 100 100 100 100 100 100 100 100 100 100 100 100 100 5 5 90 97 100 100 100 97 98 100 93 59 72 57 89 42 5 5 2 1 0 0 0 0 0 0 0 0 0 0 2 4
100 100 100 100 100 100 100 100 100 100 100 100 100 100 100 100 100 100 100 100 100 100 69 5 38 100 100 100 100 100 100 99 100 92 84 68 69 72 60 22 5 5 4 3 0 0 0 0 0 0 0 0 0 0
100 100 100 100 100 100 100 100 100 100 100 100 100 100 100 100 100 100 80 100 96 62 19 46 8 100 100 100 99 91 100 100 100 63 88 93 72 70 71 53 16 5 5 5 5 5 5 2 0 0 0 0 0 0
100 100 100 100 100 100 100 100 100 100 100 100 100 100 100 100 100 100 100 79 100 21 5 17 33 48 100 100 100 99 82 72 79 50 75 92 73 34 34 58 62 30 13 5 5 5 5 5 4 0 0 0 0 4
100 100 100 100 100 100 100 100 100 100 100 100 100 100 100 100 100 100 100 99 100 87 91 47 5 20 86 100 100 100 100 68 72 57 95 100 99 45 17 48 48 72 54 38 12 5 5 10 5 0 0 0 0 0
100 100 100 100 100 100 100 100 100 100 100 100 100 100 100 99 73 100 100 100 46 100 100 100 20 5 11 100 100 99 100 100 73 61 92 100 77 74 55 92 73 70 60 60 37 5 5 5 5 1 0 0 0 2
100 100 100 100 100 100 100 100 100 100 100 100 100 100 100 95 32 72 100 100 74 96 100 100 24 5 5 64 100 100 100 100 100 63 67 100 67 98 24 93 63 52 86 71 47 7 5 5 5 5 0 5 5 8
100 100 100 100 100 100 100 100 100 100 100 100 97 100 84 100 100 81 75 100 100 100 100 60 8 61 5 14 99 100 100 100 100 97 7 66 100 64 87 27 57 61 71 78 53 7 15 5 5 5 5 5 13 100
100 100 100 100 100 100 100 100 100 100 100 100 100 100 100 100 100 62 16 100 100 100 99 25 3 9 60 73 87 100 100 100 100 100 66 99 99 21 100 60 82 70 67 70 66 18 33 9 5 5 5 5 40 100
100 100 100 100 100 100 100 100 100 100 100 100 100 100 100 100 100 100 100 100 100 100 100 50 5 5 99 100 100 99 100 100 100 100 77 100 73 99 98 93 67 53 48 66 90 15 65 12 5 5 5 10 89 100
100 100 100 100 100 100 100 100 100 100 100 100 100 100 100 100 96 100 100 95 100 41 70 7 11 5 55 100 100 100 98 83 100 100 91 100 38 100 99 96 94 63 18 56 100 30 55 39 44 7 5 73 100 100
100 100 100 100 100 100 100 100 100 100 100 100 100 100 100 100 100 100 100 100 100 61 31 7 11 10 69 95 100 100 95 47 98 100 100 100 84 100 100 98 90 69 63 72 80 67 65 79 49 46 53 100 100 100
100 100 100 100 100 100 100 100 100 100 100 100 100 100 100 100 100 78 53 4 5 5 5 5 8 6 5 97 100 100 94 24 96 100 100 100 15 97 100 97 100 62 59 65 65 55 77 78 77 99 94 100 100 92
100 100 100 100 100 100 100 100 100 100 100 100 100 72 69 100 100 100 100 53 2 1 5 5 65 80 78 100 100 88 98 30 5 100 100 100 6 100 100 99 100 70 41 87 44 42 85 68 89 74 68 11 6 5
100 100 100 100 100 100 100 100 100 100 100 100 100 91 92 100 100 99 84 22 4 5 17 53 85 100 100 47 53 14 6 8 92 100 100 100 80 100 100 100 96 100 100 42 62 57 63 92 100 100 37 5 5 7
100 100 100 100 100 100 100 100 100 100 100 100 100 70 100 100 100 100 14 5 4 50 92 97 100 11 54 46 56 5 5 100 100 100 100 100 100 88 94 100 100 100 100 100 100 100 65 100 100 82 5 5 8 67
100 100 100 100 100 100 100 100 100 100 100 100 100 100 84 22 37 5 5 0 38 83 94 100 97 32 5 5 5 5 88 100 100 100 100 100 100 82 99 100 100 100 100 100 100 100 100 81 66 57 53 13 44 58
100 100 100 100 100 100 100 100 100 100 100 100 100 93 99 68 44 5 6 92 97 66 100 100 100 100 34 6 2 26 100 100 100 100 100 100 100 100 72 100 100 100 100 94 100 100 98 99 100 50 18 12 17 86
100 100 100 100 100 100 100 100 100 100 100 100 95 88 73 56 38 54 46 100 100 100 100 100 53 17 96 77 49 100 100 100 100 100 100 100 100 100 100 82 98 98 100 100 100 100 100 100 83 78 40 5 9 50
100 100 100 100 100 100 100 100 100 100 100 98 100 98 78 98 87 90 100 100 100 100 99 78 96 100 100 100 99 100 100 100 100 100 100 100 100 100 90 80 90 100 100 100 100 100 100 100 99 48 30 5 43 5
100 100 100 100 100 100 98 94 98 90 79 98 100 99 97 80 96 98 100 100 99 78 100 98 100 100 100 100 100 100 100 100 100 100 100 100 100 100 100 100 100 100 100 100 100 100 100 100 100 35 5 5 5 5
100 100 100 100 100 100 100 90 90 74 88 100 88 70 60 98 88 95 79 23 79 100 100 100 100 100 100 100 100 100 100 100 100 100 100 100 100 100 100 100 100 100 100 100 100 100 100 100 17 5 5 5 5 6
100 100 100 100 100 100 89 81 33 36 86 90 69 73 100 100 100 100 37 100 100 100 100 100 100 100 100 100 100 100 100 100 100 100 100 100 100 100 100 100 100 100 100 100 100 100 100 92 5 5 5 5 5 5
100 100 100 100 100 88 70 96 72 97 84 45 96 100 100 100 100 100 100 100 100 100 100 100 100 100 100 100 100 100 100 100 100 100 100 100 100 100 100 100 100 100 100 100 100 100 100 65 9 5 5 5 8 58
100 99 92 66 83 93 46 58 88 80 100 100 100 100 100 100 100 100 100 100 100 100 100 100 100 100 100 100 100 100 100 100 100 100 100 100 100 100 100 100 100 100 100 100 100 100 92 74 48 5 29 11 28 76
100 100 97 12 99 89 100 95 75 96 100 100 100 100 100 100 100 100 100 100 100 100 100 100 100 100 100 100 100 100 100 100 100 100 100 100 100 100 100 100 100 100 100 100 100 100 93 66 11 5 51 84 62 56
100 94 89 86 100 100 100 100 100 100 100 100 100 100 100 100 100 100 100 100 100 100 100 100 100 100 100 100 100 100 100 100 100 100 100 100 100 100 100 100 100 100 100 100 100 100 62 97 6 31 92 55 65 40
100 88 50 97 100 100 100 100 100 100 100 100 100 100 100 100 100 100 100 100 100 100 100 100 100 100 100 100 100 100 100 100 100 100 100 100 100 100 100 100 100 100 100 100 86 69 88 50 55 61 48 62 53 55
100 98 93 92 100 100 100 100 100 100 100 100 100 100 100 100 100 100 100 100 100 100 100 100 100 100 100 100 100 100 100 100 100 100 100 100 100 100 100 100 100 100 100 96 71 92 90 65 62 94 100 58 63 54
100 100 98 100 100 100 100 100 100 100 100 100 100 100 100 100 100 100 100 100 100 100 100 100 100 100 100 100 100 100 100 100 100 100 100 100 100 100 100 98 86 94 92 76 60 16 75 63 93 100 59 71 87 73
91 100 100 100 100 100 100 100 100 100 100 100 100 100 100 100 100 100 100 100 100 100 100 100 100 100 100 100 100 100 100 100 100 100 100 100 100 100 100 100 100 100 89 91 100 82 84 100 99 22 49 66 61 56
100 100 100 100 100 100 100 100 100 100 100 100 100 100 100 100 100 100 100 100 100 100 100 100 100 100 100 100 100 100 100 100 100 100 100 99 99 100 100 97 100 95 76 100 96 96 96 27 25 58 61 57 63 63

GFSWCAN_prec_cloud_117.txt.gz
Cloud_Cover
100 100 100 100 100 100 100 100 100 100 96 82 97 96 95 100 100 100 100 100 100 100 83 2 0 0 5 5 8 60 73 73 59 6 34 68 61 54 8 5 5 1 14 5 3 4 4 0 0 0 0 0 0 0
100 100 100 100 100 100 100 100 100 100 100 96 100 100 86 98 100 96 100 100 100 100 97 0 0 0 5 5 36 42 44 56 38 44 19 51 96 100 85 56 18 5 5 5 5 0 0 5 5 5 1 0 0 0
100 100 100 100 100 100 100 100 100 100 100 100 100 100 95 99 100 90 81 97 100 100 100 44 0 0 1 5 36 100 90 42 49 57 73 67 16 57 82 99 84 72 31 6 5 5 5 5 5 5 5 5 0 0
100 100 100 100 100 100 100 100 100 100 100 100 100 100 100 100 100 100 71 77 100 100 100 30 0 0 0 0 8 89 100 100 74 41 94 47 7 8 18 51 48 88 96 59 8 8 5 5 5 5 5 5 5 0
100 100 100 100 100 100 100 100 100 100 100 100 100 100 100 100 100 100 95 100 100 100 100 62 0 0 0 5 5 9 100 100 100 99 93 58 23 19 8 39 10 67 76 95 63 10 7 5 5 5 5 5 5 1
100 100 100 100 100 100 100 100 100 100 100 100 100 100 100 100 100 100 100 94 100 100 100 100 0 0 0 2 9 52 83 91 100 100 100 59 5 74 25 8 39 69 82 57 34 5 20 33 5 54 6 5 5 5
100 100 100 100 100 100 100 100 100 100 100 100 100 100 100 100 100 100 67 87 60 100 100 100 5 5 2 4 5 55 86 73 94 100 100 100 21 53 78 52 96 7 50 43 60 8 8 23 28 69 17 5 5 5
100 100 100 100 100 100 100 100 100 100 100 100 100 100 100 100 100 100 96 100 100 100 100 100 30 5 5 5 4 5 18 82 96 100 100 100 76 100 100 11 37 11 6 58 60 38 31 8 40 71 26 5 6 5
100 100 100 100 100 100 100 100 100 100 100 100 100 100 100 100 100 100 64 100 100 100 100 100 56 7 11 5 3 5 5 35 12 96 100 82 97 100 99 6 94 7 7 73 60 47 39 33 13 23 38 5 10 5
100 100 100 100 100 100 100 100 100 100 100 100 100 100 100 100 100 100 95 92 100 100 100 100 100 100 80 84 17 9 5 5 79 64 100 27 95 100 89 16 100 41 40 58 68 43 54 54 36 5 56 40 44 6
100 100 100 100 100 100 100 100 100 100 100 100 100 100 100 100 100 100 100 100 96 100 100 100 100 100 100 57 100 5 9 19 72 9 20 24 100 100 44 92 100 10 84 39 37 24 32 66 43 50 11 58 100 93
100 100 100 100 100 100 100 100 100 100 100 100 100 100 100 100 100 100 86 80 100 80 86 100 100 100 100 99 97 46 5 50 58 5 23 28 100 100 68 94 100 90 33 99 74 9 66 65 26 61 20 87 100 99
100 100 100 100 100 100 100 100 100 100 100 100 100 100 100 100 100 100 95 100 100 100 96 100 100 100 100 88 97 98 99 61 6 66 35 72 100 100 100 75 100 95 43 100 100 8 58 63 66 56 64 64 86 99
100 100 100 100 100 100 100 100 100 100 100 100 100 100 95 96 100 100 100 100 100 100 98 98 68 100 94 96 94 97 64 10 79 100 30 96 100 100 98 31 100 94 68 100 100 67 39 78 78 79 99 100 77 100
100 100 100 100 100 100 100 100 100 100 100 100 100 87 96 44 100 100 100 100 100 100 99 100 100 100 100 100 97 93 97 51 5 5 62 100 100 100 100 48 100 100 76 97 100 100 96 83 16 76 83 100 100 100
100 100 100 100 100 100 100 100 100 100 100 100 99 82 40 100 100 100 100 100 100 100 100 100 96 100 100 89 75 49 18 7 3 5 81 100 100 100 100 100 100 99 5 32 100 100 100 100 44 71 77 81 97 95
100 100 100 100 100 100 100 100 100 100 100 100 100 100 100 100 100 100 100 100 100 100 100 100 63 98 59 85 83 5 5 5 5 2 22 100 100 100 100 100 100 100 5 5 55 100 100 100 100 100 100 100 99 47
100 100 100 100 100 100 100 100 100 100 100 76 100 100 100 100 97 100 100 100 100 100 83 9 6 57 33 5 5 5 5 2 2 0 6 100 100 100 100 100 100 100 74 64 90 100 100 100 100 100 100 100 100 100
100 100 100 100 100 100 100 100 100 100 98 100 100 100 100 100 100 100 100 100 100 86 37 32 67 80 65 10 5 5 2 3 3 0 3 99 100 100 100 100 100 100 100 81 61 86 98 97 99 100 100 100 100 100
100 100 100 100 100 100 100 100 100 100 100 100 100 100 100 100 100 100 99 96 68 98 97 90 15 15 6 2 4 5 77 95 60 70 5 100 100 100 100 100 100 100 100 93 66 47 74 62 98 100 100 100 100 100
100 100 100 100 100 100 100 100 100 100 100 100 100 100 100 100 98 99 61 30 100 94 71 9 0 4 87 5 74 98 100 100 100 100 100 100 100 100 100 100 100 100 100 100 100 96 54 33 94 100 100 100 100 100
100 100 100 100 100 100 100 100 100 100 100 100 100 100 100 100 96 94 76 100 100 21 5 5 4 6 74 68 100 100 100 99 100 100 100 100 100 100 100 100 100 100 100 99 97 100 100 98 97 100 100 100 100 100
100 100 100 100 100 100 100 100 99 100 100 100 100 100 98 95 73 93 100 85 20 5 2 18 24 25 59 98 100 100 100 100 100 100 100 100 100 100 100 100 100 100 100 100 100 100 100 100 100 100 100 100 100 97
100 100 100 100 100 100 99 100 100 98 100 100 100 97 100 99 100 100 96 64 6 12 10 71 100 100 100 100 100 100 100 100 100 100 100 100 100 100 100 100 100 100 100 100 100 100 100 100 100 100 100 100 79 76
100 100 100 100 100 92 100 100 100 100 100 100 100 98 99 99 100 96 59 16 91 30 100 100 100 100 100 100 100 100 100 100 100 100 100 100 100 100 100 100 100 100 100 100 100 100 100 100 100 100 100 60 72 61
100 100 99 96 76 88 100 100 100 100 100 100 81 70 80 74 97 53 6 99 78 100 100 100 100 100 100 100 100 100 100 100 100 100 100 100 100 100 100 100 100 100 100 100 100 100 100 100 100 100 84 62 60 75
100 84 93 73 87 100 100 100 100 96 82 43 83 94 57 71 34 5 84 71 99 100 100 100 100 100 100 100 100 100 100 100 100 100 100 100 100 100 100 100 100 100 100 100 100 100 100 100 100 79 89 98 88 65
100 89 100 100 100 100 100 100 65 42 5 59 90 87 14 10 21 100 96 100 100 100 100 100 100 100 100 100 100 100 100 100 100 100 100 100 100 100 100 100 100 100 100 100 100 100 100 100 74 56 100 100 84 51
100 100 100 100 100 99 46 13 23 68 28 18 27 36 6 45 97 98 91 100 100 100 100 100 100 100 100 100 100 100 100 100 100 100 100 100 100 100 100 100 100 100 100 100 100 100 100 99 90 100 100 91 36 58
100 100 100 100 66 93 76 71 94 95 83 99 66 65 49 80 86 70 100 100 100 100 100 100 100 100 100 100 100 100 100 100 100 100 100 100 100 100 100 100 100 100 100 100 100 100 100 100 100 100 90 60 51 54
100 54 92 82 88 95 94 88 100 100 100 100 82 66 52 84 100 100 100 100 100 100 100 100 100 100 100 100 100 100 100 100 100 100 100 100 100 100 100 100 100 100 100 100 100 100 100 100 100 57 34 64 51 77
97 98 70 55 92 98 88 100 100 100 100 100 100 100 93 96 100 100 100 100 100 100 100 100 100 100 100 100 100 100 100 100 100 100 100 100 100 100 100 100 100 100 100 100 100 84 64 95 84 35 30 68 71 67
97 100 91 100 100 100 98 97 100 100 100 99 100 100 100 93 100 100 100 100 100 100 100 100 100 100 100 100 100 100 100 100 100 100 100 100 100 100 100 100 100 100 100 86 47 66 99 83 12 52 52 57 72 76

GFSWCAN_prec_cloud_120.txt.gz
Cloud_Cover
100 100 100 100 100 100 100 91 90 100 100 50 97 94 5 88 100 100 95 100 100 100 100 100 100 100 92 100 0 3 5 5 24 16 9 16 44 88 76 69 54 34 16 15 5 5 4 3 5 5 5 0 0 0
100 100 100 100 100 100 100 100 100 100 100 94 100 100 100 95 74 100 20 99 99 73 88 100 100 100 98 64 13 0 5 5 8 77 48 26 37 55 44 58 68 48 74 42 5 5 5 5 5 5 5 5 5 0
100 100 100 100 100 100 100 100 100 100 100 100 100 100 100 100 100 96 95 75 100 99 100 100 100 100 100 100 23 0 1 5 5 92 100 98 48 98 68 6 5 26 69 79 68 12 5 5 5 5 5 5 5 2
100 100 100 100 100 100 100 100 100 100 100 100 100 100 100 66 12 8 54 54 96 98 97 100 100 100 100 96 3 0 0 5 5 52 100 100 69 95 95 74 6 43 20 37 63 58 11 5 5 5 8 5 5 5
100 100 100 100 100 100 100 100 100 100 100 100 100 100 100 100 87 100 96 67 37 67 63 94 99 100 100 98 0 0 0 4 5 12 100 100 100 70 97 100 84 100 56 24 14 61 38 11 5 5 32 62 8 5
100 100 100 100 100 100 100 100 100 100 100 100 100 100 100 100 100 100 99 81 98 100 100 100 100 100 100 100 11 0 0 0 5 5 5 87 100 19 69 100 46 57 97 79 34 26 74 6 53 5 5 48 26 5
100 100 100 100 100 100 100 100 100 100 100 100 100 100 100 100 100 100 100 49 96 100 100 100 100 100 100 100 84 3 4 0 0 5 12 7 100 6 56 100 89 25 100 20 42 8 6 30 18 5 5 27 25 5
100 100 100 100 100 100 100 100 100 100 100 100 100 100 100 100 100 100 100 98 81 100 100 100 100 100 100 100 61 5 5 5 3 2 7 40 28 5 26 100 85 13 86 62 7 25 5 6 5 5 6 24 33 6
100 100 100 100 100 100 100 100 100 100 100 100 100 100 100 100 100 100 100 100 100 100 100 100 100 100 100 100 100 13 5 77 5 5 5 5 6 56 100 100 100 5 5 58 5 37 6 5 5 5 5 12 23 14
100 100 100 100 100 100 100 100 100 100 100 100 100 100 100 100 100 100 100 100 100 100 100 100 100 100 100 100 100 100 12 8 74 5 6 30 7 92 100 100 100 6 90 100 97 18 5 20 5 5 5 5 5 11
100 100 100 100 100 100 100 100 100 100 100 100 100 100 100 100 100 100 100 100 89 100 100 100 100 100 100 100 100 48 9 32 66 4 5 11 67 86 100 100 100 54 51 100 97 55 7 5 5 5 5 5 5 5
100 100 100 100 100 100 100 100 100 100 100 100 100 100 100 100 100 100 100 91 100 100 100 100 100 100 100 100 100 68 22 55 45 6 45 70 5 55 100 100 100 63 8 100 100 100 85 5 5 5 5 5 5 23
100 100 100 100 100 100 100 100 100 100 100 100 100 100 100 100 100 100 81 100 100 100 100 100 100 100 100 100 100 100 94 75 8 74 75 5 4 7 100 100 100 100 54 100 100 100 100 76 49 5 5 4 5 17
100 100 100 100 100 100 100 100 100 100 100 100 100 100 100 100 52 5 6 51 100 100 100 100 100 100 100 100 100 88 11 10 97 100 70 82 5 5 71 100 100 100 100 100 100 100 100 100 91 30 5 2 5 5
100 100 100 100 100 100 100 100 100 100 100 100 100 100 100 98 28 5 74 63 100 100 100 100 100 100 99 98 97 38 88 87 6 5 43 92 4 3 8 100 100 100 100 100 100 100 100 100 100 100 6 5 5 5
100 100 100 100 100 100 100 100 100 100 100 100 100 100 61 25 86 100 100 100 100 100 100 100 100 99 85 15 85 92 97 56 5 5 56 38 5 0 5 80 100 13 98 100 100 100 100 100 100 100 84 5 12 73
100 100 100 100 100 100 100 100 100 100 100 100 100 90 17 98 100 100 100 100 100 100 100 100 79 97 40 99 91 5 25 7 6 5 2 8 5 0 14 12 100 82 100 100 100 100 100 100 100 100 100 37 59 99
100 100 100 100 100 100 100 100 100 100 100 100 100 97 100 99 99 100 100 100 100 100 100 98 100 86 44 61 50 12 84 26 96 100 66 6 5 6 27 5 38 100 38 65 100 95 100 100 100 100 100 100 78 15
100 100 100 100 100 100 100 100 100 100 100 99 67 56 95 100 100 100 100 100 100 100 100 70 99 31 53 97 100 83 62 6 5 14 16 5 5 5 5 4 5 91 100 86 100 100 100 100 98 100 100 100 96 59
100 100 100 100 100 100 100 100 100 100 100 67 81 100 100 100 100 100 100 100 100 100 95 98 46 51 96 99 63 5 0 0 0 0 2 0 3 3 4 4 15 34 100 98 100 100 100 100 100 100 100 100 69 57
100 100 100 100 100 100 100 100 100 100 100 100 100 100 100 100 100 100 100 100 100 76 92 100 100 100 46 5 3 0 0 2 5 1 0 25 4 47 76 99 59 22 100 100 100 100 100 100 100 100 100 100 85 84
100 100 100 100 100 100 100 99 98 100 100 100 100 100 100 100 100 100 100 100 100 100 100 95 34 8 5 5 4 5 0 5 5 5 2 5 74 100 100 100 100 100 100 100 100 100 100 100 100 100 100 100 100 100
100 100 100 100 100 100 100 100 100 100 100 100 100 100 100 100 100 100 100 100 84 100 99 43 5 4 0 0 2 5 5 5 3 33 62 100 100 100 100 100 100 100 100 100 100 100 100 100 100 99 93 100 100 100
100 100 100 100 100 100 100 100 97 100 100 100 100 100 100 100 100 100 88 100 100 96 14 5 4 27 95 78 8 5 5 6 98 100 100 100 100 100 100 100 91 100 100 100 100 100 100 100 99 80 100 100 100 100
100 100 100 100 100 100 100 100 98 100 100 100 100 100 100 100 96 86 61 100 27 79 20 1 5 5 5 5 5 8 88 100 100 100 100 100 100 100 100 100 100 100 100 100 100 100 100 100 100 100 100 100 100 100
100 100 100 99 100 100 100 100 100 100 100 100 100 100 100 99 98 78 96 91 37 5 5 5 5 5 5 51 84 76 100 100 100 100 100 97 100 100 100 100 100 100 100 100 100 100 100 100 100 100 100 100 100 100
100 96 100 100 100 100 93 99 100 100 100 100 100 100 92 94 78 24 44 74 86 76 73 72 37 5 72 46 84 100 100 100 100 100 100 100 100 100 100 100 100 100 100 100 100 100 100 100 100 100 100 100 100 80
94 72 100 100 100 100 100 100 100 100 100 76 54 82 26 76 100 36 89 56 68 66 62 93 95 52 94 100 100 100 100 100 100 100 100 100 100 100 100 100 100 100 100 100 100 100 100 100 100 100 100 100 99 92
100 100 100 100 100 100 100 100 100 90 23 25 70 99 100 100 58 67 55 66 72 89 92 100 100 100 100 100 100 100 100 100 100 100 100 100 100 100 100 100 100 100 100 100 100 100 100 100 100 99 100 99 77 100
100 100 100 100 100 100 100 100 100 100 94 94 100 99 52 52 58 70 80 81 82 90 79 100 100 100 100 100 100 100 100 100 100 100 100 100 100 100 100 100 100 100 100 100 100 100 100 100 100 100 100 100 100 100
100 100 100 100 100 100 100 100 100 100 100 100 100 82 46 61 24 79 87 86 90 94 89 100 100 100 100 100 100 100 100 100 100 100 100 100 100 100 100 100 100 100 100 100 100 100 100 100 100 100 100 100 100 83
100 100 100 100 100 100 100 100 100 100 100 95 76 73 47 61 76 48 69 85 87 98 100 100 100 100 100 100 100 100 100 100 100 100 100 100 100 100 100 100 100 100 100 100 100 100 100 100 100 100 100 100 75 69
99 98 94 91 98 100 100 98 100 98 98 95 84 64 60 36 24 8 80 86 100 100 100 100 100 100 100 100 100 100 100 100 100 100 100 100 100 100 100 100 100 100 100 100 100 100 100 100 100 100 100 38 62 83